<?xml version='1.0' encoding='UTF-8'?><gpx version="1.1" creator="JPX - https://github.com/jenetics/jpx" xmlns="http://www.topografix.com/GPX/1/1"><trk><trkseg><trkpt lat="47.291458107670856" lon="8.705789549709952"><ele>507.0</ele><time>2026-04-18T10:28:55Z</time></trkpt><trkpt lat="47.29152536048139" lon="8.705728330639344"><ele>507.0</ele><time>2026-04-18T10:28:57Z</time></trkpt><trkpt lat="47.291617842760175" lon="8.705638821442745"><ele>507.0</ele><time>2026-04-18T10:28:59Z</time></trkpt><trkpt lat="47.291664379091266" lon="8.705574222670014"><ele>507.0</ele><time>2026-04-18T10:29:00Z</time></trkpt><trkpt lat="47.29171271191083" lon="8.705509409344437"><ele>507.0</ele><time>2026-04-18T10:29:01Z</time></trkpt><trkpt lat="47.29176569234738" lon="8.70545237012519"><ele>507.0</ele><time>2026-04-18T10:29:02Z</time></trkpt><trkpt lat="47.2918151253855" lon="8.705387392880725"><ele>507.0</ele><time>2026-04-18T10:29:03Z</time></trkpt><trkpt lat="47.29186290524196" lon="8.705314986316266"><ele>507.0</ele><time>2026-04-18T10:29:04Z</time></trkpt><trkpt lat="47.291909948129614" lon="8.705237971718471"><ele>507.0</ele><time>2026-04-18T10:29:05Z</time></trkpt><trkpt lat="47.29195767921" lon="8.705161452932817"><ele>507.0</ele><time>2026-04-18T10:29:06Z</time></trkpt><trkpt lat="47.29199769858751" lon="8.705071690960294"><ele>507.0</ele><time>2026-04-18T10:29:07Z</time></trkpt><trkpt lat="47.29203699020383" lon="8.70498068245535"><ele>507.0</ele><time>2026-04-18T10:29:08Z</time></trkpt><trkpt lat="47.29205659590593" lon="8.704878703545772"><ele>507.0</ele><time>2026-04-18T10:29:09Z</time></trkpt><trkpt lat="47.29210018249198" lon="8.704791187803858"><ele>507.85714285714283</ele><time>2026-04-18T10:29:10Z</time></trkpt><trkpt lat="47.29212403565203" lon="8.704693519619473"><ele>508.7142857142858</ele><time>2026-04-18T10:29:11.001Z</time></trkpt><trkpt lat="47.29214821764976" lon="8.704594985338034"><ele>509.5714285714286</ele><time>2026-04-18T10:29:12.001Z</time></trkpt><trkpt lat="47.29216801177949" lon="8.70449142365669"><ele>510.42857142857144</ele><time>2026-04-18T10:29:13.001Z</time></trkpt><trkpt lat="47.29217905867862" lon="8.7043834698342"><ele>511.28571428571433</ele><time>2026-04-18T10:29:14.001Z</time></trkpt><trkpt lat="47.292193719714085" lon="8.704276793229543"><ele>512.1428571428572</ele><time>2026-04-18T10:29:15.001Z</time></trkpt><trkpt lat="47.292207848304315" lon="8.70417236684924"><ele>513.0</ele><time>2026-04-18T10:29:16.001Z</time></trkpt><trkpt lat="47.29221950221893" lon="8.704068781298037"><ele>513.1666666666666</ele><time>2026-04-18T10:29:17.001Z</time></trkpt><trkpt lat="47.2922258547609" lon="8.703959894011987"><ele>513.3333333333334</ele><time>2026-04-18T10:29:18.001Z</time></trkpt><trkpt lat="47.29223217279184" lon="8.703848236216283"><ele>513.5</ele><time>2026-04-18T10:29:19.001Z</time></trkpt><trkpt lat="47.29223946584308" lon="8.703736068098141"><ele>513.6666666666667</ele><time>2026-04-18T10:29:20.001Z</time></trkpt><trkpt lat="47.2922482932192" lon="8.703623443261627"><ele>513.8333333333334</ele><time>2026-04-18T10:29:21.001Z</time></trkpt><trkpt lat="47.292253148750625" lon="8.703510933386168"><ele>514.0</ele><time>2026-04-18T10:29:22.001Z</time></trkpt><trkpt lat="47.292260049237555" lon="8.703401850701589"><ele>514.0</ele><time>2026-04-18T10:29:23.001Z</time></trkpt><trkpt lat="47.292266865402624" lon="8.70329057381375"><ele>514.0</ele><time>2026-04-18T10:29:24.001Z</time></trkpt><trkpt lat="47.292270922447635" lon="8.70317888102154"><ele>514.0</ele><time>2026-04-18T10:29:25.001Z</time></trkpt><trkpt lat="47.29227749411778" lon="8.703067131254949"><ele>514.0</ele><time>2026-04-18T10:29:26.001Z</time></trkpt><trkpt lat="47.29228547427974" lon="8.70295499872484"><ele>514.0</ele><time>2026-04-18T10:29:27.001Z</time></trkpt><trkpt lat="47.29229219792125" lon="8.702841566956158"><ele>514.0</ele><time>2026-04-18T10:29:28.001Z</time></trkpt><trkpt lat="47.29229884290658" lon="8.702727061921625"><ele>514.0</ele><time>2026-04-18T10:29:29.001Z</time></trkpt><trkpt lat="47.29230624922715" lon="8.702612792697419"><ele>514.0</ele><time>2026-04-18T10:29:30.001Z</time></trkpt><trkpt lat="47.29231217925368" lon="8.702499274248357"><ele>514.0</ele><time>2026-04-18T10:29:31.001Z</time></trkpt><trkpt lat="47.29231793723829" lon="8.702385688571582"><ele>514.0</ele><time>2026-04-18T10:29:32.001Z</time></trkpt><trkpt lat="47.2923222509951" lon="8.702271546763159"><ele>514.0</ele><time>2026-04-18T10:29:33.001Z</time></trkpt><trkpt lat="47.29233088037466" lon="8.702157789916303"><ele>514.0</ele><time>2026-04-18T10:29:34.001Z</time></trkpt><trkpt lat="47.29234282412812" lon="8.702043079383126"><ele>514.0</ele><time>2026-04-18T10:29:35.001Z</time></trkpt><trkpt lat="47.2923528087221" lon="8.70192779682484"><ele>514.0</ele><time>2026-04-18T10:29:36.001Z</time></trkpt><trkpt lat="47.292365580551355" lon="8.701814361880762"><ele>514.0</ele><time>2026-04-18T10:29:37.001Z</time></trkpt><trkpt lat="47.2923766383558" lon="8.701699705172155"><ele>514.0</ele><time>2026-04-18T10:29:38.001Z</time></trkpt><trkpt lat="47.292388352939604" lon="8.701585303592235"><ele>514.0</ele><time>2026-04-18T10:29:39.001Z</time></trkpt><trkpt lat="47.29239666620847" lon="8.701472252674863"><ele>514.0</ele><time>2026-04-18T10:29:40.001Z</time></trkpt><trkpt lat="47.29240949887467" lon="8.701360664842442"><ele>514.0</ele><time>2026-04-18T10:29:41.001Z</time></trkpt><trkpt lat="47.29242287348603" lon="8.70124946709938"><ele>514.0</ele><time>2026-04-18T10:29:42.001Z</time></trkpt><trkpt lat="47.29243798839329" lon="8.701139172554669"><ele>514.0</ele><time>2026-04-18T10:29:43.001Z</time></trkpt><trkpt lat="47.29245107379005" lon="8.701026484293985"><ele>514.0</ele><time>2026-04-18T10:29:44.001Z</time></trkpt><trkpt lat="47.29246943894202" lon="8.700913422697914"><ele>514.0</ele><time>2026-04-18T10:29:45.001Z</time></trkpt><trkpt lat="47.29248937681809" lon="8.700798464791674"><ele>514.0</ele><time>2026-04-18T10:29:46.001Z</time></trkpt><trkpt lat="47.292511563180625" lon="8.700686509223528"><ele>514.3333333333334</ele><time>2026-04-18T10:29:47.001Z</time></trkpt><trkpt lat="47.292533930447796" lon="8.700573376299584"><ele>514.6666666666667</ele><time>2026-04-18T10:29:48.001Z</time></trkpt><trkpt lat="47.29255516769222" lon="8.700462614628226"><ele>515.0</ele><time>2026-04-18T10:29:49.001Z</time></trkpt><trkpt lat="47.29257714139973" lon="8.700352224126728"><ele>515.3333333333334</ele><time>2026-04-18T10:29:50.001Z</time></trkpt><trkpt lat="47.29260205539832" lon="8.700242415969146"><ele>515.6666666666666</ele><time>2026-04-18T10:29:51.001Z</time></trkpt><trkpt lat="47.29262984243822" lon="8.700132967124802"><ele>516.0</ele><time>2026-04-18T10:29:52.001Z</time></trkpt><trkpt lat="47.29265752550111" lon="8.700022442575488"><ele>516.0</ele><time>2026-04-18T10:29:53.001Z</time></trkpt><trkpt lat="47.29268654574591" lon="8.699914377248485"><ele>516.0</ele><time>2026-04-18T10:29:54.001Z</time></trkpt><trkpt lat="47.29271760250049" lon="8.69980855887543"><ele>516.0</ele><time>2026-04-18T10:29:55.001Z</time></trkpt><trkpt lat="47.292747607377855" lon="8.699702906866376"><ele>516.0</ele><time>2026-04-18T10:29:56.001Z</time></trkpt><trkpt lat="47.29277947890408" lon="8.69959747550837"><ele>516.0</ele><time>2026-04-18T10:29:57.001Z</time></trkpt><trkpt lat="47.292814241818206" lon="8.699496443692265"><ele>516.0</ele><time>2026-04-18T10:29:58.001Z</time></trkpt><trkpt lat="47.292849587523605" lon="8.699393865582149"><ele>516.0</ele><time>2026-04-18T10:29:59.001Z</time></trkpt><trkpt lat="47.29288770872831" lon="8.699294519258721"><ele>516.0</ele><time>2026-04-18T10:30:00.001Z</time></trkpt><trkpt lat="47.29292713638023" lon="8.699194258627598"><ele>516.0</ele><time>2026-04-18T10:30:01.001Z</time></trkpt><trkpt lat="47.292965677530646" lon="8.699094214291916"><ele>516.0</ele><time>2026-04-18T10:30:02.001Z</time></trkpt><trkpt lat="47.29300505187147" lon="8.698993380037768"><ele>516.0</ele><time>2026-04-18T10:30:03.001Z</time></trkpt><trkpt lat="47.29304824883355" lon="8.698898862457547"><ele>516.0</ele><time>2026-04-18T10:30:04.001Z</time></trkpt><trkpt lat="47.29309217771906" lon="8.698801442825783"><ele>516.0</ele><time>2026-04-18T10:30:05.001Z</time></trkpt><trkpt lat="47.29313460779531" lon="8.698704469858741"><ele>516.0</ele><time>2026-04-18T10:30:06.001Z</time></trkpt><trkpt lat="47.29317942284425" lon="8.698608983281522"><ele>516.0</ele><time>2026-04-18T10:30:07.001Z</time></trkpt><trkpt lat="47.29322548574771" lon="8.698515150112474"><ele>516.0</ele><time>2026-04-18T10:30:08.001Z</time></trkpt><trkpt lat="47.293271422813085" lon="8.698422433954432"><ele>516.0</ele><time>2026-04-18T10:30:09.001Z</time></trkpt><trkpt lat="47.29331923876799" lon="8.698330781544351"><ele>516.0</ele><time>2026-04-18T10:30:10.001Z</time></trkpt><trkpt lat="47.29336532860645" lon="8.69824109725881"><ele>516.6666666666666</ele><time>2026-04-18T10:30:11.001Z</time></trkpt><trkpt lat="47.29341127360843" lon="8.698151227462663"><ele>517.3333333333334</ele><time>2026-04-18T10:30:12.001Z</time></trkpt><trkpt lat="47.29345750717493" lon="8.698061177817213"><ele>518.0</ele><time>2026-04-18T10:30:13.001Z</time></trkpt><trkpt lat="47.293507523495826" lon="8.697971518531642"><ele>518.6666666666667</ele><time>2026-04-18T10:30:14.001Z</time></trkpt><trkpt lat="47.29355441718609" lon="8.697879190551298"><ele>519.3333333333334</ele><time>2026-04-18T10:30:15.001Z</time></trkpt><trkpt lat="47.293601115264984" lon="8.697786695013871"><ele>520.0</ele><time>2026-04-18T10:30:16.001Z</time></trkpt><trkpt lat="47.29364752854986" lon="8.697693822756605"><ele>520.6666666666667</ele><time>2026-04-18T10:30:17.001Z</time></trkpt><trkpt lat="47.2936962276852" lon="8.697602374069097"><ele>521.3333333333334</ele><time>2026-04-18T10:30:18.001Z</time></trkpt><trkpt lat="47.29374508252239" lon="8.697510383831702"><ele>522.0</ele><time>2026-04-18T10:30:19.001Z</time></trkpt><trkpt lat="47.29379166413322" lon="8.697417612417118"><ele>522.6666666666666</ele><time>2026-04-18T10:30:20.001Z</time></trkpt><trkpt lat="47.29383876678618" lon="8.69732101751533"><ele>523.3333333333333</ele><time>2026-04-18T10:30:21.001Z</time></trkpt><trkpt lat="47.29388574535802" lon="8.697224690175068"><ele>524.0</ele><time>2026-04-18T10:30:22.001Z</time></trkpt><trkpt lat="47.29393441700848" lon="8.69713013490883"><ele>524.0</ele><time>2026-04-18T10:30:23.001Z</time></trkpt><trkpt lat="47.293987301211864" lon="8.697040764791518"><ele>524.0</ele><time>2026-04-18T10:30:24.001Z</time></trkpt><trkpt lat="47.294036648721814" lon="8.696947038889435"><ele>524.0</ele><time>2026-04-18T10:30:25.001Z</time></trkpt><trkpt lat="47.29408628274792" lon="8.696852045423942"><ele>524.0</ele><time>2026-04-18T10:30:26.001Z</time></trkpt><trkpt lat="47.294138212841524" lon="8.696757696348714"><ele>524.0</ele><time>2026-04-18T10:30:27.001Z</time></trkpt><trkpt lat="47.294187160601986" lon="8.696662378022674"><ele>524.0</ele><time>2026-04-18T10:30:28.001Z</time></trkpt><trkpt lat="47.29423511839563" lon="8.696567919429564"><ele>523.8333333333333</ele><time>2026-04-18T10:30:29.001Z</time></trkpt><trkpt lat="47.29428833730816" lon="8.696479490701252"><ele>523.6666666666666</ele><time>2026-04-18T10:30:30.001Z</time></trkpt><trkpt lat="47.29434186065646" lon="8.696389998968215"><ele>523.5</ele><time>2026-04-18T10:30:31.001Z</time></trkpt><trkpt lat="47.29439658157488" lon="8.69630213659956"><ele>523.3333333333334</ele><time>2026-04-18T10:30:32.001Z</time></trkpt><trkpt lat="47.29445226960326" lon="8.696216347715445"><ele>523.1666666666667</ele><time>2026-04-18T10:30:33.001Z</time></trkpt><trkpt lat="47.29450995547832" lon="8.696131189676407"><ele>523.0</ele><time>2026-04-18T10:30:34.001Z</time></trkpt><trkpt lat="47.294570008917724" lon="8.69605043162535"><ele>523.1666666666667</ele><time>2026-04-18T10:30:35.001Z</time></trkpt><trkpt lat="47.294628236473784" lon="8.695969151950015"><ele>523.3333333333334</ele><time>2026-04-18T10:30:36.001Z</time></trkpt><trkpt lat="47.29468552966451" lon="8.695891219213177"><ele>523.5</ele><time>2026-04-18T10:30:37.001Z</time></trkpt><trkpt lat="47.29474566377231" lon="8.695812370799029"><ele>523.6666666666666</ele><time>2026-04-18T10:30:38.001Z</time></trkpt><trkpt lat="47.29480399821496" lon="8.69573094022856"><ele>523.8333333333333</ele><time>2026-04-18T10:30:39.001Z</time></trkpt><trkpt lat="47.29485732593915" lon="8.695641217404727"><ele>524.0</ele><time>2026-04-18T10:30:40.001Z</time></trkpt><trkpt lat="47.294915606759666" lon="8.695560827726268"><ele>524.0</ele><time>2026-04-18T10:30:41.001Z</time></trkpt><trkpt lat="47.29498112161083" lon="8.695490074499"><ele>524.0</ele><time>2026-04-18T10:30:42.001Z</time></trkpt><trkpt lat="47.2950488595678" lon="8.695422392078845"><ele>524.0</ele><time>2026-04-18T10:30:43.001Z</time></trkpt><trkpt lat="47.295117828799306" lon="8.695361870048957"><ele>524.0</ele><time>2026-04-18T10:30:44.001Z</time></trkpt><trkpt lat="47.29518941109023" lon="8.695306830713276"><ele>524.0</ele><time>2026-04-18T10:30:45.001Z</time></trkpt><trkpt lat="47.29525738695297" lon="8.695248053491593"><ele>524.0</ele><time>2026-04-18T10:30:46.001Z</time></trkpt><trkpt lat="47.29532076828346" lon="8.695178884693323"><ele>524.1666666666666</ele><time>2026-04-18T10:30:47.001Z</time></trkpt><trkpt lat="47.295386929871434" lon="8.695110029444868"><ele>524.3333333333333</ele><time>2026-04-18T10:30:48.001Z</time></trkpt><trkpt lat="47.29545190341538" lon="8.695039626527619"><ele>524.5</ele><time>2026-04-18T10:30:49.001Z</time></trkpt><trkpt lat="47.295515495636046" lon="8.694968559190684"><ele>524.6666666666666</ele><time>2026-04-18T10:30:50.001Z</time></trkpt><trkpt lat="47.29557859731796" lon="8.694900331251878"><ele>524.8333333333334</ele><time>2026-04-18T10:30:51.001Z</time></trkpt><trkpt lat="47.29564172313602" lon="8.694829646875117"><ele>525.0</ele><time>2026-04-18T10:30:52.001Z</time></trkpt><trkpt lat="47.29570234147619" lon="8.69475749296615"><ele>525.0</ele><time>2026-04-18T10:30:53.001Z</time></trkpt><trkpt lat="47.29576047236192" lon="8.694681495844096"><ele>525.0</ele><time>2026-04-18T10:30:54.001Z</time></trkpt><trkpt lat="47.29582146446917" lon="8.694606996655606"><ele>525.0</ele><time>2026-04-18T10:30:55Z</time></trkpt><trkpt lat="47.29588042535946" lon="8.694533439241987"><ele>525.0</ele><time>2026-04-18T10:30:56Z</time></trkpt><trkpt lat="47.29594009376322" lon="8.694457713010468"><ele>525.0</ele><time>2026-04-18T10:30:57Z</time></trkpt><trkpt lat="47.29599606504045" lon="8.694377531927055"><ele>525.0</ele><time>2026-04-18T10:30:58Z</time></trkpt><trkpt lat="47.296053259807024" lon="8.694299913829749"><ele>525.8333333333334</ele><time>2026-04-18T10:30:59Z</time></trkpt><trkpt lat="47.29610958462363" lon="8.69422127771751"><ele>526.6666666666666</ele><time>2026-04-18T10:31:00Z</time></trkpt><trkpt lat="47.29616171944725" lon="8.694138622119448"><ele>527.5</ele><time>2026-04-18T10:31:01Z</time></trkpt><trkpt lat="47.29621716204876" lon="8.694060413427183"><ele>528.3333333333333</ele><time>2026-04-18T10:31:02Z</time></trkpt><trkpt lat="47.296269354295816" lon="8.693973985074408"><ele>529.1666666666666</ele><time>2026-04-18T10:31:03Z</time></trkpt><trkpt lat="47.29632609304641" lon="8.69389673248835"><ele>530.0</ele><time>2026-04-18T10:31:04Z</time></trkpt><trkpt lat="47.296384057398825" lon="8.69381805890098"><ele>529.6666666666666</ele><time>2026-04-18T10:31:05Z</time></trkpt><trkpt lat="47.296442946543415" lon="8.693745720300385"><ele>529.3333333333333</ele><time>2026-04-18T10:31:06Z</time></trkpt><trkpt lat="47.29650395012077" lon="8.693674344155484"><ele>529.0</ele><time>2026-04-18T10:31:07Z</time></trkpt><trkpt lat="47.29656213691117" lon="8.693597484717772"><ele>528.6666666666666</ele><time>2026-04-18T10:31:08Z</time></trkpt><trkpt lat="47.29661680304391" lon="8.693512691846585"><ele>528.3333333333334</ele><time>2026-04-18T10:31:09Z</time></trkpt><trkpt lat="47.2966719102626" lon="8.693429835163263"><ele>528.0</ele><time>2026-04-18T10:31:10Z</time></trkpt><trkpt lat="47.29673074899959" lon="8.693352357594746"><ele>528.0</ele><time>2026-04-18T10:31:11Z</time></trkpt><trkpt lat="47.29678677840219" lon="8.693270690549095"><ele>528.0</ele><time>2026-04-18T10:31:12Z</time></trkpt><trkpt lat="47.29684125100193" lon="8.693190232347376"><ele>528.0</ele><time>2026-04-18T10:31:13Z</time></trkpt><trkpt lat="47.29689417101033" lon="8.693110062951606"><ele>528.0</ele><time>2026-04-18T10:31:14Z</time></trkpt><trkpt lat="47.296943859008685" lon="8.693024615601795"><ele>528.0</ele><time>2026-04-18T10:31:15Z</time></trkpt><trkpt lat="47.29699923808499" lon="8.692945823692646"><ele>528.0</ele><time>2026-04-18T10:31:16Z</time></trkpt><trkpt lat="47.297056129980284" lon="8.692866289927794"><ele>528.0</ele><time>2026-04-18T10:31:17Z</time></trkpt><trkpt lat="47.29711697063085" lon="8.692799441182784"><ele>528.0</ele><time>2026-04-18T10:31:18Z</time></trkpt><trkpt lat="47.29717591367078" lon="8.692726119752942"><ele>528.0</ele><time>2026-04-18T10:31:19Z</time></trkpt><trkpt lat="47.29723680059402" lon="8.692651608991984"><ele>528.0</ele><time>2026-04-18T10:31:20Z</time></trkpt><trkpt lat="47.2972900612765" lon="8.692570571310656"><ele>528.0</ele><time>2026-04-18T10:31:21Z</time></trkpt><trkpt lat="47.29734604271922" lon="8.69249274466487"><ele>528.0</ele><time>2026-04-18T10:31:22Z</time></trkpt><trkpt lat="47.297402405672514" lon="8.692412392032105"><ele>528.5</ele><time>2026-04-18T10:31:23Z</time></trkpt><trkpt lat="47.29746222256134" lon="8.692335112226756"><ele>529.0</ele><time>2026-04-18T10:31:24Z</time></trkpt><trkpt lat="47.29752129675616" lon="8.692259802836022"><ele>529.5</ele><time>2026-04-18T10:31:25Z</time></trkpt><trkpt lat="47.297577227663304" lon="8.692179560981375"><ele>530.0</ele><time>2026-04-18T10:31:26Z</time></trkpt><trkpt lat="47.297630290419804" lon="8.692097039057266"><ele>530.5</ele><time>2026-04-18T10:31:27Z</time></trkpt><trkpt lat="47.2976816389919" lon="8.692014098816395"><ele>531.0</ele><time>2026-04-18T10:31:28Z</time></trkpt><trkpt lat="47.29773192878645" lon="8.69193057902844"><ele>531.6666666666666</ele><time>2026-04-18T10:31:29Z</time></trkpt><trkpt lat="47.297781186993085" lon="8.691845757170729"><ele>532.3333333333334</ele><time>2026-04-18T10:31:30Z</time></trkpt><trkpt lat="47.2978357491594" lon="8.691771869022663"><ele>533.0</ele><time>2026-04-18T10:31:31Z</time></trkpt><trkpt lat="47.297893853513386" lon="8.691695888095996"><ele>533.6666666666667</ele><time>2026-04-18T10:31:32Z</time></trkpt><trkpt lat="47.29795299120943" lon="8.691621724909622"><ele>534.3333333333334</ele><time>2026-04-18T10:31:33Z</time></trkpt><trkpt lat="47.29801367220476" lon="8.69155061715805"><ele>535.0</ele><time>2026-04-18T10:31:34Z</time></trkpt><trkpt lat="47.29807894327015" lon="8.69148970337172"><ele>535.0</ele><time>2026-04-18T10:31:35Z</time></trkpt><trkpt lat="47.29814929890596" lon="8.691435889720214"><ele>535.0</ele><time>2026-04-18T10:31:36Z</time></trkpt><trkpt lat="47.298216107786395" lon="8.691375892027843"><ele>535.0</ele><time>2026-04-18T10:31:37Z</time></trkpt><trkpt lat="47.29828018324957" lon="8.69131672658247"><ele>535.0</ele><time>2026-04-18T10:31:38Z</time></trkpt><trkpt lat="47.29834718000438" lon="8.691254690069739"><ele>535.0</ele><time>2026-04-18T10:31:39Z</time></trkpt><trkpt lat="47.29841471556757" lon="8.691197287547297"><ele>535.0</ele><time>2026-04-18T10:31:40Z</time></trkpt><trkpt lat="47.29848079132391" lon="8.691138365700434"><ele>535.0</ele><time>2026-04-18T10:31:41Z</time></trkpt><trkpt lat="47.2985536520523" lon="8.6910921591933"><ele>535.0</ele><time>2026-04-18T10:31:42Z</time></trkpt><trkpt lat="47.29862260252525" lon="8.691048938577856"><ele>535.0</ele><time>2026-04-18T10:31:43Z</time></trkpt><trkpt lat="47.29869492752983" lon="8.69101159166451"><ele>535.0</ele><time>2026-04-18T10:31:44Z</time></trkpt><trkpt lat="47.29876474959552" lon="8.690970212794005"><ele>535.0</ele><time>2026-04-18T10:31:45Z</time></trkpt><trkpt lat="47.29883639096397" lon="8.690932751303663"><ele>535.0</ele><time>2026-04-18T10:31:46Z</time></trkpt><trkpt lat="47.29890694309221" lon="8.690896703395248"><ele>536.0</ele><time>2026-04-18T10:31:47Z</time></trkpt><trkpt lat="47.29898030851554" lon="8.690860296236076"><ele>537.0</ele><time>2026-04-18T10:31:48Z</time></trkpt><trkpt lat="47.29905109768381" lon="8.690823293451004"><ele>538.0</ele><time>2026-04-18T10:31:49Z</time></trkpt><trkpt lat="47.29912163732362" lon="8.69078884517516"><ele>539.0</ele><time>2026-04-18T10:31:50Z</time></trkpt><trkpt lat="47.29919508350762" lon="8.69075071446189"><ele>540.0</ele><time>2026-04-18T10:31:51Z</time></trkpt><trkpt lat="47.29926683678133" lon="8.69071433145131"><ele>541.0</ele><time>2026-04-18T10:31:52Z</time></trkpt><trkpt lat="47.299337920797605" lon="8.69067705828288"><ele>541.0</ele><time>2026-04-18T10:31:53Z</time></trkpt><trkpt lat="47.29940815116304" lon="8.690641620510391"><ele>541.0</ele><time>2026-04-18T10:31:54Z</time></trkpt><trkpt lat="47.29947179460615" lon="8.690584880640927"><ele>541.0</ele><time>2026-04-18T10:31:55Z</time></trkpt><trkpt lat="47.299529948481464" lon="8.690512598262035"><ele>541.0</ele><time>2026-04-18T10:31:56.001Z</time></trkpt><trkpt lat="47.29957328697998" lon="8.69042249671982"><ele>541.0</ele><time>2026-04-18T10:31:57.001Z</time></trkpt><trkpt lat="47.299667802144896" lon="8.69047287298078"><ele>541.0</ele><time>2026-04-18T10:31:58.001Z</time></trkpt><trkpt lat="47.299796662128955" lon="8.690452990193661"><ele>541.5</ele><time>2026-04-18T10:32:00.001Z</time></trkpt><trkpt lat="47.299868572917596" lon="8.690424821888767"><ele>542.0</ele><time>2026-04-18T10:32:01.001Z</time></trkpt><trkpt lat="47.29993809593845" lon="8.690386547725382"><ele>542.5</ele><time>2026-04-18T10:32:02.001Z</time></trkpt><trkpt lat="47.30001046471525" lon="8.690351183921234"><ele>543.0</ele><time>2026-04-18T10:32:03.001Z</time></trkpt><trkpt lat="47.30008405902997" lon="8.690320530243094"><ele>543.5</ele><time>2026-04-18T10:32:04.001Z</time></trkpt><trkpt lat="47.300158079964326" lon="8.690293407688975"><ele>544.0</ele><time>2026-04-18T10:32:05.001Z</time></trkpt><trkpt lat="47.30023419446659" lon="8.690260000657203"><ele>544.1666666666667</ele><time>2026-04-18T10:32:06.001Z</time></trkpt><trkpt lat="47.30030765206409" lon="8.690223380545152"><ele>544.3333333333334</ele><time>2026-04-18T10:32:07.001Z</time></trkpt><trkpt lat="47.30038253109001" lon="8.690193300332156"><ele>544.5</ele><time>2026-04-18T10:32:08.001Z</time></trkpt><trkpt lat="47.300457642479586" lon="8.690159488808995"><ele>544.6666666666666</ele><time>2026-04-18T10:32:09.001Z</time></trkpt><trkpt lat="47.30053278302307" lon="8.69012813968284"><ele>544.8333333333333</ele><time>2026-04-18T10:32:10.001Z</time></trkpt><trkpt lat="47.30060708610646" lon="8.690095452817692"><ele>545.0</ele><time>2026-04-18T10:32:11.001Z</time></trkpt><trkpt lat="47.30068422115326" lon="8.690066026025308"><ele>545.0</ele><time>2026-04-18T10:32:12.001Z</time></trkpt><trkpt lat="47.30076023921439" lon="8.690035382538454"><ele>545.0</ele><time>2026-04-18T10:32:13.001Z</time></trkpt><trkpt lat="47.30083574239173" lon="8.690000175970557"><ele>545.0</ele><time>2026-04-18T10:32:14.001Z</time></trkpt><trkpt lat="47.30091038948364" lon="8.689959583162288"><ele>545.0</ele><time>2026-04-18T10:32:15.001Z</time></trkpt><trkpt lat="47.30098510375907" lon="8.689908158250883"><ele>545.0</ele><time>2026-04-18T10:32:16.001Z</time></trkpt><trkpt lat="47.301059566212956" lon="8.689860775875136"><ele>545.0</ele><time>2026-04-18T10:32:17.001Z</time></trkpt><trkpt lat="47.301133732898506" lon="8.689806444595481"><ele>545.0</ele><time>2026-04-18T10:32:18.001Z</time></trkpt><trkpt lat="47.30120733748011" lon="8.68975168852132"><ele>545.0</ele><time>2026-04-18T10:32:19.001Z</time></trkpt><trkpt lat="47.30128120623498" lon="8.689697926908305"><ele>545.0</ele><time>2026-04-18T10:32:20.001Z</time></trkpt><trkpt lat="47.30135314817146" lon="8.689644361173745"><ele>545.0</ele><time>2026-04-18T10:32:21.001Z</time></trkpt><trkpt lat="47.30142030701236" lon="8.689599789309213"><ele>545.0</ele><time>2026-04-18T10:32:22.001Z</time></trkpt><trkpt lat="47.301489406997426" lon="8.68955204220332"><ele>545.0</ele><time>2026-04-18T10:32:23.001Z</time></trkpt><trkpt lat="47.30155834229192" lon="8.689500631454136"><ele>545.1666666666666</ele><time>2026-04-18T10:32:24.001Z</time></trkpt><trkpt lat="47.301633250334405" lon="8.689444337220255"><ele>545.3333333333333</ele><time>2026-04-18T10:32:25.001Z</time></trkpt><trkpt lat="47.301706593329115" lon="8.689392468318497"><ele>545.5</ele><time>2026-04-18T10:32:26.001Z</time></trkpt><trkpt lat="47.30178096959898" lon="8.689339420649203"><ele>545.6666666666666</ele><time>2026-04-18T10:32:27.001Z</time></trkpt><trkpt lat="47.301854466971555" lon="8.689286301261463"><ele>545.8333333333334</ele><time>2026-04-18T10:32:28.001Z</time></trkpt><trkpt lat="47.301930382316925" lon="8.689235275464473"><ele>546.0</ele><time>2026-04-18T10:32:29.001Z</time></trkpt><trkpt lat="47.30200269051393" lon="8.689182291092783"><ele>546.0</ele><time>2026-04-18T10:32:30.001Z</time></trkpt><trkpt lat="47.30207619704189" lon="8.689130377806423"><ele>546.0</ele><time>2026-04-18T10:32:31.001Z</time></trkpt><trkpt lat="47.30214945034417" lon="8.689078249464233"><ele>546.0</ele><time>2026-04-18T10:32:32.001Z</time></trkpt><trkpt lat="47.30222163483206" lon="8.689024025530681"><ele>546.0</ele><time>2026-04-18T10:32:33.001Z</time></trkpt><trkpt lat="47.30229480769102" lon="8.68897401242583"><ele>546.0</ele><time>2026-04-18T10:32:34.001Z</time></trkpt><trkpt lat="47.30236835370831" lon="8.688921714536635"><ele>546.0</ele><time>2026-04-18T10:32:35.001Z</time></trkpt><trkpt lat="47.30244186318314" lon="8.688870320416013"><ele>546.1666666666666</ele><time>2026-04-18T10:32:36.001Z</time></trkpt><trkpt lat="47.30251436265224" lon="8.688816150653125"><ele>546.3333333333334</ele><time>2026-04-18T10:32:37Z</time></trkpt><trkpt lat="47.302585162191825" lon="8.68876358572652"><ele>546.5</ele><time>2026-04-18T10:32:38Z</time></trkpt><trkpt lat="47.302646792607646" lon="8.688705293997623"><ele>546.6666666666667</ele><time>2026-04-18T10:32:39Z</time></trkpt><trkpt lat="47.30270258078446" lon="8.688660699503224"><ele>546.8333333333334</ele><time>2026-04-18T10:32:40Z</time></trkpt><trkpt lat="47.302757057956725" lon="8.688603249617165"><ele>547.0</ele><time>2026-04-18T10:32:45Z</time></trkpt><trkpt lat="47.30286436664581" lon="8.688533560437065"><ele>546.8333333333334</ele><time>2026-04-18T10:32:48Z</time></trkpt><trkpt lat="47.302953824773375" lon="8.688628176838451"><ele>546.6666666666667</ele><time>2026-04-18T10:32:50Z</time></trkpt><trkpt lat="47.30299589107799" lon="8.688698494830183"><ele>546.5</ele><time>2026-04-18T10:32:51Z</time></trkpt><trkpt lat="47.30303674842656" lon="8.688788835596792"><ele>546.3333333333334</ele><time>2026-04-18T10:32:52Z</time></trkpt><trkpt lat="47.303077819176885" lon="8.688884295417177"><ele>546.1666666666666</ele><time>2026-04-18T10:32:53Z</time></trkpt><trkpt lat="47.3031217514229" lon="8.688984414819505"><ele>546.0</ele><time>2026-04-18T10:32:54Z</time></trkpt><trkpt lat="47.30316980067803" lon="8.689084412379287"><ele>546.0</ele><time>2026-04-18T10:32:55Z</time></trkpt><trkpt lat="47.30321834430217" lon="8.68918326789584"><ele>546.0</ele><time>2026-04-18T10:32:56Z</time></trkpt><trkpt lat="47.30326450670033" lon="8.689284690338251"><ele>546.0</ele><time>2026-04-18T10:32:57Z</time></trkpt><trkpt lat="47.303312989947734" lon="8.689384098634005"><ele>546.0</ele><time>2026-04-18T10:32:58Z</time></trkpt><trkpt lat="47.30336234249544" lon="8.689483011482569"><ele>546.0</ele><time>2026-04-18T10:32:59Z</time></trkpt><trkpt lat="47.303411415821245" lon="8.689582343926224"><ele>546.0</ele><time>2026-04-18T10:33:00Z</time></trkpt><trkpt lat="47.303459034042376" lon="8.689685575155597"><ele>545.8333333333334</ele><time>2026-04-18T10:33:01Z</time></trkpt><trkpt lat="47.30350695501803" lon="8.689787458746517"><ele>545.6666666666666</ele><time>2026-04-18T10:33:02Z</time></trkpt><trkpt lat="47.30355552604519" lon="8.689888432113557"><ele>545.5</ele><time>2026-04-18T10:33:03Z</time></trkpt><trkpt lat="47.30360622950914" lon="8.689987913036042"><ele>545.3333333333333</ele><time>2026-04-18T10:33:04Z</time></trkpt><trkpt lat="47.30365478330231" lon="8.690089788640893"><ele>545.1666666666666</ele><time>2026-04-18T10:33:05Z</time></trkpt><trkpt lat="47.303702750739866" lon="8.690193403315929"><ele>545.0</ele><time>2026-04-18T10:33:06Z</time></trkpt><trkpt lat="47.30375348275663" lon="8.690293948629003"><ele>544.6666666666666</ele><time>2026-04-18T10:33:07Z</time></trkpt><trkpt lat="47.30381293891714" lon="8.690387962390488"><ele>544.3333333333333</ele><time>2026-04-18T10:33:08Z</time></trkpt><trkpt lat="47.30387186901954" lon="8.690477509610973"><ele>544.0</ele><time>2026-04-18T10:33:09Z</time></trkpt><trkpt lat="47.30391225145252" lon="8.690586674737403"><ele>543.6666666666666</ele><time>2026-04-18T10:33:10Z</time></trkpt><trkpt lat="47.30395557782666" lon="8.690693678441786"><ele>543.3333333333334</ele><time>2026-04-18T10:33:11Z</time></trkpt><trkpt lat="47.304014784359026" lon="8.69078556411485"><ele>543.0</ele><time>2026-04-18T10:33:12Z</time></trkpt><trkpt lat="47.30406474637994" lon="8.690885139411042"><ele>542.6666666666666</ele><time>2026-04-18T10:33:13Z</time></trkpt><trkpt lat="47.304115666748615" lon="8.690986402215245"><ele>542.3333333333334</ele><time>2026-04-18T10:33:14Z</time></trkpt><trkpt lat="47.30416375726755" lon="8.691090399228203"><ele>542.0</ele><time>2026-04-18T10:33:15Z</time></trkpt><trkpt lat="47.30421358484438" lon="8.691194036738057"><ele>541.6666666666667</ele><time>2026-04-18T10:33:16Z</time></trkpt><trkpt lat="47.30426244329814" lon="8.691299107836537"><ele>541.3333333333334</ele><time>2026-04-18T10:33:17Z</time></trkpt><trkpt lat="47.30431577451997" lon="8.69139925491223"><ele>541.0</ele><time>2026-04-18T10:33:18Z</time></trkpt><trkpt lat="47.30436774473531" lon="8.691501609203687"><ele>541.0</ele><time>2026-04-18T10:33:19Z</time></trkpt><trkpt lat="47.30442178380768" lon="8.691601781559335"><ele>541.0</ele><time>2026-04-18T10:33:20Z</time></trkpt><trkpt lat="47.30447181716586" lon="8.691706442227797"><ele>541.0</ele><time>2026-04-18T10:33:21Z</time></trkpt><trkpt lat="47.30452597639428" lon="8.691809233856683"><ele>541.0</ele><time>2026-04-18T10:33:22Z</time></trkpt><trkpt lat="47.304579323919775" lon="8.691911368683096"><ele>541.0</ele><time>2026-04-18T10:33:23Z</time></trkpt><trkpt lat="47.30463498742073" lon="8.692011839907732"><ele>541.0</ele><time>2026-04-18T10:33:24Z</time></trkpt><trkpt lat="47.30468999861327" lon="8.692114359049159"><ele>540.5</ele><time>2026-04-18T10:33:25Z</time></trkpt><trkpt lat="47.304746966942915" lon="8.692216485056862"><ele>540.0</ele><time>2026-04-18T10:33:26Z</time></trkpt><trkpt lat="47.30480652929465" lon="8.69231619890054"><ele>539.5</ele><time>2026-04-18T10:33:27Z</time></trkpt><trkpt lat="47.30485987994576" lon="8.692420131469687"><ele>539.0</ele><time>2026-04-18T10:33:28Z</time></trkpt><trkpt lat="47.30488819776145" lon="8.69253276432486"><ele>538.5</ele><time>2026-04-18T10:33:29Z</time></trkpt><trkpt lat="47.30490497372657" lon="8.692642357544788"><ele>538.0</ele><time>2026-04-18T10:33:30Z</time></trkpt><trkpt lat="47.30495848502224" lon="8.692709476296676"><ele>538.0</ele><time>2026-04-18T10:33:31Z</time></trkpt><trkpt lat="47.3050363451867" lon="8.692750027028161"><ele>538.0</ele><time>2026-04-18T10:33:32Z</time></trkpt><trkpt lat="47.30511256496764" lon="8.692799514997043"><ele>538.0</ele><time>2026-04-18T10:33:33Z</time></trkpt><trkpt lat="47.305167318502356" lon="8.692897290509658"><ele>538.0</ele><time>2026-04-18T10:33:34Z</time></trkpt><trkpt lat="47.305206765561806" lon="8.693001767663713"><ele>538.0</ele><time>2026-04-18T10:33:35Z</time></trkpt><trkpt lat="47.30526054147753" lon="8.693102642181959"><ele>538.0</ele><time>2026-04-18T10:33:36Z</time></trkpt><trkpt lat="47.30531490566279" lon="8.6932002797981"><ele>538.0</ele><time>2026-04-18T10:33:37Z</time></trkpt><trkpt lat="47.305369246347965" lon="8.693299555349505"><ele>538.0</ele><time>2026-04-18T10:33:38Z</time></trkpt><trkpt lat="47.305428786567376" lon="8.693396611626962"><ele>538.0</ele><time>2026-04-18T10:33:39Z</time></trkpt><trkpt lat="47.30549879546637" lon="8.693478040597592"><ele>538.0</ele><time>2026-04-18T10:33:40Z</time></trkpt><trkpt lat="47.30557369552238" lon="8.693549009377188"><ele>538.0</ele><time>2026-04-18T10:33:41Z</time></trkpt><trkpt lat="47.30566451727125" lon="8.693573448808507"><ele>538.0</ele><time>2026-04-18T10:33:42Z</time></trkpt><trkpt lat="47.30575959710649" lon="8.693556972265963"><ele>539.0</ele><time>2026-04-18T10:33:43Z</time></trkpt><trkpt lat="47.30585261503198" lon="8.69350380908873"><ele>540.0</ele><time>2026-04-18T10:33:44Z</time></trkpt><trkpt lat="47.305935923856616" lon="8.693426402370378"><ele>541.0</ele><time>2026-04-18T10:33:45Z</time></trkpt><trkpt lat="47.30600705597588" lon="8.693326957484947"><ele>542.0</ele><time>2026-04-18T10:33:46Z</time></trkpt><trkpt lat="47.30605618498102" lon="8.693194628970579"><ele>543.0</ele><time>2026-04-18T10:33:47Z</time></trkpt><trkpt lat="47.30609216201939" lon="8.693054622514625"><ele>543.0</ele><time>2026-04-18T10:33:48Z</time></trkpt><trkpt lat="47.306127688187345" lon="8.692918901336752"><ele>543.0</ele><time>2026-04-18T10:33:49Z</time></trkpt><trkpt lat="47.30616899601503" lon="8.69279118271672"><ele>543.0</ele><time>2026-04-18T10:33:50Z</time></trkpt><trkpt lat="47.306210248040465" lon="8.692654328112837"><ele>543.0</ele><time>2026-04-18T10:33:51Z</time></trkpt><trkpt lat="47.30625469652395" lon="8.692516233221493"><ele>543.0</ele><time>2026-04-18T10:33:52Z</time></trkpt><trkpt lat="47.306299109970396" lon="8.692376073488276"><ele>541.4</ele><time>2026-04-18T10:33:53Z</time></trkpt><trkpt lat="47.3063408292637" lon="8.69223127768"><ele>539.8</ele><time>2026-04-18T10:33:54Z</time></trkpt><trkpt lat="47.30638116422153" lon="8.692081225744"><ele>538.2</ele><time>2026-04-18T10:33:55Z</time></trkpt><trkpt lat="47.30642707812726" lon="8.69193246377585"><ele>536.6</ele><time>2026-04-18T10:33:56Z</time></trkpt><trkpt lat="47.30648680345908" lon="8.691790038136334"><ele>535.0</ele><time>2026-04-18T10:33:57Z</time></trkpt><trkpt lat="47.306558803022504" lon="8.691660185419464"><ele>533.0</ele><time>2026-04-18T10:33:58Z</time></trkpt><trkpt lat="47.306640741557814" lon="8.691539778670611"><ele>531.0</ele><time>2026-04-18T10:33:59Z</time></trkpt><trkpt lat="47.306723507842136" lon="8.691423639748228"><ele>529.0</ele><time>2026-04-18T10:34:00Z</time></trkpt><trkpt lat="47.3068050484435" lon="8.691306283042957"><ele>527.0</ele><time>2026-04-18T10:34:01Z</time></trkpt><trkpt lat="47.30688234216267" lon="8.691188653075926"><ele>528.4</ele><time>2026-04-18T10:34:02Z</time></trkpt><trkpt lat="47.3069588460199" lon="8.691074723248237"><ele>529.8000000000001</ele><time>2026-04-18T10:34:03Z</time></trkpt><trkpt lat="47.307034708296996" lon="8.690962810787799"><ele>531.2</ele><time>2026-04-18T10:34:04Z</time></trkpt><trkpt lat="47.30710585669282" lon="8.69084884399042"><ele>532.6</ele><time>2026-04-18T10:34:05Z</time></trkpt><trkpt lat="47.307173835718615" lon="8.690737430642512"><ele>534.0</ele><time>2026-04-18T10:34:06Z</time></trkpt><trkpt lat="47.30723971310608" lon="8.690627398459235"><ele>533.4</ele><time>2026-04-18T10:34:07Z</time></trkpt><trkpt lat="47.307302208843176" lon="8.690516401957293"><ele>532.8</ele><time>2026-04-18T10:34:08Z</time></trkpt><trkpt lat="47.30736273559826" lon="8.69040619991035"><ele>532.2</ele><time>2026-04-18T10:34:09Z</time></trkpt><trkpt lat="47.30742024262295" lon="8.690295105175384"><ele>531.6</ele><time>2026-04-18T10:34:10Z</time></trkpt><trkpt lat="47.3074788860337" lon="8.690188038133668"><ele>531.0</ele><time>2026-04-18T10:34:11Z</time></trkpt><trkpt lat="47.30753870456788" lon="8.690084590466942"><ele>531.0</ele><time>2026-04-18T10:34:12Z</time></trkpt><trkpt lat="47.30759571928874" lon="8.6899783872952"><ele>531.0</ele><time>2026-04-18T10:34:13Z</time></trkpt><trkpt lat="47.30765149842837" lon="8.689874946737907"><ele>531.0</ele><time>2026-04-18T10:34:14Z</time></trkpt><trkpt lat="47.307707961156" lon="8.689775644132721"><ele>531.0</ele><time>2026-04-18T10:34:15Z</time></trkpt><trkpt lat="47.307762472119705" lon="8.689676571735307"><ele>531.0</ele><time>2026-04-18T10:34:16Z</time></trkpt><trkpt lat="47.30781587722187" lon="8.68957924071926"><ele>531.0</ele><time>2026-04-18T10:34:17Z</time></trkpt><trkpt lat="47.307869986540595" lon="8.689486916805313"><ele>531.0</ele><time>2026-04-18T10:34:18Z</time></trkpt><trkpt lat="47.307921671487186" lon="8.689396320438174"><ele>531.0</ele><time>2026-04-18T10:34:19Z</time></trkpt><trkpt lat="47.30797620170077" lon="8.689311942730782"><ele>531.0</ele><time>2026-04-18T10:34:20Z</time></trkpt><trkpt lat="47.30803478856557" lon="8.68923320078119"><ele>531.0</ele><time>2026-04-18T10:34:21Z</time></trkpt><trkpt lat="47.30809487262636" lon="8.689159469054157"><ele>531.0</ele><time>2026-04-18T10:34:22Z</time></trkpt><trkpt lat="47.30815923126749" lon="8.689091858935386"><ele>531.0</ele><time>2026-04-18T10:34:23Z</time></trkpt><trkpt lat="47.30822533576829" lon="8.689028305669302"><ele>531.0</ele><time>2026-04-18T10:34:24Z</time></trkpt><trkpt lat="47.30829186025516" lon="8.688965552400372"><ele>531.0</ele><time>2026-04-18T10:34:25Z</time></trkpt><trkpt lat="47.308360973351085" lon="8.688911041050646"><ele>531.0</ele><time>2026-04-18T10:34:26Z</time></trkpt><trkpt lat="47.308433194082006" lon="8.688858628793401"><ele>531.0</ele><time>2026-04-18T10:34:27Z</time></trkpt><trkpt lat="47.308506033619516" lon="8.68881143964324"><ele>531.0</ele><time>2026-04-18T10:34:28Z</time></trkpt><trkpt lat="47.30858234184164" lon="8.688771415819005"><ele>531.0</ele><time>2026-04-18T10:34:29Z</time></trkpt><trkpt lat="47.308659892502256" lon="8.688734119288062"><ele>531.0</ele><time>2026-04-18T10:34:30Z</time></trkpt><trkpt lat="47.30873881154524" lon="8.688703075146229"><ele>531.0</ele><time>2026-04-18T10:34:31Z</time></trkpt><trkpt lat="47.308818838529994" lon="8.688676920244154"><ele>531.0</ele><time>2026-04-18T10:34:32Z</time></trkpt><trkpt lat="47.30890081165054" lon="8.688657390674411"><ele>531.0</ele><time>2026-04-18T10:34:33Z</time></trkpt><trkpt lat="47.30898338211518" lon="8.68863875844539"><ele>531.0</ele><time>2026-04-18T10:34:34Z</time></trkpt><trkpt lat="47.30906559993236" lon="8.688623194223423"><ele>531.0</ele><time>2026-04-18T10:34:35Z</time></trkpt><trkpt lat="47.30914920587183" lon="8.688620606468827"><ele>530.8333333333334</ele><time>2026-04-18T10:34:36Z</time></trkpt><trkpt lat="47.30923352185017" lon="8.688627408747577"><ele>530.6666666666666</ele><time>2026-04-18T10:34:37Z</time></trkpt><trkpt lat="47.30931698902099" lon="8.688642281697888"><ele>530.5</ele><time>2026-04-18T10:34:38Z</time></trkpt><trkpt lat="47.30940123887347" lon="8.688657132520964"><ele>530.3333333333333</ele><time>2026-04-18T10:34:39Z</time></trkpt><trkpt lat="47.309484339911236" lon="8.688679479901035"><ele>530.1666666666666</ele><time>2026-04-18T10:34:40Z</time></trkpt><trkpt lat="47.30956652993693" lon="8.688705474009701"><ele>530.0</ele><time>2026-04-18T10:34:41Z</time></trkpt><trkpt lat="47.309648519170516" lon="8.688736202974253"><ele>530.0</ele><time>2026-04-18T10:34:42Z</time></trkpt><trkpt lat="47.30973044422392" lon="8.688770273618251"><ele>530.0</ele><time>2026-04-18T10:34:43Z</time></trkpt><trkpt lat="47.30981585531355" lon="8.688789842297087"><ele>530.0</ele><time>2026-04-18T10:34:44Z</time></trkpt><trkpt lat="47.30989861286404" lon="8.688818247525871"><ele>530.0</ele><time>2026-04-18T10:34:45Z</time></trkpt><trkpt lat="47.309981073623156" lon="8.68885259809933"><ele>530.0</ele><time>2026-04-18T10:34:46Z</time></trkpt><trkpt lat="47.310066546129015" lon="8.688892863965352"><ele>530.0</ele><time>2026-04-18T10:34:47Z</time></trkpt><trkpt lat="47.310155529133645" lon="8.688921283305723"><ele>530.0</ele><time>2026-04-18T10:34:48Z</time></trkpt><trkpt lat="47.31024574203418" lon="8.688952284845998"><ele>530.0</ele><time>2026-04-18T10:34:49Z</time></trkpt><trkpt lat="47.310339683786616" lon="8.688974517891767"><ele>530.0</ele><time>2026-04-18T10:34:50Z</time></trkpt><trkpt lat="47.31043260607487" lon="8.689012886183995"><ele>530.0</ele><time>2026-04-18T10:34:51Z</time></trkpt><trkpt lat="47.310526270020446" lon="8.689053633842038"><ele>530.0</ele><time>2026-04-18T10:34:52Z</time></trkpt><trkpt lat="47.31062414369591" lon="8.68908362753267"><ele>528.6</ele><time>2026-04-18T10:34:53Z</time></trkpt><trkpt lat="47.310720256205684" lon="8.689120053646555"><ele>527.2</ele><time>2026-04-18T10:34:54Z</time></trkpt><trkpt lat="47.31081828214838" lon="8.689156516161207"><ele>525.8</ele><time>2026-04-18T10:34:55Z</time></trkpt><trkpt lat="47.3109183661656" lon="8.689191571233092"><ele>524.4</ele><time>2026-04-18T10:34:56Z</time></trkpt><trkpt lat="47.31102072796579" lon="8.689227228442842"><ele>523.0</ele><time>2026-04-18T10:34:57Z</time></trkpt><trkpt lat="47.31112592175252" lon="8.689265795091941"><ele>523.0</ele><time>2026-04-18T10:34:58Z</time></trkpt><trkpt lat="47.31123094991255" lon="8.689311415965442"><ele>523.0</ele><time>2026-04-18T10:34:59Z</time></trkpt><trkpt lat="47.31133573399111" lon="8.689364136782862"><ele>523.0</ele><time>2026-04-18T10:35:00Z</time></trkpt><trkpt lat="47.311441181866606" lon="8.689413265661035"><ele>523.0</ele><time>2026-04-18T10:35:01Z</time></trkpt><trkpt lat="47.311544172959415" lon="8.68946870698333"><ele>523.0</ele><time>2026-04-18T10:35:02Z</time></trkpt><trkpt lat="47.31164722014922" lon="8.689527109212138"><ele>522.4</ele><time>2026-04-18T10:35:03Z</time></trkpt><trkpt lat="47.31174915745157" lon="8.689587281928237"><ele>521.8</ele><time>2026-04-18T10:35:04Z</time></trkpt><trkpt lat="47.311850466688945" lon="8.689648020223325"><ele>521.2</ele><time>2026-04-18T10:35:05Z</time></trkpt><trkpt lat="47.311952337632746" lon="8.68970473610359"><ele>520.6</ele><time>2026-04-18T10:35:06Z</time></trkpt><trkpt lat="47.31205508133214" lon="8.689758446937356"><ele>520.0</ele><time>2026-04-18T10:35:07Z</time></trkpt><trkpt lat="47.31215678857692" lon="8.689814852303526"><ele>519.6</ele><time>2026-04-18T10:35:08Z</time></trkpt><trkpt lat="47.31225856378297" lon="8.689871294005645"><ele>519.2</ele><time>2026-04-18T10:35:09Z</time></trkpt><trkpt lat="47.31235947957234" lon="8.689932505677831"><ele>518.8</ele><time>2026-04-18T10:35:10Z</time></trkpt><trkpt lat="47.312460911248536" lon="8.689990177996828"><ele>518.4</ele><time>2026-04-18T10:35:11Z</time></trkpt><trkpt lat="47.312563238278855" lon="8.69004481918902"><ele>518.0</ele><time>2026-04-18T10:35:12Z</time></trkpt><trkpt lat="47.31266658554452" lon="8.690099200709565"><ele>518.0</ele><time>2026-04-18T10:35:13Z</time></trkpt><trkpt lat="47.31277053323251" lon="8.69015370001573"><ele>518.0</ele><time>2026-04-18T10:35:14Z</time></trkpt><trkpt lat="47.312875635127625" lon="8.690209020475471"><ele>518.0</ele><time>2026-04-18T10:35:15Z</time></trkpt><trkpt lat="47.31298149846633" lon="8.690265187379744"><ele>518.0</ele><time>2026-04-18T10:35:16Z</time></trkpt><trkpt lat="47.31308984915023" lon="8.690315678583314"><ele>518.0</ele><time>2026-04-18T10:35:17Z</time></trkpt><trkpt lat="47.313199492103195" lon="8.690366427100432"><ele>518.0</ele><time>2026-04-18T10:35:18Z</time></trkpt><trkpt lat="47.313310816359056" lon="8.69041826171914"><ele>518.0</ele><time>2026-04-18T10:35:19Z</time></trkpt><trkpt lat="47.313423036859916" lon="8.690468978330367"><ele>518.0</ele><time>2026-04-18T10:35:20Z</time></trkpt><trkpt lat="47.31353644806974" lon="8.690520377405539"><ele>518.0</ele><time>2026-04-18T10:35:21Z</time></trkpt><trkpt lat="47.31365174212663" lon="8.690567727254138"><ele>518.0</ele><time>2026-04-18T10:35:22Z</time></trkpt><trkpt lat="47.31376605788932" lon="8.690617182981876"><ele>518.0</ele><time>2026-04-18T10:35:23Z</time></trkpt><trkpt lat="47.31388221636221" lon="8.690668773447362"><ele>518.0</ele><time>2026-04-18T10:35:24Z</time></trkpt><trkpt lat="47.31399736273601" lon="8.690725520452458"><ele>518.0</ele><time>2026-04-18T10:35:25Z</time></trkpt><trkpt lat="47.31411314330275" lon="8.69077738787578"><ele>518.5</ele><time>2026-04-18T10:35:26Z</time></trkpt><trkpt lat="47.31422777910014" lon="8.690839343224864"><ele>519.0</ele><time>2026-04-18T10:35:27Z</time></trkpt><trkpt lat="47.31433783307537" lon="8.690910832433602"><ele>519.5</ele><time>2026-04-18T10:35:28Z</time></trkpt><trkpt lat="47.314436699357586" lon="8.690995779224675"><ele>520.0</ele><time>2026-04-18T10:35:29Z</time></trkpt><trkpt lat="47.314513198277766" lon="8.691097453447487"><ele>517.4</ele><time>2026-04-18T10:35:30Z</time></trkpt><trkpt lat="47.31457015886767" lon="8.69121771317441"><ele>514.8</ele><time>2026-04-18T10:35:31Z</time></trkpt><trkpt lat="47.31459024002073" lon="8.691360400229874"><ele>512.2</ele><time>2026-04-18T10:35:32Z</time></trkpt><trkpt lat="47.31456437730258" lon="8.691500112029376"><ele>509.6</ele><time>2026-04-18T10:35:33Z</time></trkpt><trkpt lat="47.31450449214235" lon="8.691629313429086"><ele>507.0</ele><time>2026-04-18T10:35:34Z</time></trkpt><trkpt lat="47.314432692245646" lon="8.691743882858114"><ele>507.0</ele><time>2026-04-18T10:35:35Z</time></trkpt><trkpt lat="47.31436024300512" lon="8.691848834358794"><ele>507.00000000000006</ele><time>2026-04-18T10:35:36Z</time></trkpt><trkpt lat="47.31428868968083" lon="8.691962981666439"><ele>507.00000000000006</ele><time>2026-04-18T10:35:37Z</time></trkpt><trkpt lat="47.314218643885944" lon="8.692082366899616"><ele>507.0</ele><time>2026-04-18T10:35:38Z</time></trkpt><trkpt lat="47.31414622073039" lon="8.692201339902743"><ele>507.0</ele><time>2026-04-18T10:35:39Z</time></trkpt><trkpt lat="47.31407342474953" lon="8.692321553510238"><ele>507.40000000000003</ele><time>2026-04-18T10:35:40Z</time></trkpt><trkpt lat="47.31400080438898" lon="8.692444212705455"><ele>507.80000000000007</ele><time>2026-04-18T10:35:41Z</time></trkpt><trkpt lat="47.31392728367608" lon="8.69256792654893"><ele>508.2</ele><time>2026-04-18T10:35:42Z</time></trkpt><trkpt lat="47.313854788522505" lon="8.692693977975578"><ele>508.6</ele><time>2026-04-18T10:35:43Z</time></trkpt><trkpt lat="47.31378658636146" lon="8.692825035683736"><ele>509.0</ele><time>2026-04-18T10:35:44Z</time></trkpt><trkpt lat="47.313722979155266" lon="8.692962115672058"><ele>506.75</ele><time>2026-04-18T10:35:45Z</time></trkpt><trkpt lat="47.31366273036177" lon="8.693105230895506"><ele>504.5</ele><time>2026-04-18T10:35:46Z</time></trkpt><trkpt lat="47.313604974481606" lon="8.693249755390227"><ele>502.25</ele><time>2026-04-18T10:35:47Z</time></trkpt><trkpt lat="47.31355186495351" lon="8.69340015728634"><ele>500.0</ele><time>2026-04-18T10:35:48Z</time></trkpt><trkpt lat="47.31350204289604" lon="8.6935544413128"><ele>498.5</ele><time>2026-04-18T10:35:49Z</time></trkpt><trkpt lat="47.313456573905654" lon="8.693712608838787"><ele>497.0</ele><time>2026-04-18T10:35:50Z</time></trkpt><trkpt lat="47.31341485052296" lon="8.693874679231772"><ele>495.5</ele><time>2026-04-18T10:35:51Z</time></trkpt><trkpt lat="47.31337764639949" lon="8.694039369203907"><ele>494.0</ele><time>2026-04-18T10:35:52Z</time></trkpt><trkpt lat="47.31335190033476" lon="8.69421105616921"><ele>494.0</ele><time>2026-04-18T10:35:53Z</time></trkpt><trkpt lat="47.3133309654831" lon="8.694384109233273"><ele>494.0</ele><time>2026-04-18T10:35:54Z</time></trkpt><trkpt lat="47.3133121149065" lon="8.69455535536315"><ele>494.0</ele><time>2026-04-18T10:35:55Z</time></trkpt><trkpt lat="47.31330203562287" lon="8.694728329388747"><ele>494.0</ele><time>2026-04-18T10:35:56Z</time></trkpt><trkpt lat="47.31329489217521" lon="8.69490054263704"><ele>492.75</ele><time>2026-04-18T10:35:57Z</time></trkpt><trkpt lat="47.313291867233914" lon="8.695072079240568"><ele>491.5</ele><time>2026-04-18T10:35:58Z</time></trkpt><trkpt lat="47.31328893188621" lon="8.695244398854578"><ele>490.25</ele><time>2026-04-18T10:35:59Z</time></trkpt><trkpt lat="47.313282666314876" lon="8.695417481159437"><ele>489.0</ele><time>2026-04-18T10:36:00Z</time></trkpt><trkpt lat="47.31327335317644" lon="8.695590057307157"><ele>488.0</ele><time>2026-04-18T10:36:01Z</time></trkpt><trkpt lat="47.313261114667654" lon="8.695763991580293"><ele>487.0</ele><time>2026-04-18T10:36:02Z</time></trkpt><trkpt lat="47.31324093299853" lon="8.69593673355379"><ele>486.0</ele><time>2026-04-18T10:36:03Z</time></trkpt><trkpt lat="47.313209487541656" lon="8.696108260183099"><ele>485.0</ele><time>2026-04-18T10:36:04Z</time></trkpt><trkpt lat="47.313174890468595" lon="8.69627812839531"><ele>483.5</ele><time>2026-04-18T10:36:05Z</time></trkpt><trkpt lat="47.313142297273686" lon="8.696448738494087"><ele>482.0</ele><time>2026-04-18T10:36:06Z</time></trkpt><trkpt lat="47.3131096195639" lon="8.696619414958775"><ele>480.5</ele><time>2026-04-18T10:36:07Z</time></trkpt><trkpt lat="47.31307950729314" lon="8.696791987497091"><ele>479.0</ele><time>2026-04-18T10:36:08Z</time></trkpt><trkpt lat="47.313044423464284" lon="8.696964610200492"><ele>483.75</ele><time>2026-04-18T10:36:09Z</time></trkpt><trkpt lat="47.313007673223126" lon="8.697137863317232"><ele>488.5</ele><time>2026-04-18T10:36:10Z</time></trkpt><trkpt lat="47.31295858068783" lon="8.697303148490692"><ele>493.25</ele><time>2026-04-18T10:36:11Z</time></trkpt><trkpt lat="47.312895476042" lon="8.697460283241597"><ele>498.0</ele><time>2026-04-18T10:36:12Z</time></trkpt><trkpt lat="47.312820926605674" lon="8.697607686016044"><ele>498.0</ele><time>2026-04-18T10:36:13Z</time></trkpt><trkpt lat="47.31273689949214" lon="8.697743702672954"><ele>498.0</ele><time>2026-04-18T10:36:14Z</time></trkpt><trkpt lat="47.31264786408022" lon="8.697869618542933"><ele>498.0</ele><time>2026-04-18T10:36:15Z</time></trkpt><trkpt lat="47.31255234267493" lon="8.697977250583211"><ele>498.0</ele><time>2026-04-18T10:36:16Z</time></trkpt><trkpt lat="47.31246138573502" lon="8.698065126027608"><ele>496.3333333333333</ele><time>2026-04-18T10:36:17Z</time></trkpt><trkpt lat="47.31238092616063" lon="8.69815907094397"><ele>494.66666666666663</ele><time>2026-04-18T10:36:18Z</time></trkpt><trkpt lat="47.31233060905915" lon="8.698266277221512"><ele>493.0</ele><time>2026-04-18T10:36:19Z</time></trkpt><trkpt lat="47.31232209933454" lon="8.698384785707486"><ele>491.3333333333333</ele><time>2026-04-18T10:36:20Z</time></trkpt><trkpt lat="47.31235147093592" lon="8.698496335404688"><ele>489.66666666666663</ele><time>2026-04-18T10:36:21Z</time></trkpt><trkpt lat="47.31240172761976" lon="8.698583845714086"><ele>488.0</ele><time>2026-04-18T10:36:22Z</time></trkpt><trkpt lat="47.31247282354041" lon="8.698614426211662"><ele>487.99999999999994</ele><time>2026-04-18T10:36:23Z</time></trkpt><trkpt lat="47.31255122451192" lon="8.698615530472564"><ele>488.0</ele><time>2026-04-18T10:36:24Z</time></trkpt><trkpt lat="47.312635256148106" lon="8.698568874557019"><ele>488.0</ele><time>2026-04-18T10:36:25Z</time></trkpt><trkpt lat="47.31270634829783" lon="8.698491699578318"><ele>488.0</ele><time>2026-04-18T10:36:26Z</time></trkpt><trkpt lat="47.31277892021284" lon="8.698399501042472"><ele>487.99999999999994</ele><time>2026-04-18T10:36:27Z</time></trkpt><trkpt lat="47.312837918017536" lon="8.698295738923001"><ele>488.0</ele><time>2026-04-18T10:36:28Z</time></trkpt><trkpt lat="47.31291249581497" lon="8.698202897805642"><ele>488.0</ele><time>2026-04-18T10:36:29Z</time></trkpt><trkpt lat="47.3129934578037" lon="8.698115349302123"><ele>487.99999999999994</ele><time>2026-04-18T10:36:30Z</time></trkpt><trkpt lat="47.31307688558908" lon="8.698043193844237"><ele>487.99999999999994</ele><time>2026-04-18T10:36:31Z</time></trkpt><trkpt lat="47.31317225598897" lon="8.697982446062287"><ele>488.0</ele><time>2026-04-18T10:36:32Z</time></trkpt><trkpt lat="47.31327165101269" lon="8.69791961865803"><ele>488.0</ele><time>2026-04-18T10:36:33Z</time></trkpt><trkpt lat="47.31337497886521" lon="8.697870649780725"><ele>484.79999999999995</ele><time>2026-04-18T10:36:34Z</time></trkpt><trkpt lat="47.313477961887834" lon="8.697810907783303"><ele>481.59999999999997</ele><time>2026-04-18T10:36:35Z</time></trkpt><trkpt lat="47.31358014256893" lon="8.697740911165976"><ele>478.40000000000003</ele><time>2026-04-18T10:36:36Z</time></trkpt><trkpt lat="47.31368158079483" lon="8.697667978564448"><ele>475.20000000000005</ele><time>2026-04-18T10:36:37Z</time></trkpt><trkpt lat="47.313778584655466" lon="8.697581959726607"><ele>472.0</ele><time>2026-04-18T10:36:38Z</time></trkpt><trkpt lat="47.313872808775876" lon="8.69748527303204"><ele>467.75</ele><time>2026-04-18T10:36:39Z</time></trkpt><trkpt lat="47.31396819379287" lon="8.697387658478238"><ele>463.5</ele><time>2026-04-18T10:36:40Z</time></trkpt><trkpt lat="47.31406677698029" lon="8.697296553753961"><ele>459.25</ele><time>2026-04-18T10:36:41Z</time></trkpt><trkpt lat="47.314164415354576" lon="8.697200247172542"><ele>455.0</ele><time>2026-04-18T10:36:42Z</time></trkpt><trkpt lat="47.31426416530946" lon="8.697108066756138"><ele>455.0</ele><time>2026-04-18T10:36:43Z</time></trkpt><trkpt lat="47.314364722801805" lon="8.697013393175384"><ele>455.0</ele><time>2026-04-18T10:36:44Z</time></trkpt><trkpt lat="47.314464002958246" lon="8.696915349406561"><ele>455.0</ele><time>2026-04-18T10:36:45Z</time></trkpt><trkpt lat="47.314566749029616" lon="8.696822710541419"><ele>455.0</ele><time>2026-04-18T10:36:46Z</time></trkpt><trkpt lat="47.314671386782884" lon="8.696730910223815"><ele>454.75</ele><time>2026-04-18T10:36:47Z</time></trkpt><trkpt lat="47.31477634619324" lon="8.696639920117377"><ele>454.5</ele><time>2026-04-18T10:36:48Z</time></trkpt><trkpt lat="47.31488608899976" lon="8.696558413213811"><ele>454.25</ele><time>2026-04-18T10:36:49Z</time></trkpt><trkpt lat="47.31499708847314" lon="8.696487128767219"><ele>454.0</ele><time>2026-04-18T10:36:50Z</time></trkpt><trkpt lat="47.31510626006838" lon="8.69641099606413"><ele>454.0</ele><time>2026-04-18T10:36:51Z</time></trkpt><trkpt lat="47.31521522276046" lon="8.696335877298322"><ele>454.0</ele><time>2026-04-18T10:36:52Z</time></trkpt><trkpt lat="47.315324731961724" lon="8.696262766523144"><ele>454.0</ele><time>2026-04-18T10:36:53Z</time></trkpt><trkpt lat="47.31543338760984" lon="8.696183998266491"><ele>454.0</ele><time>2026-04-18T10:36:54Z</time></trkpt><trkpt lat="47.31554410849576" lon="8.696107844906141"><ele>455.0</ele><time>2026-04-18T10:36:55Z</time></trkpt><trkpt lat="47.31565530119425" lon="8.69603458458643"><ele>456.0</ele><time>2026-04-18T10:36:56Z</time></trkpt><trkpt lat="47.31576728649552" lon="8.695962547801948"><ele>457.0</ele><time>2026-04-18T10:36:57Z</time></trkpt><trkpt lat="47.31588472986716" lon="8.695918086690302"><ele>458.0</ele><time>2026-04-18T10:36:58Z</time></trkpt><trkpt lat="47.31600605604733" lon="8.695914188948231"><ele>458.0</ele><time>2026-04-18T10:36:59Z</time></trkpt><trkpt lat="47.31612591733621" lon="8.695944569544254"><ele>458.0</ele><time>2026-04-18T10:37:00Z</time></trkpt><trkpt lat="47.31624085635147" lon="8.695997626749447"><ele>458.0</ele><time>2026-04-18T10:37:01Z</time></trkpt><trkpt lat="47.31634917700387" lon="8.696083205389693"><ele>458.0</ele><time>2026-04-18T10:37:02Z</time></trkpt><trkpt lat="47.31643898161976" lon="8.696200412123604"><ele>454.5</ele><time>2026-04-18T10:37:03Z</time></trkpt><trkpt lat="47.31651336878551" lon="8.696337757400814"><ele>451.0</ele><time>2026-04-18T10:37:04Z</time></trkpt><trkpt lat="47.31657455976503" lon="8.696488475742372"><ele>447.5</ele><time>2026-04-18T10:37:05Z</time></trkpt><trkpt lat="47.316619956923184" lon="8.69664888364659"><ele>444.0</ele><time>2026-04-18T10:37:06Z</time></trkpt><trkpt lat="47.31667061331101" lon="8.696802321219158"><ele>443.6</ele><time>2026-04-18T10:37:07Z</time></trkpt><trkpt lat="47.31672469993237" lon="8.696950377735645"><ele>443.2</ele><time>2026-04-18T10:37:08Z</time></trkpt><trkpt lat="47.31677557601842" lon="8.69709617942198"><ele>442.80000000000007</ele><time>2026-04-18T10:37:09Z</time></trkpt><trkpt lat="47.31682758451796" lon="8.697237953702054"><ele>442.40000000000003</ele><time>2026-04-18T10:37:10Z</time></trkpt><trkpt lat="47.316877881685656" lon="8.697377081075032"><ele>442.0</ele><time>2026-04-18T10:37:11Z</time></trkpt><trkpt lat="47.31692690593017" lon="8.69751435709488"><ele>442.0</ele><time>2026-04-18T10:37:12Z</time></trkpt><trkpt lat="47.31697465796052" lon="8.697649374050718"><ele>442.00000000000006</ele><time>2026-04-18T10:37:13Z</time></trkpt><trkpt lat="47.31702301732255" lon="8.697780087596579"><ele>442.00000000000006</ele><time>2026-04-18T10:37:14Z</time></trkpt><trkpt lat="47.31707098892349" lon="8.69790752361776"><ele>442.0</ele><time>2026-04-18T10:37:15Z</time></trkpt><trkpt lat="47.31711726760615" lon="8.698032691337218"><ele>442.0</ele><time>2026-04-18T10:37:16Z</time></trkpt><trkpt lat="47.31716875156021" lon="8.698152514165695"><ele>442.00000000000006</ele><time>2026-04-18T10:37:17Z</time></trkpt><trkpt lat="47.31722224116662" lon="8.698268785991361"><ele>442.0</ele><time>2026-04-18T10:37:18Z</time></trkpt><trkpt lat="47.317281597343" lon="8.698378397222491"><ele>442.0</ele><time>2026-04-18T10:37:19Z</time></trkpt><trkpt lat="47.31734781068485" lon="8.69847931007376"><ele>442.0</ele><time>2026-04-18T10:37:20Z</time></trkpt><trkpt lat="47.31738721955358" lon="8.698580451628354"><ele>442.00000000000006</ele><time>2026-04-18T10:37:21Z</time></trkpt><trkpt lat="47.31743131264043" lon="8.698680293852325"><ele>442.0</ele><time>2026-04-18T10:37:23Z</time></trkpt><trkpt lat="47.317305735121934" lon="8.698868203283768"><ele>442.00000000000006</ele><time>2026-04-18T10:37:24Z</time></trkpt><trkpt lat="47.317226691191934" lon="8.698908537012471"><ele>442.0</ele><time>2026-04-18T10:37:25Z</time></trkpt><trkpt lat="47.3171547896003" lon="8.698970059188266"><ele>442.0</ele><time>2026-04-18T10:37:26Z</time></trkpt><trkpt lat="47.31708734179166" lon="8.699043899199626"><ele>442.0</ele><time>2026-04-18T10:37:27Z</time></trkpt><trkpt lat="47.317010851621355" lon="8.699099567858736"><ele>442.00000000000006</ele><time>2026-04-18T10:37:28Z</time></trkpt><trkpt lat="47.31694241783592" lon="8.699166326861896"><ele>442.0</ele><time>2026-04-18T10:37:29Z</time></trkpt><trkpt lat="47.31686885964167" lon="8.69922972914006"><ele>442.00000000000006</ele><time>2026-04-18T10:37:30Z</time></trkpt><trkpt lat="47.316793555325525" lon="8.699287925039476"><ele>442.0</ele><time>2026-04-18T10:37:31Z</time></trkpt><trkpt lat="47.31672089192417" lon="8.699349416374506"><ele>442.0</ele><time>2026-04-18T10:37:32Z</time></trkpt><trkpt lat="47.31664616527478" lon="8.699410376394578"><ele>442.0</ele><time>2026-04-18T10:37:33Z</time></trkpt><trkpt lat="47.31657066604012" lon="8.699470416611057"><ele>442.00000000000006</ele><time>2026-04-18T10:37:34Z</time></trkpt><trkpt lat="47.3164970012858" lon="8.699533763401417"><ele>442.0</ele><time>2026-04-18T10:37:35Z</time></trkpt><trkpt lat="47.31642247585593" lon="8.699598312733565"><ele>442.00000000000006</ele><time>2026-04-18T10:37:36Z</time></trkpt><trkpt lat="47.316339897729996" lon="8.699647721076483"><ele>442.0</ele><time>2026-04-18T10:37:37Z</time></trkpt><trkpt lat="47.31626301003199" lon="8.699711608510043"><ele>442.0</ele><time>2026-04-18T10:37:38Z</time></trkpt><trkpt lat="47.31618530450378" lon="8.699776175494115"><ele>442.0</ele><time>2026-04-18T10:37:39Z</time></trkpt><trkpt lat="47.31610735830907" lon="8.699840942452271"><ele>442.00000000000006</ele><time>2026-04-18T10:37:40Z</time></trkpt><trkpt lat="47.31602898160532" lon="8.699906067128806"><ele>442.0</ele><time>2026-04-18T10:37:41Z</time></trkpt><trkpt lat="47.3159649921808" lon="8.699964889500542"><ele>442.00000000000006</ele><time>2026-04-18T10:37:42Z</time></trkpt><trkpt lat="47.31588938402856" lon="8.700027161098976"><ele>442.0</ele><time>2026-04-18T10:37:43Z</time></trkpt><trkpt lat="47.31581426053772" lon="8.700092165653006"><ele>442.0</ele><time>2026-04-18T10:37:44Z</time></trkpt><trkpt lat="47.3157383004256" lon="8.700155935934886"><ele>442.0</ele><time>2026-04-18T10:37:45Z</time></trkpt><trkpt lat="47.31566181573351" lon="8.700214692593168"><ele>442.00000000000006</ele><time>2026-04-18T10:37:46Z</time></trkpt><trkpt lat="47.315589764880094" lon="8.700275217311793"><ele>442.0</ele><time>2026-04-18T10:37:47Z</time></trkpt><trkpt lat="47.31551503374111" lon="8.700336792901343"><ele>441.83333333333337</ele><time>2026-04-18T10:37:48Z</time></trkpt><trkpt lat="47.315436484247314" lon="8.70039924698542"><ele>441.6666666666667</ele><time>2026-04-18T10:37:49Z</time></trkpt><trkpt lat="47.31536384634277" lon="8.700469370537078"><ele>441.5</ele><time>2026-04-18T10:37:50Z</time></trkpt><trkpt lat="47.31529811096363" lon="8.70054605507648"><ele>441.33333333333337</ele><time>2026-04-18T10:37:51Z</time></trkpt><trkpt lat="47.31523382248573" lon="8.700630173197016"><ele>441.1666666666667</ele><time>2026-04-18T10:37:52Z</time></trkpt><trkpt lat="47.31517502579225" lon="8.70072612304151"><ele>441.0</ele><time>2026-04-18T10:37:53Z</time></trkpt><trkpt lat="47.31512072178377" lon="8.700827421086094"><ele>441.0</ele><time>2026-04-18T10:37:54Z</time></trkpt><trkpt lat="47.315071277615786" lon="8.700932562073275"><ele>441.0</ele><time>2026-04-18T10:37:55Z</time></trkpt><trkpt lat="47.315027204206906" lon="8.701039505587364"><ele>441.0</ele><time>2026-04-18T10:37:56Z</time></trkpt><trkpt lat="47.31499076524414" lon="8.701149663973494"><ele>441.0</ele><time>2026-04-18T10:37:57Z</time></trkpt><trkpt lat="47.31495661381427" lon="8.701261150030946"><ele>441.0</ele><time>2026-04-18T10:37:58Z</time></trkpt><trkpt lat="47.31492108681281" lon="8.701372209639738"><ele>441.0</ele><time>2026-04-18T10:37:59Z</time></trkpt><trkpt lat="47.314898234368556" lon="8.701488286423661"><ele>441.3333333333333</ele><time>2026-04-18T10:38:00Z</time></trkpt><trkpt lat="47.31488053207948" lon="8.701608106026848"><ele>441.66666666666663</ele><time>2026-04-18T10:38:01Z</time></trkpt><trkpt lat="47.314865894606676" lon="8.701729676752183"><ele>442.0</ele><time>2026-04-18T10:38:02Z</time></trkpt><trkpt lat="47.3148470184042" lon="8.70184785892167"><ele>442.3333333333333</ele><time>2026-04-18T10:38:03Z</time></trkpt><trkpt lat="47.31483237616984" lon="8.701963548343636"><ele>442.66666666666663</ele><time>2026-04-18T10:38:04Z</time></trkpt><trkpt lat="47.31481844547946" lon="8.702078653704495"><ele>443.0</ele><time>2026-04-18T10:38:05Z</time></trkpt><trkpt lat="47.314804279435776" lon="8.702196264991537"><ele>443.16666666666663</ele><time>2026-04-18T10:38:06Z</time></trkpt><trkpt lat="47.31479069019512" lon="8.702314249687316"><ele>443.3333333333333</ele><time>2026-04-18T10:38:07Z</time></trkpt><trkpt lat="47.31477945434082" lon="8.702435302404163"><ele>443.5</ele><time>2026-04-18T10:38:08Z</time></trkpt><trkpt lat="47.314766985274716" lon="8.702555810074188"><ele>443.66666666666663</ele><time>2026-04-18T10:38:09Z</time></trkpt><trkpt lat="47.314751719134826" lon="8.702672471434745"><ele>443.8333333333333</ele><time>2026-04-18T10:38:10Z</time></trkpt><trkpt lat="47.31473520542775" lon="8.702790439675024"><ele>444.0</ele><time>2026-04-18T10:38:11Z</time></trkpt><trkpt lat="47.31471862038435" lon="8.702908008320069"><ele>444.0</ele><time>2026-04-18T10:38:12Z</time></trkpt><trkpt lat="47.314697251740014" lon="8.703025865566179"><ele>444.0</ele><time>2026-04-18T10:38:13Z</time></trkpt><trkpt lat="47.314673695028205" lon="8.703140848496737"><ele>444.0</ele><time>2026-04-18T10:38:14Z</time></trkpt><trkpt lat="47.314644347050674" lon="8.703254281550965"><ele>444.0</ele><time>2026-04-18T10:38:15Z</time></trkpt><trkpt lat="47.31461356746637" lon="8.703366800276948"><ele>444.0</ele><time>2026-04-18T10:38:16Z</time></trkpt><trkpt lat="47.31457869730612" lon="8.703477991407702"><ele>444.0</ele><time>2026-04-18T10:38:17Z</time></trkpt><trkpt lat="47.314541500251096" lon="8.703586838901696"><ele>444.0</ele><time>2026-04-18T10:38:18Z</time></trkpt><trkpt lat="47.31449958370574" lon="8.703694053624034"><ele>444.0</ele><time>2026-04-18T10:38:19Z</time></trkpt><trkpt lat="47.31445401361456" lon="8.703797967655307"><ele>444.0</ele><time>2026-04-18T10:38:20Z</time></trkpt><trkpt lat="47.31440645148029" lon="8.70390050542099"><ele>444.0</ele><time>2026-04-18T10:38:21Z</time></trkpt><trkpt lat="47.31435627293135" lon="8.704003030687014"><ele>444.0</ele><time>2026-04-18T10:38:22Z</time></trkpt><trkpt lat="47.314304893768174" lon="8.70410461135289"><ele>444.0</ele><time>2026-04-18T10:38:23Z</time></trkpt><trkpt lat="47.314254430618746" lon="8.7042096509531"><ele>444.0</ele><time>2026-04-18T10:38:24Z</time></trkpt><trkpt lat="47.31419893614591" lon="8.704309430006909"><ele>444.0</ele><time>2026-04-18T10:38:25Z</time></trkpt><trkpt lat="47.31414509833824" lon="8.704413510701526"><ele>444.0</ele><time>2026-04-18T10:38:26Z</time></trkpt><trkpt lat="47.31409150203172" lon="8.704518640455404"><ele>444.0</ele><time>2026-04-18T10:38:27Z</time></trkpt><trkpt lat="47.31403792893253" lon="8.704625050276837"><ele>444.0</ele><time>2026-04-18T10:38:28Z</time></trkpt><trkpt lat="47.313981752275815" lon="8.7047310014724"><ele>444.0</ele><time>2026-04-18T10:38:29Z</time></trkpt><trkpt lat="47.313923579851334" lon="8.704835044490215"><ele>444.2</ele><time>2026-04-18T10:38:30Z</time></trkpt><trkpt lat="47.31386294757911" lon="8.704941198736886"><ele>444.4</ele><time>2026-04-18T10:38:31Z</time></trkpt><trkpt lat="47.31380405028733" lon="8.705046903072168"><ele>444.6</ele><time>2026-04-18T10:38:32Z</time></trkpt><trkpt lat="47.313742680038345" lon="8.70515298114427"><ele>444.8</ele><time>2026-04-18T10:38:33Z</time></trkpt><trkpt lat="47.31368243831164" lon="8.705261193645919"><ele>445.0</ele><time>2026-04-18T10:38:34Z</time></trkpt><trkpt lat="47.31362184100123" lon="8.705367736483419"><ele>444.6</ele><time>2026-04-18T10:38:35Z</time></trkpt><trkpt lat="47.313558641767855" lon="8.705472405851623"><ele>444.2</ele><time>2026-04-18T10:38:36Z</time></trkpt><trkpt lat="47.313493906916726" lon="8.705574561313043"><ele>443.79999999999995</ele><time>2026-04-18T10:38:37Z</time></trkpt><trkpt lat="47.313430623357426" lon="8.705679345250399"><ele>443.4</ele><time>2026-04-18T10:38:38Z</time></trkpt><trkpt lat="47.31336825633436" lon="8.705782684815073"><ele>443.0</ele><time>2026-04-18T10:38:39Z</time></trkpt><trkpt lat="47.31330482942734" lon="8.705888284708612"><ele>443.0</ele><time>2026-04-18T10:38:40Z</time></trkpt><trkpt lat="47.31324127742352" lon="8.705991008979717"><ele>442.99999999999994</ele><time>2026-04-18T10:38:41Z</time></trkpt><trkpt lat="47.31317714707354" lon="8.706093507942548"><ele>442.99999999999994</ele><time>2026-04-18T10:38:42Z</time></trkpt><trkpt lat="47.313115076382246" lon="8.706200843767695"><ele>443.0</ele><time>2026-04-18T10:38:43Z</time></trkpt><trkpt lat="47.313051377503" lon="8.706305719011205"><ele>443.0</ele><time>2026-04-18T10:38:44Z</time></trkpt><trkpt lat="47.312985772651615" lon="8.706410205028234"><ele>442.79999999999995</ele><time>2026-04-18T10:38:45Z</time></trkpt><trkpt lat="47.312921219631356" lon="8.706519725477945"><ele>442.59999999999997</ele><time>2026-04-18T10:38:46Z</time></trkpt><trkpt lat="47.31285889632513" lon="8.706627852368209"><ele>442.40000000000003</ele><time>2026-04-18T10:38:47Z</time></trkpt><trkpt lat="47.31279448138724" lon="8.706738731529045"><ele>442.20000000000005</ele><time>2026-04-18T10:38:48Z</time></trkpt><trkpt lat="47.312727977775204" lon="8.706845942610903"><ele>442.0</ele><time>2026-04-18T10:38:49Z</time></trkpt><trkpt lat="47.312659104215875" lon="8.70695160308971"><ele>441.6</ele><time>2026-04-18T10:38:50Z</time></trkpt><trkpt lat="47.31259124614207" lon="8.707058231332779"><ele>441.20000000000005</ele><time>2026-04-18T10:38:51Z</time></trkpt><trkpt lat="47.312523896056284" lon="8.707168662186543"><ele>440.8</ele><time>2026-04-18T10:38:52Z</time></trkpt><trkpt lat="47.31245522215846" lon="8.707275210549883"><ele>440.4</ele><time>2026-04-18T10:38:53Z</time></trkpt><trkpt lat="47.31238791277014" lon="8.707382104834862"><ele>440.0</ele><time>2026-04-18T10:38:54Z</time></trkpt><trkpt lat="47.312321281626325" lon="8.707491864818536"><ele>440.0</ele><time>2026-04-18T10:38:55Z</time></trkpt><trkpt lat="47.31225472307421" lon="8.707597002739833"><ele>440.0</ele><time>2026-04-18T10:38:56Z</time></trkpt><trkpt lat="47.31218786265574" lon="8.707704072872788"><ele>440.0</ele><time>2026-04-18T10:38:57Z</time></trkpt><trkpt lat="47.31212420693857" lon="8.707809984135864"><ele>440.0</ele><time>2026-04-18T10:38:58Z</time></trkpt><trkpt lat="47.31205876059503" lon="8.70791201755592"><ele>440.0</ele><time>2026-04-18T10:38:59Z</time></trkpt><trkpt lat="47.311995674636044" lon="8.708014290985869"><ele>440.16666666666663</ele><time>2026-04-18T10:39:00Z</time></trkpt><trkpt lat="47.31193401360485" lon="8.708115977621476"><ele>440.3333333333333</ele><time>2026-04-18T10:39:01Z</time></trkpt><trkpt lat="47.31187371623396" lon="8.708215763867356"><ele>440.5</ele><time>2026-04-18T10:39:02Z</time></trkpt><trkpt lat="47.31181259612219" lon="8.708312058333453"><ele>440.66666666666663</ele><time>2026-04-18T10:39:03Z</time></trkpt><trkpt lat="47.311753014104866" lon="8.708408621726724"><ele>440.8333333333333</ele><time>2026-04-18T10:39:04Z</time></trkpt><trkpt lat="47.31169332994724" lon="8.708503832917945"><ele>441.0</ele><time>2026-04-18T10:39:05Z</time></trkpt><trkpt lat="47.31163227269429" lon="8.708597831649666"><ele>441.1666666666667</ele><time>2026-04-18T10:39:06Z</time></trkpt><trkpt lat="47.31157461341365" lon="8.7086932279538"><ele>441.33333333333337</ele><time>2026-04-18T10:39:07Z</time></trkpt><trkpt lat="47.31151614337535" lon="8.70878941964532"><ele>441.5</ele><time>2026-04-18T10:39:08Z</time></trkpt><trkpt lat="47.3114573448009" lon="8.70888221033682"><ele>441.6666666666667</ele><time>2026-04-18T10:39:09Z</time></trkpt><trkpt lat="47.31139789039328" lon="8.708974954810541"><ele>441.83333333333337</ele><time>2026-04-18T10:39:10Z</time></trkpt><trkpt lat="47.311341810134834" lon="8.70906941389393"><ele>442.0</ele><time>2026-04-18T10:39:11Z</time></trkpt><trkpt lat="47.31128691050432" lon="8.709165437685966"><ele>442.1666666666667</ele><time>2026-04-18T10:39:12Z</time></trkpt><trkpt lat="47.311226902363444" lon="8.709254740566735"><ele>442.33333333333337</ele><time>2026-04-18T10:39:13Z</time></trkpt><trkpt lat="47.311169009613224" lon="8.709345118874614"><ele>442.5</ele><time>2026-04-18T10:39:14Z</time></trkpt><trkpt lat="47.311111098059705" lon="8.709436553797042"><ele>442.66666666666663</ele><time>2026-04-18T10:39:15Z</time></trkpt><trkpt lat="47.31105665711532" lon="8.70953355148921"><ele>442.8333333333333</ele><time>2026-04-18T10:39:16Z</time></trkpt><trkpt lat="47.3109983332843" lon="8.709625484210722"><ele>443.0</ele><time>2026-04-18T10:39:17Z</time></trkpt><trkpt lat="47.31094051638776" lon="8.709715055783569"><ele>442.99999999999994</ele><time>2026-04-18T10:39:18Z</time></trkpt><trkpt lat="47.31088300710172" lon="8.709805525951813"><ele>443.0</ele><time>2026-04-18T10:39:19Z</time></trkpt><trkpt lat="47.31082666014005" lon="8.709898434890246"><ele>443.0</ele><time>2026-04-18T10:39:20Z</time></trkpt><trkpt lat="47.31077119245552" lon="8.709993450560898"><ele>443.0</ele><time>2026-04-18T10:39:21Z</time></trkpt><trkpt lat="47.310717665343056" lon="8.71009108818072"><ele>442.99999999999994</ele><time>2026-04-18T10:39:22Z</time></trkpt><trkpt lat="47.31066207530442" lon="8.710186760704705"><ele>443.0</ele><time>2026-04-18T10:39:23Z</time></trkpt><trkpt lat="47.31061144748667" lon="8.710290167130509"><ele>443.49999999999994</ele><time>2026-04-18T10:39:24Z</time></trkpt><trkpt lat="47.31056180911131" lon="8.710389698017943"><ele>444.0</ele><time>2026-04-18T10:39:25Z</time></trkpt><trkpt lat="47.310515035075724" lon="8.71049599564656"><ele>444.5</ele><time>2026-04-18T10:39:26Z</time></trkpt><trkpt lat="47.310466802559915" lon="8.710604793774085"><ele>445.0</ele><time>2026-04-18T10:39:27Z</time></trkpt><trkpt lat="47.31041912135511" lon="8.7107112839981"><ele>445.49999999999994</ele><time>2026-04-18T10:39:28Z</time></trkpt><trkpt lat="47.310377489389225" lon="8.710821865268686"><ele>446.0</ele><time>2026-04-18T10:39:29Z</time></trkpt><trkpt lat="47.31033719267968" lon="8.710941606826296"><ele>445.99999999999994</ele><time>2026-04-18T10:39:30Z</time></trkpt><trkpt lat="47.31029626101765" lon="8.711056876496853"><ele>446.0</ele><time>2026-04-18T10:39:31Z</time></trkpt><trkpt lat="47.310255318553125" lon="8.711174900855166"><ele>446.0</ele><time>2026-04-18T10:39:32Z</time></trkpt><trkpt lat="47.31021663043078" lon="8.711294691814414"><ele>446.0</ele><time>2026-04-18T10:39:33Z</time></trkpt><trkpt lat="47.31017912548246" lon="8.711414663265122"><ele>445.99999999999994</ele><time>2026-04-18T10:39:34Z</time></trkpt><trkpt lat="47.3101473126087" lon="8.7115394734476"><ele>446.0</ele><time>2026-04-18T10:39:35Z</time></trkpt><trkpt lat="47.310115698524875" lon="8.711665325069953"><ele>445.6</ele><time>2026-04-18T10:39:36Z</time></trkpt><trkpt lat="47.31008719155356" lon="8.711790012859684"><ele>445.20000000000005</ele><time>2026-04-18T10:39:37Z</time></trkpt><trkpt lat="47.31006172009887" lon="8.711917739146607"><ele>444.79999999999995</ele><time>2026-04-18T10:39:38Z</time></trkpt><trkpt lat="47.3100362822822" lon="8.712045542976194"><ele>444.4</ele><time>2026-04-18T10:39:39Z</time></trkpt><trkpt lat="47.31001000358424" lon="8.712173215981139"><ele>444.0</ele><time>2026-04-18T10:39:40Z</time></trkpt><trkpt lat="47.30998833505831" lon="8.712303496696068"><ele>443.4</ele><time>2026-04-18T10:39:41Z</time></trkpt><trkpt lat="47.30996758282255" lon="8.712432431767065"><ele>442.79999999999995</ele><time>2026-04-18T10:39:42Z</time></trkpt><trkpt lat="47.309947442931815" lon="8.712562880421643"><ele>442.20000000000005</ele><time>2026-04-18T10:39:43Z</time></trkpt><trkpt lat="47.30992656281327" lon="8.712693021444306"><ele>441.6</ele><time>2026-04-18T10:39:44Z</time></trkpt><trkpt lat="47.309905980007144" lon="8.712821991897703"><ele>441.0</ele><time>2026-04-18T10:39:45Z</time></trkpt><trkpt lat="47.309887184542205" lon="8.712952711011374"><ele>441.0</ele><time>2026-04-18T10:39:46Z</time></trkpt><trkpt lat="47.30986665813049" lon="8.713083622909597"><ele>441.0</ele><time>2026-04-18T10:39:47Z</time></trkpt><trkpt lat="47.309845147795585" lon="8.71321203192321"><ele>441.0</ele><time>2026-04-18T10:39:48Z</time></trkpt><trkpt lat="47.309821750781786" lon="8.713340758178543"><ele>441.0</ele><time>2026-04-18T10:39:49Z</time></trkpt><trkpt lat="47.30979817672313" lon="8.713470412299483"><ele>441.0</ele><time>2026-04-18T10:39:50Z</time></trkpt><trkpt lat="47.3097761148678" lon="8.713599789835742"><ele>441.0</ele><time>2026-04-18T10:39:51Z</time></trkpt><trkpt lat="47.30975321725174" lon="8.71372967186922"><ele>441.0</ele><time>2026-04-18T10:39:52Z</time></trkpt><trkpt lat="47.3097288861198" lon="8.713860206187176"><ele>441.0</ele><time>2026-04-18T10:39:53Z</time></trkpt><trkpt lat="47.309703830803684" lon="8.713988831302428"><ele>441.0</ele><time>2026-04-18T10:39:54Z</time></trkpt><trkpt lat="47.309676888047065" lon="8.714116752243884"><ele>441.0</ele><time>2026-04-18T10:39:55Z</time></trkpt><trkpt lat="47.3096495919852" lon="8.714246352833635"><ele>441.8</ele><time>2026-04-18T10:39:56Z</time></trkpt><trkpt lat="47.30962260413117" lon="8.714374784875941"><ele>442.6</ele><time>2026-04-18T10:39:57Z</time></trkpt><trkpt lat="47.30959414677663" lon="8.714502322092853"><ele>443.4</ele><time>2026-04-18T10:39:58Z</time></trkpt><trkpt lat="47.30956651049972" lon="8.714632516815515"><ele>444.2</ele><time>2026-04-18T10:39:59Z</time></trkpt><trkpt lat="47.30953611381963" lon="8.714758630028884"><ele>445.0</ele><time>2026-04-18T10:40:00Z</time></trkpt><trkpt lat="47.30950475030774" lon="8.714884517804402"><ele>445.0</ele><time>2026-04-18T10:40:01Z</time></trkpt><trkpt lat="47.30947530124133" lon="8.715011173286317"><ele>445.0</ele><time>2026-04-18T10:40:02Z</time></trkpt><trkpt lat="47.30944740503273" lon="8.71513935533761"><ele>445.0</ele><time>2026-04-18T10:40:03Z</time></trkpt><trkpt lat="47.30941621938876" lon="8.715267550690864"><ele>445.0</ele><time>2026-04-18T10:40:04Z</time></trkpt><trkpt lat="47.30938430261659" lon="8.715392738930499"><ele>445.0</ele><time>2026-04-18T10:40:05Z</time></trkpt><trkpt lat="47.309353172529796" lon="8.715521597492986"><ele>445.00000000000006</ele><time>2026-04-18T10:40:06Z</time></trkpt><trkpt lat="47.30932349190137" lon="8.715649223842453"><ele>445.0</ele><time>2026-04-18T10:40:07Z</time></trkpt><trkpt lat="47.30929378231669" lon="8.715776105322872"><ele>445.0</ele><time>2026-04-18T10:40:08Z</time></trkpt><trkpt lat="47.30926308073962" lon="8.71590358595887"><ele>445.0</ele><time>2026-04-18T10:40:09Z</time></trkpt><trkpt lat="47.30923616028232" lon="8.716028217845382"><ele>445.00000000000006</ele><time>2026-04-18T10:40:10Z</time></trkpt><trkpt lat="47.30921384003707" lon="8.71614756902165"><ele>445.0</ele><time>2026-04-18T10:40:11Z</time></trkpt><trkpt lat="47.30920442121941" lon="8.71626611226569"><ele>445.00000000000006</ele><time>2026-04-18T10:40:12Z</time></trkpt><trkpt lat="47.309205351769315" lon="8.716381831829047"><ele>445.0</ele><time>2026-04-18T10:40:13Z</time></trkpt><trkpt lat="47.309219201791564" lon="8.716493745596955"><ele>445.0</ele><time>2026-04-18T10:40:14Z</time></trkpt><trkpt lat="47.30923965864206" lon="8.716602036138395"><ele>445.0</ele><time>2026-04-18T10:40:15Z</time></trkpt><trkpt lat="47.309272690031655" lon="8.716708907269837"><ele>445.00000000000006</ele><time>2026-04-18T10:40:16Z</time></trkpt><trkpt lat="47.309314504092775" lon="8.71681062027533"><ele>445.0</ele><time>2026-04-18T10:40:17Z</time></trkpt><trkpt lat="47.309360410365926" lon="8.716907577691062"><ele>445.00000000000006</ele><time>2026-04-18T10:40:18Z</time></trkpt><trkpt lat="47.30940663007315" lon="8.717003972094908"><ele>445.0</ele><time>2026-04-18T10:40:19Z</time></trkpt><trkpt lat="47.30944906021697" lon="8.717103394445333"><ele>445.0</ele><time>2026-04-18T10:40:20Z</time></trkpt><trkpt lat="47.30949040142497" lon="8.717200171223025"><ele>445.0</ele><time>2026-04-18T10:40:21Z</time></trkpt><trkpt lat="47.309526415362164" lon="8.717300913985637"><ele>445.00000000000006</ele><time>2026-04-18T10:40:22Z</time></trkpt><trkpt lat="47.3095636366609" lon="8.717398603031988"><ele>445.0</ele><time>2026-04-18T10:40:23Z</time></trkpt><trkpt lat="47.30959569067947" lon="8.717498375922807"><ele>445.00000000000006</ele><time>2026-04-18T10:40:24Z</time></trkpt><trkpt lat="47.30962513451474" lon="8.7176025606895"><ele>445.0</ele><time>2026-04-18T10:40:25Z</time></trkpt><trkpt lat="47.30965322336308" lon="8.717707016097872"><ele>445.0</ele><time>2026-04-18T10:40:26Z</time></trkpt><trkpt lat="47.30968380467451" lon="8.717815770145384"><ele>445.0</ele><time>2026-04-18T10:40:27Z</time></trkpt><trkpt lat="47.30971518768289" lon="8.71792416178263"><ele>445.00000000000006</ele><time>2026-04-18T10:40:28Z</time></trkpt><trkpt lat="47.30974778973391" lon="8.718027026407546"><ele>445.0</ele><time>2026-04-18T10:40:29Z</time></trkpt><trkpt lat="47.30977493826809" lon="8.718125005224959"><ele>445.00000000000006</ele><time>2026-04-18T10:40:30Z</time></trkpt><trkpt lat="47.30980302026431" lon="8.718230498731133"><ele>445.0</ele><time>2026-04-18T10:40:31Z</time></trkpt><trkpt lat="47.309836818410254" lon="8.718338308720794"><ele>445.0</ele><time>2026-04-18T10:40:32Z</time></trkpt><trkpt lat="47.3098681715762" lon="8.71844566446349"><ele>445.0</ele><time>2026-04-18T10:40:33Z</time></trkpt><trkpt lat="47.30989758251585" lon="8.718554256746428"><ele>445.00000000000006</ele><time>2026-04-18T10:40:34Z</time></trkpt><trkpt lat="47.30992918008095" lon="8.71866581719804"><ele>445.0</ele><time>2026-04-18T10:40:35Z</time></trkpt><trkpt lat="47.30996034174225" lon="8.718781578790598"><ele>445.00000000000006</ele><time>2026-04-18T10:40:36Z</time></trkpt><trkpt lat="47.3099909309446" lon="8.718894741059742"><ele>445.0</ele><time>2026-04-18T10:40:37Z</time></trkpt><trkpt lat="47.31002149115087" lon="8.719001475962465"><ele>445.0</ele><time>2026-04-18T10:40:38Z</time></trkpt><trkpt lat="47.31005633887168" lon="8.719108053943929"><ele>445.0</ele><time>2026-04-18T10:40:39Z</time></trkpt><trkpt lat="47.31009062146411" lon="8.719217078531795"><ele>445.00000000000006</ele><time>2026-04-18T10:40:40Z</time></trkpt><trkpt lat="47.310122304881375" lon="8.719324353912006"><ele>445.0</ele><time>2026-04-18T10:40:41Z</time></trkpt><trkpt lat="47.31015572485272" lon="8.71943227432661"><ele>445.00000000000006</ele><time>2026-04-18T10:40:42Z</time></trkpt><trkpt lat="47.310188895961005" lon="8.719535545993534"><ele>445.0</ele><time>2026-04-18T10:40:43Z</time></trkpt><trkpt lat="47.31022549517469" lon="8.719646224865304"><ele>445.0</ele><time>2026-04-18T10:40:44Z</time></trkpt><trkpt lat="47.310259600220355" lon="8.71975395784985"><ele>445.0</ele><time>2026-04-18T10:40:45Z</time></trkpt><trkpt lat="47.31029190390587" lon="8.719863713731327"><ele>445.00000000000006</ele><time>2026-04-18T10:40:46Z</time></trkpt><trkpt lat="47.31032185017291" lon="8.719978584661742"><ele>445.0</ele><time>2026-04-18T10:40:47Z</time></trkpt><trkpt lat="47.31034795699666" lon="8.720098349697025"><ele>445.00000000000006</ele><time>2026-04-18T10:40:48Z</time></trkpt><trkpt lat="47.310369104701955" lon="8.720218931629127"><ele>445.0</ele><time>2026-04-18T10:40:49Z</time></trkpt><trkpt lat="47.310386378807074" lon="8.720341373870646"><ele>445.0</ele><time>2026-04-18T10:40:50Z</time></trkpt><trkpt lat="47.31039158150506" lon="8.720457937554896"><ele>445.0</ele><time>2026-04-18T10:40:51Z</time></trkpt><trkpt lat="47.3103946464111" lon="8.720564329094895"><ele>445.00000000000006</ele><time>2026-04-18T10:40:52Z</time></trkpt><trkpt lat="47.31040132493796" lon="8.720665787120483"><ele>445.0</ele><time>2026-04-18T10:40:53Z</time></trkpt><trkpt lat="47.31041167405481" lon="8.720821977761553"><ele>444.8</ele><time>2026-04-18T10:40:55Z</time></trkpt><trkpt lat="47.31042119118713" lon="8.72095694533604"><ele>444.6</ele><time>2026-04-18T10:40:57Z</time></trkpt><trkpt lat="47.310418109603525" lon="8.721062445496784"><ele>444.4</ele><time>2026-04-18T10:40:59Z</time></trkpt><trkpt lat="47.31041822548906" lon="8.721174203833412"><ele>444.2</ele><time>2026-04-18T10:41:11Z</time></trkpt><trkpt lat="47.310303341268515" lon="8.721199139681657"><ele>444.0</ele><time>2026-04-18T10:41:13Z</time></trkpt><trkpt lat="47.31019645946327" lon="8.721225447539853"><ele>444.0</ele><time>2026-04-18T10:41:15Z</time></trkpt><trkpt lat="47.31013222652834" lon="8.72125968232404"><ele>444.0</ele><time>2026-04-18T10:41:16Z</time></trkpt><trkpt lat="47.31006318752244" lon="8.721301063680048"><ele>444.0</ele><time>2026-04-18T10:41:17Z</time></trkpt><trkpt lat="47.30999348716134" lon="8.721354185599637"><ele>444.0</ele><time>2026-04-18T10:41:18Z</time></trkpt><trkpt lat="47.30991755323765" lon="8.721405754557614"><ele>444.0</ele><time>2026-04-18T10:41:19Z</time></trkpt><trkpt lat="47.30984183447925" lon="8.72144851181933"><ele>444.0</ele><time>2026-04-18T10:41:20Z</time></trkpt><trkpt lat="47.30976392204214" lon="8.72149185462025"><ele>444.0</ele><time>2026-04-18T10:41:21Z</time></trkpt><trkpt lat="47.30968391660809" lon="8.721521107822538"><ele>444.0</ele><time>2026-04-18T10:41:22Z</time></trkpt><trkpt lat="47.30960095518711" lon="8.721534313755663"><ele>444.0</ele><time>2026-04-18T10:41:23Z</time></trkpt><trkpt lat="47.30951642867798" lon="8.72153544055381"><ele>444.0</ele><time>2026-04-18T10:41:24Z</time></trkpt><trkpt lat="47.30943112320067" lon="8.721544249965026"><ele>444.0</ele><time>2026-04-18T10:41:25Z</time></trkpt><trkpt lat="47.30934518412564" lon="8.721550855821407"><ele>444.0</ele><time>2026-04-18T10:41:26Z</time></trkpt><trkpt lat="47.30925674966769" lon="8.721561342008666"><ele>444.0</ele><time>2026-04-18T10:41:27Z</time></trkpt><trkpt lat="47.30916481929753" lon="8.721578871267225"><ele>444.0</ele><time>2026-04-18T10:41:28Z</time></trkpt><trkpt lat="47.30907387110102" lon="8.721597300071481"><ele>444.0</ele><time>2026-04-18T10:41:29Z</time></trkpt><trkpt lat="47.3090029977357" lon="8.721551763233276"><ele>444.0</ele><time>2026-04-18T10:41:30Z</time></trkpt><trkpt lat="47.308921637228195" lon="8.72152321394501"><ele>444.0</ele><time>2026-04-18T10:41:31Z</time></trkpt><trkpt lat="47.30884139167243" lon="8.7214808508153"><ele>444.0</ele><time>2026-04-18T10:41:32Z</time></trkpt><trkpt lat="47.30875478225724" lon="8.721475241026242"><ele>443.8333333333333</ele><time>2026-04-18T10:41:33Z</time></trkpt><trkpt lat="47.30866019255783" lon="8.721476158016758"><ele>443.66666666666663</ele><time>2026-04-18T10:41:34Z</time></trkpt><trkpt lat="47.308576843875365" lon="8.721460118195877"><ele>443.5</ele><time>2026-04-18T10:41:35Z</time></trkpt><trkpt lat="47.30849381835143" lon="8.721441280044687"><ele>443.3333333333333</ele><time>2026-04-18T10:41:36Z</time></trkpt><trkpt lat="47.308411492486535" lon="8.721421168428117"><ele>443.16666666666663</ele><time>2026-04-18T10:41:37Z</time></trkpt><trkpt lat="47.308327249151674" lon="8.721406960389041"><ele>443.0</ele><time>2026-04-18T10:41:38Z</time></trkpt><trkpt lat="47.30824408168504" lon="8.721389864658184"><ele>442.99999999999994</ele><time>2026-04-18T10:41:39Z</time></trkpt><trkpt lat="47.30816096772209" lon="8.721373411684002"><ele>443.0</ele><time>2026-04-18T10:41:40Z</time></trkpt><trkpt lat="47.30807893639381" lon="8.721356132564301"><ele>443.0</ele><time>2026-04-18T10:41:41Z</time></trkpt><trkpt lat="47.307996404261765" lon="8.721339071030123"><ele>443.0</ele><time>2026-04-18T10:41:42Z</time></trkpt><trkpt lat="47.30791379576655" lon="8.721318694177073"><ele>442.99999999999994</ele><time>2026-04-18T10:41:43Z</time></trkpt><trkpt lat="47.30783056652788" lon="8.721302439547852"><ele>443.0</ele><time>2026-04-18T10:41:44Z</time></trkpt><trkpt lat="47.30774770810207" lon="8.721287055530013"><ele>443.16666666666663</ele><time>2026-04-18T10:41:45Z</time></trkpt><trkpt lat="47.30766499746153" lon="8.72127255379313"><ele>443.3333333333333</ele><time>2026-04-18T10:41:46Z</time></trkpt><trkpt lat="47.30758127089774" lon="8.721253480037022"><ele>443.5</ele><time>2026-04-18T10:41:47Z</time></trkpt><trkpt lat="47.307497195597115" lon="8.721234281006355"><ele>443.66666666666663</ele><time>2026-04-18T10:41:48Z</time></trkpt><trkpt lat="47.30741286723376" lon="8.7212207422363"><ele>443.8333333333333</ele><time>2026-04-18T10:41:49Z</time></trkpt><trkpt lat="47.30732852444064" lon="8.721206320734707"><ele>444.0</ele><time>2026-04-18T10:41:50Z</time></trkpt><trkpt lat="47.30724390558306" lon="8.721191345140982"><ele>444.0</ele><time>2026-04-18T10:41:51Z</time></trkpt><trkpt lat="47.3071596372054" lon="8.721174229670739"><ele>444.0</ele><time>2026-04-18T10:41:52Z</time></trkpt><trkpt lat="47.30707509647877" lon="8.721158330270049"><ele>444.0</ele><time>2026-04-18T10:41:53Z</time></trkpt><trkpt lat="47.306991596151654" lon="8.72114204042772"><ele>444.0</ele><time>2026-04-18T10:41:54Z</time></trkpt><trkpt lat="47.30690951524069" lon="8.721124937686634"><ele>444.0</ele><time>2026-04-18T10:41:55Z</time></trkpt><trkpt lat="47.3068267875057" lon="8.721108515037121"><ele>444.0</ele><time>2026-04-18T10:41:56Z</time></trkpt><trkpt lat="47.30674169984183" lon="8.721090883377688"><ele>444.0</ele><time>2026-04-18T10:41:57Z</time></trkpt><trkpt lat="47.3066583293055" lon="8.721077233693084"><ele>444.0</ele><time>2026-04-18T10:41:58Z</time></trkpt><trkpt lat="47.30657240417911" lon="8.721063496373597"><ele>444.0</ele><time>2026-04-18T10:41:59Z</time></trkpt><trkpt lat="47.3064881145695" lon="8.721042902508442"><ele>444.0</ele><time>2026-04-18T10:42:00Z</time></trkpt><trkpt lat="47.306403161899915" lon="8.721028281797922"><ele>444.0</ele><time>2026-04-18T10:42:01Z</time></trkpt><trkpt lat="47.306318696514175" lon="8.721012716461386"><ele>444.0</ele><time>2026-04-18T10:42:02Z</time></trkpt><trkpt lat="47.30623440930328" lon="8.720995739109547"><ele>444.0</ele><time>2026-04-18T10:42:03Z</time></trkpt><trkpt lat="47.306149963111636" lon="8.720978206380146"><ele>444.0</ele><time>2026-04-18T10:42:04Z</time></trkpt><trkpt lat="47.30606420357155" lon="8.720955248335734"><ele>444.0</ele><time>2026-04-18T10:42:05Z</time></trkpt><trkpt lat="47.30597912528456" lon="8.720933821459672"><ele>444.0</ele><time>2026-04-18T10:42:06Z</time></trkpt><trkpt lat="47.30589434364243" lon="8.720914892956628"><ele>444.0</ele><time>2026-04-18T10:42:07Z</time></trkpt><trkpt lat="47.30580894212677" lon="8.720897327427396"><ele>444.0</ele><time>2026-04-18T10:42:08Z</time></trkpt><trkpt lat="47.305723849969006" lon="8.720875851637828"><ele>444.0</ele><time>2026-04-18T10:42:09Z</time></trkpt><trkpt lat="47.30563789083903" lon="8.72086210962393"><ele>444.0</ele><time>2026-04-18T10:42:10Z</time></trkpt><trkpt lat="47.30555552258156" lon="8.720854309121862"><ele>444.0</ele><time>2026-04-18T10:42:11Z</time></trkpt><trkpt lat="47.30546577920616" lon="8.720841601904006"><ele>444.0</ele><time>2026-04-18T10:42:12Z</time></trkpt><trkpt lat="47.305384177926186" lon="8.72081576135432"><ele>444.0</ele><time>2026-04-18T10:42:13Z</time></trkpt><trkpt lat="47.30529999674201" lon="8.720798768959373"><ele>444.0</ele><time>2026-04-18T10:42:14Z</time></trkpt><trkpt lat="47.30523239878866" lon="8.720759549956885"><ele>444.0</ele><time>2026-04-18T10:42:15Z</time></trkpt><trkpt lat="47.30516685737318" lon="8.72072284601096"><ele>444.0</ele><time>2026-04-18T10:42:16Z</time></trkpt><trkpt lat="47.30509233280546" lon="8.720701660948487"><ele>444.0</ele><time>2026-04-18T10:42:17Z</time></trkpt><trkpt lat="47.30501125381952" lon="8.720693010972296"><ele>444.0</ele><time>2026-04-18T10:42:18Z</time></trkpt><trkpt lat="47.30493089156705" lon="8.720675627787454"><ele>444.0</ele><time>2026-04-18T10:42:19Z</time></trkpt><trkpt lat="47.3048478033924" lon="8.720666515893114"><ele>444.0</ele><time>2026-04-18T10:42:20Z</time></trkpt><trkpt lat="47.30476746090214" lon="8.720652967982437"><ele>444.1666666666667</ele><time>2026-04-18T10:42:21Z</time></trkpt><trkpt lat="47.30468616391525" lon="8.720630680627488"><ele>444.33333333333337</ele><time>2026-04-18T10:42:22Z</time></trkpt><trkpt lat="47.30460492776963" lon="8.720602184491531"><ele>444.5</ele><time>2026-04-18T10:42:23Z</time></trkpt><trkpt lat="47.304521527310726" lon="8.720573274849711"><ele>444.6666666666667</ele><time>2026-04-18T10:42:24Z</time></trkpt><trkpt lat="47.30443502674399" lon="8.720574375507269"><ele>444.83333333333337</ele><time>2026-04-18T10:42:25Z</time></trkpt><trkpt lat="47.30435305634592" lon="8.720539544371542"><ele>445.0</ele><time>2026-04-18T10:42:26Z</time></trkpt><trkpt lat="47.30426954907875" lon="8.72052165226517"><ele>445.00000000000006</ele><time>2026-04-18T10:42:27Z</time></trkpt><trkpt lat="47.30418778603145" lon="8.720502629152854"><ele>445.0</ele><time>2026-04-18T10:42:28Z</time></trkpt><trkpt lat="47.30410539501333" lon="8.720489710203822"><ele>445.0</ele><time>2026-04-18T10:42:29Z</time></trkpt><trkpt lat="47.3040224168773" lon="8.720470270803656"><ele>445.0</ele><time>2026-04-18T10:42:30Z</time></trkpt><trkpt lat="47.30393952388164" lon="8.72045420285265"><ele>445.00000000000006</ele><time>2026-04-18T10:42:31Z</time></trkpt><trkpt lat="47.303856123229515" lon="8.72044131115751"><ele>445.0</ele><time>2026-04-18T10:42:32Z</time></trkpt><trkpt lat="47.30377465749487" lon="8.720425907486343"><ele>445.1666666666667</ele><time>2026-04-18T10:42:33Z</time></trkpt><trkpt lat="47.303693099943736" lon="8.720408054486386"><ele>445.33333333333337</ele><time>2026-04-18T10:42:34Z</time></trkpt><trkpt lat="47.30361239870293" lon="8.720389450254498"><ele>445.5</ele><time>2026-04-18T10:42:35Z</time></trkpt><trkpt lat="47.30353027221045" lon="8.720379846929045"><ele>445.66666666666663</ele><time>2026-04-18T10:42:36Z</time></trkpt><trkpt lat="47.30344865797342" lon="8.720365765221448"><ele>445.8333333333333</ele><time>2026-04-18T10:42:37Z</time></trkpt><trkpt lat="47.30337011235538" lon="8.720336835359486"><ele>446.0</ele><time>2026-04-18T10:42:38Z</time></trkpt><trkpt lat="47.303292929681916" lon="8.720294835515954"><ele>445.99999999999994</ele><time>2026-04-18T10:42:39Z</time></trkpt><trkpt lat="47.30321046339189" lon="8.720279747200525"><ele>446.0</ele><time>2026-04-18T10:42:40Z</time></trkpt><trkpt lat="47.30313404965862" lon="8.720231804173892"><ele>446.0</ele><time>2026-04-18T10:42:41Z</time></trkpt><trkpt lat="47.303053757276146" lon="8.720211135408551"><ele>446.0</ele><time>2026-04-18T10:42:42Z</time></trkpt><trkpt lat="47.30297467123755" lon="8.720180755962776"><ele>445.99999999999994</ele><time>2026-04-18T10:42:43Z</time></trkpt><trkpt lat="47.30289460386338" lon="8.72015045244429"><ele>446.0</ele><time>2026-04-18T10:42:44Z</time></trkpt><trkpt lat="47.3028154747947" lon="8.720124291606233"><ele>446.66666666666663</ele><time>2026-04-18T10:42:45Z</time></trkpt><trkpt lat="47.30273723635674" lon="8.720091310316063"><ele>447.3333333333333</ele><time>2026-04-18T10:42:46Z</time></trkpt><trkpt lat="47.30265867710584" lon="8.720088342880663"><ele>448.0</ele><time>2026-04-18T10:42:47Z</time></trkpt><trkpt lat="47.30258033528976" lon="8.720063035722896"><ele>448.66666666666663</ele><time>2026-04-18T10:42:48Z</time></trkpt><trkpt lat="47.302502484656024" lon="8.720014069728931"><ele>449.3333333333333</ele><time>2026-04-18T10:42:49Z</time></trkpt><trkpt lat="47.302420478748644" lon="8.719990173464032"><ele>450.0</ele><time>2026-04-18T10:42:50Z</time></trkpt><trkpt lat="47.30233375304192" lon="8.719989120591606"><ele>450.0</ele><time>2026-04-18T10:42:51Z</time></trkpt><trkpt lat="47.302253437346" lon="8.71996749627195"><ele>450.0</ele><time>2026-04-18T10:42:52Z</time></trkpt><trkpt lat="47.30216995322733" lon="8.719945143454524"><ele>450.0</ele><time>2026-04-18T10:42:53Z</time></trkpt><trkpt lat="47.30208824160799" lon="8.71992391999766"><ele>450.0</ele><time>2026-04-18T10:42:54Z</time></trkpt><trkpt lat="47.30200495465325" lon="8.719903914121492"><ele>450.0</ele><time>2026-04-18T10:42:55Z</time></trkpt><trkpt lat="47.30192345234972" lon="8.71988894587649"><ele>450.0</ele><time>2026-04-18T10:42:56Z</time></trkpt><trkpt lat="47.30184376570063" lon="8.719879255569188"><ele>450.0</ele><time>2026-04-18T10:42:57Z</time></trkpt><trkpt lat="47.30176351759408" lon="8.719874111211043"><ele>450.0</ele><time>2026-04-18T10:42:58Z</time></trkpt><trkpt lat="47.3016837593034" lon="8.719878888059343"><ele>450.0</ele><time>2026-04-18T10:42:59Z</time></trkpt><trkpt lat="47.30160503522649" lon="8.719892958503724"><ele>450.0</ele><time>2026-04-18T10:43:00Z</time></trkpt><trkpt lat="47.30152609214848" lon="8.71985449009434"><ele>450.0</ele><time>2026-04-18T10:43:01Z</time></trkpt><trkpt lat="47.30146296429602" lon="8.719841022631185"><ele>450.0</ele><time>2026-04-18T10:43:02Z</time></trkpt><trkpt lat="47.30140502041214" lon="8.71976063320063"><ele>450.0</ele><time>2026-04-18T10:43:04Z</time></trkpt><trkpt lat="47.30136649844027" lon="8.719865669639223"><ele>450.0</ele><time>2026-04-18T10:43:05Z</time></trkpt><trkpt lat="47.30127462469762" lon="8.719967151653163"><ele>450.0</ele><time>2026-04-18T10:43:13Z</time></trkpt><trkpt lat="47.30129040995765" lon="8.720130042088677"><ele>450.0</ele><time>2026-04-18T10:43:15Z</time></trkpt><trkpt lat="47.30134655179118" lon="8.720177594393006"><ele>450.0</ele><time>2026-04-18T10:43:16Z</time></trkpt><trkpt lat="47.301418034886964" lon="8.720165062414232"><ele>450.0</ele><time>2026-04-18T10:43:17Z</time></trkpt><trkpt lat="47.30148491698818" lon="8.720123304108805"><ele>450.0</ele><time>2026-04-18T10:43:18Z</time></trkpt><trkpt lat="47.30155543219557" lon="8.720088501291366"><ele>450.0</ele><time>2026-04-18T10:43:19Z</time></trkpt><trkpt lat="47.301634738073055" lon="8.720071883880001"><ele>450.0</ele><time>2026-04-18T10:43:20Z</time></trkpt><trkpt lat="47.301719111254044" lon="8.720062515912222"><ele>450.0</ele><time>2026-04-18T10:43:21Z</time></trkpt><trkpt lat="47.30180286153123" lon="8.720050846686924"><ele>450.0</ele><time>2026-04-18T10:43:22Z</time></trkpt><trkpt lat="47.301888104447805" lon="8.720042235238251"><ele>450.0</ele><time>2026-04-18T10:43:23Z</time></trkpt><trkpt lat="47.30197426672767" lon="8.720035069375061"><ele>450.0</ele><time>2026-04-18T10:43:24Z</time></trkpt><trkpt lat="47.30206142443583" lon="8.720038983763617"><ele>450.0</ele><time>2026-04-18T10:43:25Z</time></trkpt><trkpt lat="47.3021462662196" lon="8.72006093603492"><ele>450.0</ele><time>2026-04-18T10:43:26Z</time></trkpt><trkpt lat="47.30223279521427" lon="8.720089738933288"><ele>450.0</ele><time>2026-04-18T10:43:27Z</time></trkpt><trkpt lat="47.30231980862483" lon="8.72011872824154"><ele>450.0</ele><time>2026-04-18T10:43:28Z</time></trkpt><trkpt lat="47.30240715817935" lon="8.720148542650865"><ele>450.0</ele><time>2026-04-18T10:43:29Z</time></trkpt><trkpt lat="47.30248664425799" lon="8.720184239379408"><ele>450.0</ele><time>2026-04-18T10:43:30Z</time></trkpt><trkpt lat="47.30254528310109" lon="8.720232023988139"><ele>450.0</ele><time>2026-04-18T10:43:31Z</time></trkpt><trkpt lat="47.30266888360421" lon="8.720266956666626"><ele>450.0</ele><time>2026-04-18T10:43:33Z</time></trkpt><trkpt lat="47.30271862399948" lon="8.720377538918537"><ele>450.0</ele><time>2026-04-18T10:43:35Z</time></trkpt><trkpt lat="47.30271768050207" lon="8.720479256270446"><ele>450.0</ele><time>2026-04-18T10:43:39Z</time></trkpt><trkpt lat="47.30259466799631" lon="8.720429632859904"><ele>446.0</ele><time>2026-04-18T10:43:47Z</time></trkpt><trkpt lat="47.302570222906645" lon="8.720532509567677"><ele>446.0</ele><time>2026-04-18T10:43:48Z</time></trkpt><trkpt lat="47.30254756099036" lon="8.720631831657027"><ele>446.0</ele><time>2026-04-18T10:43:50Z</time></trkpt><trkpt lat="47.302515386576076" lon="8.720726612339257"><ele>446.0</ele><time>2026-04-18T10:43:53Z</time></trkpt><trkpt lat="47.30250557002581" lon="8.72082042648504"><ele>446.0</ele><time>2026-04-18T10:43:56Z</time></trkpt></trkseg><trkseg><trkpt lat="47.30250393574769" lon="8.720883275365471"><ele>445.99999999999994</ele><time>2026-04-18T10:57:37Z</time></trkpt><trkpt lat="47.30247457036264" lon="8.720979974899949"><ele>446.0</ele><time>2026-04-18T10:57:39Z</time></trkpt><trkpt lat="47.3024381286585" lon="8.721108960118233"><ele>446.0</ele><time>2026-04-18T10:57:41Z</time></trkpt><trkpt lat="47.30241143383705" lon="8.721204719466726"><ele>446.0</ele><time>2026-04-18T10:57:42.5Z</time></trkpt><trkpt lat="47.30241448320836" lon="8.72131118434065"><ele>445.99999999999994</ele><time>2026-04-18T10:57:44Z</time></trkpt><trkpt lat="47.30239757528544" lon="8.721401703068373"><ele>446.0</ele><time>2026-04-18T10:57:45Z</time></trkpt><trkpt lat="47.30236891211608" lon="8.72152505007889"><ele>445.8333333333333</ele><time>2026-04-18T10:57:46.5Z</time></trkpt><trkpt lat="47.3023323165478" lon="8.721645074359305"><ele>445.66666666666663</ele><time>2026-04-18T10:57:48.4Z</time></trkpt><trkpt lat="47.30230875674299" lon="8.721739048886034"><ele>445.5</ele><time>2026-04-18T10:57:51.25Z</time></trkpt><trkpt lat="47.3022798347697" lon="8.721833372700365"><ele>445.33333333333337</ele><time>2026-04-18T10:57:53.15Z</time></trkpt><trkpt lat="47.302251683446514" lon="8.721960931225208"><ele>445.1666666666667</ele><time>2026-04-18T10:57:56Z</time></trkpt><trkpt lat="47.30221348522898" lon="8.722086113871809"><ele>445.0</ele><time>2026-04-18T10:57:58Z</time></trkpt><trkpt lat="47.302207176988176" lon="8.722192503052035"><ele>445.0</ele><time>2026-04-18T10:58:00Z</time></trkpt><trkpt lat="47.30206644865113" lon="8.722209458703542"><ele>445.0</ele><time>2026-04-18T10:58:03Z</time></trkpt><trkpt lat="47.30194882550367" lon="8.722179517581106"><ele>445.0</ele><time>2026-04-18T10:58:05Z</time></trkpt><trkpt lat="47.301881800544635" lon="8.722156116135888"><ele>445.0</ele><time>2026-04-18T10:58:06Z</time></trkpt><trkpt lat="47.301810758801565" lon="8.722125633460605"><ele>445.0</ele><time>2026-04-18T10:58:07Z</time></trkpt><trkpt lat="47.30173834995828" lon="8.722098788464402"><ele>445.00000000000006</ele><time>2026-04-18T10:58:08Z</time></trkpt><trkpt lat="47.30166229905473" lon="8.72207731034289"><ele>445.0</ele><time>2026-04-18T10:58:09Z</time></trkpt><trkpt lat="47.30158532370917" lon="8.722057243120522"><ele>445.0</ele><time>2026-04-18T10:58:10Z</time></trkpt><trkpt lat="47.30150909187164" lon="8.72204152586572"><ele>445.0</ele><time>2026-04-18T10:58:11Z</time></trkpt><trkpt lat="47.30143280561303" lon="8.72202686698342"><ele>445.00000000000006</ele><time>2026-04-18T10:58:12Z</time></trkpt><trkpt lat="47.30135766944814" lon="8.72200392280899"><ele>445.0</ele><time>2026-04-18T10:58:13Z</time></trkpt><trkpt lat="47.30128382211351" lon="8.721980055980099"><ele>445.2857142857143</ele><time>2026-04-18T10:58:14Z</time></trkpt><trkpt lat="47.301206895349836" lon="8.721958038597121"><ele>445.57142857142856</ele><time>2026-04-18T10:58:15Z</time></trkpt><trkpt lat="47.30113303169042" lon="8.721924416757235"><ele>445.85714285714283</ele><time>2026-04-18T10:58:16Z</time></trkpt><trkpt lat="47.30107086322557" lon="8.721867433336683"><ele>446.1428571428571</ele><time>2026-04-18T10:58:17Z</time></trkpt><trkpt lat="47.30102562813965" lon="8.721782211732203"><ele>446.42857142857144</ele><time>2026-04-18T10:58:18Z</time></trkpt><trkpt lat="47.301003946536895" lon="8.721691854728233"><ele>446.71428571428567</ele><time>2026-04-18T10:58:19Z</time></trkpt><trkpt lat="47.300969863517004" lon="8.72160694948593"><ele>447.0</ele><time>2026-04-18T10:58:21Z</time></trkpt><trkpt lat="47.30089197524764" lon="8.721682621342437"><ele>447.0</ele><time>2026-04-18T10:58:24Z</time></trkpt><trkpt lat="47.30083617777396" lon="8.721824317403172"><ele>447.0</ele><time>2026-04-18T10:58:26Z</time></trkpt><trkpt lat="47.30080233292991" lon="8.72190941086858"><ele>447.0</ele><time>2026-04-18T10:58:27Z</time></trkpt><trkpt lat="47.300746020478044" lon="8.722030272208034"><ele>447.0</ele><time>2026-04-18T10:58:29Z</time></trkpt><trkpt lat="47.30071747615645" lon="8.722127091933126"><ele>447.0</ele><time>2026-04-18T10:58:35Z</time></trkpt><trkpt lat="47.300677188989546" lon="8.722257540798777"><ele>447.0</ele><time>2026-04-18T10:58:37Z</time></trkpt><trkpt lat="47.30057057456823" lon="8.722360980072919"><ele>448.3333333333333</ele><time>2026-04-18T10:58:39Z</time></trkpt><trkpt lat="47.30049546502017" lon="8.722337690890335"><ele>449.66666666666663</ele><time>2026-04-18T10:58:40Z</time></trkpt><trkpt lat="47.300418169075016" lon="8.722364533985141"><ele>451.0</ele><time>2026-04-18T10:58:41Z</time></trkpt><trkpt lat="47.300339413776726" lon="8.722362895411505"><ele>452.3333333333333</ele><time>2026-04-18T10:58:42Z</time></trkpt><trkpt lat="47.300257278246995" lon="8.722376017499807"><ele>453.66666666666663</ele><time>2026-04-18T10:58:43Z</time></trkpt><trkpt lat="47.30017962688594" lon="8.722413268989015"><ele>455.0</ele><time>2026-04-18T10:58:44Z</time></trkpt><trkpt lat="47.30011230686712" lon="8.722478001125118"><ele>454.99999999999994</ele><time>2026-04-18T10:58:45Z</time></trkpt><trkpt lat="47.30005034067013" lon="8.722555893184866"><ele>455.0</ele><time>2026-04-18T10:58:46Z</time></trkpt><trkpt lat="47.29998839736577" lon="8.722630120773234"><ele>455.0</ele><time>2026-04-18T10:58:47Z</time></trkpt><trkpt lat="47.299925328432074" lon="8.722706518740779"><ele>455.0</ele><time>2026-04-18T10:58:48Z</time></trkpt><trkpt lat="47.29986073977054" lon="8.722776414541672"><ele>454.99999999999994</ele><time>2026-04-18T10:58:49Z</time></trkpt><trkpt lat="47.29979310580258" lon="8.722838675154145"><ele>455.0</ele><time>2026-04-18T10:58:50Z</time></trkpt><trkpt lat="47.299726025195035" lon="8.722899090715686"><ele>454.3333333333333</ele><time>2026-04-18T10:58:51Z</time></trkpt><trkpt lat="47.299660637165466" lon="8.72295941800533"><ele>453.66666666666663</ele><time>2026-04-18T10:58:52Z</time></trkpt><trkpt lat="47.299592817619406" lon="8.723020078689075"><ele>453.0</ele><time>2026-04-18T10:58:53Z</time></trkpt><trkpt lat="47.29952269721811" lon="8.723078350445276"><ele>452.33333333333337</ele><time>2026-04-18T10:58:54Z</time></trkpt><trkpt lat="47.299454686425776" lon="8.723139251207481"><ele>451.6666666666667</ele><time>2026-04-18T10:58:55Z</time></trkpt><trkpt lat="47.299388899698876" lon="8.723208304034145"><ele>451.0</ele><time>2026-04-18T10:58:56Z</time></trkpt><trkpt lat="47.299330225506964" lon="8.723285972634526"><ele>451.00000000000006</ele><time>2026-04-18T10:58:57Z</time></trkpt><trkpt lat="47.29928158676103" lon="8.723373388778988"><ele>451.0</ele><time>2026-04-18T10:58:58Z</time></trkpt><trkpt lat="47.29924548535575" lon="8.723474692884672"><ele>451.0</ele><time>2026-04-18T10:58:59Z</time></trkpt><trkpt lat="47.29921701748374" lon="8.723581030070346"><ele>451.0</ele><time>2026-04-18T10:59:00Z</time></trkpt><trkpt lat="47.299189525141834" lon="8.723675763591668"><ele>451.00000000000006</ele><time>2026-04-18T10:59:01Z</time></trkpt><trkpt lat="47.299161668792614" lon="8.723766300086119"><ele>451.0</ele><time>2026-04-18T10:59:02Z</time></trkpt><trkpt lat="47.29910938652983" lon="8.723874933258989"><ele>451.0</ele><time>2026-04-18T10:59:04Z</time></trkpt><trkpt lat="47.29907515964198" lon="8.72378954198102"><ele>451.0</ele><time>2026-04-18T10:59:07Z</time></trkpt><trkpt lat="47.299007570398125" lon="8.723680511454548"><ele>451.0</ele><time>2026-04-18T10:59:14Z</time></trkpt><trkpt lat="47.29893437498446" lon="8.723525874803773"><ele>451.0</ele><time>2026-04-18T10:59:16Z</time></trkpt><trkpt lat="47.298888143553505" lon="8.723438730302787"><ele>451.0</ele><time>2026-04-18T10:59:17Z</time></trkpt><trkpt lat="47.29883094520617" lon="8.723353940259738"><ele>453.00000000000006</ele><time>2026-04-18T10:59:18Z</time></trkpt><trkpt lat="47.29877710241923" lon="8.723268061658208"><ele>455.0</ele><time>2026-04-18T10:59:19Z</time></trkpt><trkpt lat="47.29872048384385" lon="8.72317934195217"><ele>457.0</ele><time>2026-04-18T10:59:20Z</time></trkpt><trkpt lat="47.298660955553295" lon="8.723099172886503"><ele>459.0</ele><time>2026-04-18T10:59:21Z</time></trkpt><trkpt lat="47.298603496876076" lon="8.723017152403688"><ele>461.00000000000006</ele><time>2026-04-18T10:59:22Z</time></trkpt><trkpt lat="47.29854647268224" lon="8.722933140101441"><ele>463.0</ele><time>2026-04-18T10:59:23Z</time></trkpt><trkpt lat="47.29848823721276" lon="8.722850892404647"><ele>463.00000000000006</ele><time>2026-04-18T10:59:24Z</time></trkpt><trkpt lat="47.298430699057114" lon="8.722768594312573"><ele>463.0</ele><time>2026-04-18T10:59:25Z</time></trkpt><trkpt lat="47.298373333477876" lon="8.722681108945114"><ele>463.0</ele><time>2026-04-18T10:59:26Z</time></trkpt><trkpt lat="47.298316615681465" lon="8.722594739205356"><ele>463.0</ele><time>2026-04-18T10:59:27Z</time></trkpt><trkpt lat="47.298259244989616" lon="8.722511945832078"><ele>463.00000000000006</ele><time>2026-04-18T10:59:28Z</time></trkpt><trkpt lat="47.298212530630465" lon="8.722440028724684"><ele>463.0</ele><time>2026-04-18T10:59:29Z</time></trkpt><trkpt lat="47.29812342009036" lon="8.722326577391888"><ele>464.2</ele><time>2026-04-18T10:59:31Z</time></trkpt><trkpt lat="47.29804868797553" lon="8.722229921800105"><ele>465.4</ele><time>2026-04-18T10:59:33Z</time></trkpt><trkpt lat="47.29800234202163" lon="8.722129645668714"><ele>466.59999999999997</ele><time>2026-04-18T10:59:35Z</time></trkpt><trkpt lat="47.297943465668425" lon="8.722048862439005"><ele>467.79999999999995</ele><time>2026-04-18T10:59:37Z</time></trkpt><trkpt lat="47.29787194435315" lon="8.721955501626503"><ele>469.0</ele><time>2026-04-18T10:59:39Z</time></trkpt><trkpt lat="47.297792268091584" lon="8.721853318036986"><ele>467.2857142857143</ele><time>2026-04-18T10:59:41Z</time></trkpt><trkpt lat="47.29773485125669" lon="8.721811912916854"><ele>465.57142857142856</ele><time>2026-04-18T10:59:42Z</time></trkpt><trkpt lat="47.29769643541773" lon="8.72173041398146"><ele>463.8571428571429</ele><time>2026-04-18T10:59:43Z</time></trkpt><trkpt lat="47.29763850897279" lon="8.721687088945458"><ele>462.14285714285717</ele><time>2026-04-18T10:59:44Z</time></trkpt><trkpt lat="47.297592399583486" lon="8.721620225172995"><ele>460.42857142857144</ele><time>2026-04-18T10:59:45Z</time></trkpt><trkpt lat="47.29754222902163" lon="8.721554737899323"><ele>458.7142857142858</ele><time>2026-04-18T10:59:46Z</time></trkpt><trkpt lat="47.29749277669647" lon="8.721488402579933"><ele>457.00000000000006</ele><time>2026-04-18T10:59:47Z</time></trkpt><trkpt lat="47.29744337855259" lon="8.72141698339237"><ele>457.00000000000006</ele><time>2026-04-18T10:59:48Z</time></trkpt><trkpt lat="47.29739132660551" lon="8.721347331845672"><ele>457.0</ele><time>2026-04-18T10:59:49Z</time></trkpt><trkpt lat="47.29733623156097" lon="8.721275322667063"><ele>457.00000000000006</ele><time>2026-04-18T10:59:50Z</time></trkpt><trkpt lat="47.29727975757117" lon="8.721199998576408"><ele>457.00000000000006</ele><time>2026-04-18T10:59:51Z</time></trkpt><trkpt lat="47.297221475237365" lon="8.721125647741607"><ele>457.0</ele><time>2026-04-18T10:59:52Z</time></trkpt><trkpt lat="47.29716656964579" lon="8.721053556212818"><ele>457.00000000000006</ele><time>2026-04-18T10:59:53Z</time></trkpt><trkpt lat="47.29710928491649" lon="8.720979657189876"><ele>457.00000000000006</ele><time>2026-04-18T10:59:54Z</time></trkpt><trkpt lat="47.29705381301581" lon="8.720905828825984"><ele>457.1666666666667</ele><time>2026-04-18T10:59:55Z</time></trkpt><trkpt lat="47.29699442073263" lon="8.720830110784226"><ele>457.33333333333337</ele><time>2026-04-18T10:59:56Z</time></trkpt><trkpt lat="47.296931449890685" lon="8.720760172964445"><ele>457.5</ele><time>2026-04-18T10:59:57Z</time></trkpt><trkpt lat="47.29686472005456" lon="8.72069077259869"><ele>457.66666666666663</ele><time>2026-04-18T10:59:58Z</time></trkpt><trkpt lat="47.29680234486209" lon="8.720621252343847"><ele>457.8333333333333</ele><time>2026-04-18T10:59:59Z</time></trkpt><trkpt lat="47.29674228673529" lon="8.720563608689213"><ele>458.0</ele><time>2026-04-18T11:00:00Z</time></trkpt><trkpt lat="47.29666977603304" lon="8.720468721157966"><ele>457.99999999999994</ele><time>2026-04-18T11:00:02Z</time></trkpt><trkpt lat="47.296609870823666" lon="8.720419342041435"><ele>458.0</ele><time>2026-04-18T11:00:04Z</time></trkpt><trkpt lat="47.29652303904464" lon="8.720363974558879"><ele>458.0</ele><time>2026-04-18T11:00:06Z</time></trkpt><trkpt lat="47.296412069628595" lon="8.720286548179926"><ele>458.0</ele><time>2026-04-18T11:00:08Z</time></trkpt><trkpt lat="47.29635089797761" lon="8.720244348446148"><ele>457.99999999999994</ele><time>2026-04-18T11:00:09Z</time></trkpt><trkpt lat="47.29628456603667" lon="8.720203047803825"><ele>458.0</ele><time>2026-04-18T11:00:10Z</time></trkpt><trkpt lat="47.2962151127599" lon="8.720158364276829"><ele>458.49999999999994</ele><time>2026-04-18T11:00:11Z</time></trkpt><trkpt lat="47.296140969571" lon="8.72011243729545"><ele>459.0</ele><time>2026-04-18T11:00:12Z</time></trkpt><trkpt lat="47.296066896857724" lon="8.720056356541347"><ele>459.5</ele><time>2026-04-18T11:00:13Z</time></trkpt><trkpt lat="47.29600838200516" lon="8.719973742348934"><ele>460.0</ele><time>2026-04-18T11:00:14Z</time></trkpt><trkpt lat="47.29594306232779" lon="8.71990984919989"><ele>460.49999999999994</ele><time>2026-04-18T11:00:15Z</time></trkpt><trkpt lat="47.295876781444434" lon="8.719847103855445"><ele>461.0</ele><time>2026-04-18T11:00:16Z</time></trkpt><trkpt lat="47.29580471999976" lon="8.719804952251994"><ele>461.0</ele><time>2026-04-18T11:00:17Z</time></trkpt><trkpt lat="47.29574345027743" lon="8.719743102928376"><ele>461.00000000000006</ele><time>2026-04-18T11:00:18Z</time></trkpt><trkpt lat="47.29568448247455" lon="8.719684096935698"><ele>461.0</ele><time>2026-04-18T11:00:19Z</time></trkpt><trkpt lat="47.29562890966113" lon="8.719620958110031"><ele>461.0</ele><time>2026-04-18T11:00:20Z</time></trkpt><trkpt lat="47.29557774945914" lon="8.719554524908736"><ele>461.00000000000006</ele><time>2026-04-18T11:00:21Z</time></trkpt><trkpt lat="47.29554645035737" lon="8.719465149393935"><ele>461.0</ele><time>2026-04-18T11:00:22Z</time></trkpt><trkpt lat="47.29550129247645" lon="8.719395806900739"><ele>461.0</ele><time>2026-04-18T11:00:23Z</time></trkpt><trkpt lat="47.29550212163638" lon="8.719290093521819"><ele>460.8333333333333</ele><time>2026-04-18T11:00:24Z</time></trkpt><trkpt lat="47.29553802934747" lon="8.71921088184215"><ele>460.66666666666663</ele><time>2026-04-18T11:00:25Z</time></trkpt><trkpt lat="47.29560407986604" lon="8.719062231460356"><ele>460.5</ele><time>2026-04-18T11:00:27Z</time></trkpt><trkpt lat="47.29564288409266" lon="8.718988129141444"><ele>460.33333333333337</ele><time>2026-04-18T11:00:28Z</time></trkpt><trkpt lat="47.295669371449854" lon="8.718900257272619"><ele>460.1666666666667</ele><time>2026-04-18T11:00:29Z</time></trkpt><trkpt lat="47.29575675019599" lon="8.718767898155566"><ele>460.0</ele><time>2026-04-18T11:00:31Z</time></trkpt><trkpt lat="47.29583937710276" lon="8.718625446025136"><ele>461.1428571428571</ele><time>2026-04-18T11:00:33Z</time></trkpt><trkpt lat="47.29588278931238" lon="8.7185506643839"><ele>462.2857142857143</ele><time>2026-04-18T11:00:34Z</time></trkpt><trkpt lat="47.29592596047471" lon="8.718475497944702"><ele>463.42857142857144</ele><time>2026-04-18T11:00:35Z</time></trkpt><trkpt lat="47.29596925808775" lon="8.71839648118452"><ele>464.57142857142856</ele><time>2026-04-18T11:00:36Z</time></trkpt><trkpt lat="47.296011135119095" lon="8.718315835619757"><ele>465.7142857142858</ele><time>2026-04-18T11:00:37Z</time></trkpt><trkpt lat="47.29605324135189" lon="8.718236097433266"><ele>466.8571428571429</ele><time>2026-04-18T11:00:38Z</time></trkpt><trkpt lat="47.296097950103224" lon="8.71816227022146"><ele>468.0</ele><time>2026-04-18T11:00:39Z</time></trkpt><trkpt lat="47.296168655293606" lon="8.718035598102926"><ele>468.0</ele><time>2026-04-18T11:00:41Z</time></trkpt><trkpt lat="47.29622066671647" lon="8.717949435561035"><ele>468.0</ele><time>2026-04-18T11:00:43Z</time></trkpt><trkpt lat="47.29626337413236" lon="8.717866305683431"><ele>468.0</ele><time>2026-04-18T11:00:59Z</time></trkpt><trkpt lat="47.296263215618836" lon="8.717733418529022"><ele>468.0</ele><time>2026-04-18T11:01:01Z</time></trkpt><trkpt lat="47.296166979697894" lon="8.717608697904348"><ele>468.0</ele><time>2026-04-18T11:01:03Z</time></trkpt><trkpt lat="47.296111425138704" lon="8.717546237060288"><ele>468.0</ele><time>2026-04-18T11:01:04Z</time></trkpt><trkpt lat="47.29605792230116" lon="8.717479935643581"><ele>467.8333333333333</ele><time>2026-04-18T11:01:05Z</time></trkpt><trkpt lat="47.29597557437714" lon="8.71744920604021"><ele>467.66666666666663</ele><time>2026-04-18T11:01:06Z</time></trkpt><trkpt lat="47.29591424448589" lon="8.717376115244793"><ele>467.5</ele><time>2026-04-18T11:01:07Z</time></trkpt><trkpt lat="47.295851912182954" lon="8.71730182973855"><ele>467.3333333333333</ele><time>2026-04-18T11:01:08Z</time></trkpt><trkpt lat="47.29579288673124" lon="8.717223291337886"><ele>467.16666666666663</ele><time>2026-04-18T11:01:09Z</time></trkpt><trkpt lat="47.29572229130531" lon="8.717160557927281"><ele>467.0</ele><time>2026-04-18T11:01:10Z</time></trkpt><trkpt lat="47.29565626572577" lon="8.717089958248085"><ele>466.99999999999994</ele><time>2026-04-18T11:01:11Z</time></trkpt><trkpt lat="47.29559269577311" lon="8.717013534194777"><ele>467.0</ele><time>2026-04-18T11:01:12Z</time></trkpt><trkpt lat="47.29552726600561" lon="8.716941255081064"><ele>467.0</ele><time>2026-04-18T11:01:13Z</time></trkpt><trkpt lat="47.29546079461678" lon="8.716870338132848"><ele>467.0</ele><time>2026-04-18T11:01:14Z</time></trkpt><trkpt lat="47.295396340923745" lon="8.716797228758221"><ele>466.99999999999994</ele><time>2026-04-18T11:01:15Z</time></trkpt><trkpt lat="47.29532922591767" lon="8.716727476111293"><ele>467.0</ele><time>2026-04-18T11:01:16Z</time></trkpt><trkpt lat="47.295258076812175" lon="8.716665761153534"><ele>466.66666666666663</ele><time>2026-04-18T11:01:17Z</time></trkpt><trkpt lat="47.29518508529748" lon="8.716609690243343"><ele>466.3333333333333</ele><time>2026-04-18T11:01:18Z</time></trkpt><trkpt lat="47.29511188369077" lon="8.716552465192626"><ele>466.0</ele><time>2026-04-18T11:01:19Z</time></trkpt><trkpt lat="47.295039577983644" lon="8.716494266921599"><ele>465.66666666666663</ele><time>2026-04-18T11:01:20Z</time></trkpt><trkpt lat="47.29496783008496" lon="8.716434758915232"><ele>465.3333333333333</ele><time>2026-04-18T11:01:21Z</time></trkpt><trkpt lat="47.29489624805117" lon="8.716374412986541"><ele>465.0</ele><time>2026-04-18T11:01:22Z</time></trkpt><trkpt lat="47.29482412784839" lon="8.716317669363464"><ele>465.3333333333333</ele><time>2026-04-18T11:01:23Z</time></trkpt><trkpt lat="47.29475222952638" lon="8.716260381263583"><ele>465.66666666666663</ele><time>2026-04-18T11:01:24Z</time></trkpt><trkpt lat="47.29468197069821" lon="8.716198856182217"><ele>466.0</ele><time>2026-04-18T11:01:25Z</time></trkpt><trkpt lat="47.29461127071413" lon="8.716140049207162"><ele>466.3333333333333</ele><time>2026-04-18T11:01:26Z</time></trkpt><trkpt lat="47.294538858234354" lon="8.716083714107064"><ele>466.66666666666663</ele><time>2026-04-18T11:01:27Z</time></trkpt><trkpt lat="47.29445445210031" lon="8.716060321233838"><ele>467.0</ele><time>2026-04-18T11:01:28Z</time></trkpt><trkpt lat="47.294380727166654" lon="8.716000860954622"><ele>467.49999999999994</ele><time>2026-04-18T11:01:29Z</time></trkpt><trkpt lat="47.29430972666098" lon="8.71594258905637"><ele>468.0</ele><time>2026-04-18T11:01:30Z</time></trkpt><trkpt lat="47.294237799230984" lon="8.715888871276812"><ele>468.5</ele><time>2026-04-18T11:01:31Z</time></trkpt><trkpt lat="47.294163545103906" lon="8.715836711534935"><ele>469.0</ele><time>2026-04-18T11:01:32Z</time></trkpt><trkpt lat="47.29408943252533" lon="8.715782955191946"><ele>469.49999999999994</ele><time>2026-04-18T11:01:33Z</time></trkpt><trkpt lat="47.29401624851644" lon="8.715728960395035"><ele>470.0</ele><time>2026-04-18T11:01:34Z</time></trkpt><trkpt lat="47.293942731473294" lon="8.715670847254193"><ele>470.3333333333333</ele><time>2026-04-18T11:01:35Z</time></trkpt><trkpt lat="47.29387060508307" lon="8.715612346641791"><ele>470.66666666666663</ele><time>2026-04-18T11:01:36Z</time></trkpt><trkpt lat="47.29379887493121" lon="8.71555204030343"><ele>471.0</ele><time>2026-04-18T11:01:37Z</time></trkpt><trkpt lat="47.2937272643177" lon="8.715489693492504"><ele>471.33333333333337</ele><time>2026-04-18T11:01:38Z</time></trkpt><trkpt lat="47.29365719087818" lon="8.71542695882273"><ele>471.6666666666667</ele><time>2026-04-18T11:01:39Z</time></trkpt><trkpt lat="47.29358775652488" lon="8.715362667841333"><ele>472.0</ele><time>2026-04-18T11:01:40Z</time></trkpt><trkpt lat="47.29351792872957" lon="8.715299955325204"><ele>472.00000000000006</ele><time>2026-04-18T11:01:41Z</time></trkpt><trkpt lat="47.293447435326755" lon="8.715238865416355"><ele>472.0</ele><time>2026-04-18T11:01:42Z</time></trkpt><trkpt lat="47.29337659359458" lon="8.715181963104813"><ele>472.0</ele><time>2026-04-18T11:01:43Z</time></trkpt><trkpt lat="47.29330397452117" lon="8.715125714558889"><ele>472.0</ele><time>2026-04-18T11:01:44Z</time></trkpt><trkpt lat="47.293229785734674" lon="8.715068446868978"><ele>472.00000000000006</ele><time>2026-04-18T11:01:45Z</time></trkpt><trkpt lat="47.293157777581335" lon="8.715009542220299"><ele>472.0</ele><time>2026-04-18T11:01:46Z</time></trkpt><trkpt lat="47.29308681789962" lon="8.714950838399918"><ele>472.6666666666667</ele><time>2026-04-18T11:01:47Z</time></trkpt><trkpt lat="47.293012311002954" lon="8.714888922436161"><ele>473.33333333333337</ele><time>2026-04-18T11:01:48Z</time></trkpt><trkpt lat="47.29294077209391" lon="8.714829931368698"><ele>474.0</ele><time>2026-04-18T11:01:49Z</time></trkpt><trkpt lat="47.292869642144666" lon="8.71477182875912"><ele>474.66666666666663</ele><time>2026-04-18T11:01:50Z</time></trkpt><trkpt lat="47.29279662429746" lon="8.71471631400093"><ele>475.3333333333333</ele><time>2026-04-18T11:01:51Z</time></trkpt><trkpt lat="47.29272264538108" lon="8.714662461062602"><ele>476.0</ele><time>2026-04-18T11:01:52Z</time></trkpt><trkpt lat="47.292648546049776" lon="8.714603992298871"><ele>475.99999999999994</ele><time>2026-04-18T11:01:53Z</time></trkpt><trkpt lat="47.29257720848584" lon="8.714539563858766"><ele>476.0</ele><time>2026-04-18T11:01:54Z</time></trkpt><trkpt lat="47.29250851414293" lon="8.714469706383"><ele>476.0</ele><time>2026-04-18T11:01:55Z</time></trkpt><trkpt lat="47.29243953648907" lon="8.714391189221683"><ele>476.0</ele><time>2026-04-18T11:01:56Z</time></trkpt><trkpt lat="47.292375069865734" lon="8.714311533777494"><ele>475.99999999999994</ele><time>2026-04-18T11:01:57Z</time></trkpt><trkpt lat="47.29231418294469" lon="8.714229122098795"><ele>476.0</ele><time>2026-04-18T11:01:58Z</time></trkpt><trkpt lat="47.292264344649055" lon="8.714129817164958"><ele>476.16666666666663</ele><time>2026-04-18T11:01:59Z</time></trkpt><trkpt lat="47.29219327788614" lon="8.714060380560886"><ele>476.3333333333333</ele><time>2026-04-18T11:02:00Z</time></trkpt><trkpt lat="47.29213065193518" lon="8.713978036676718"><ele>476.5</ele><time>2026-04-18T11:02:01Z</time></trkpt><trkpt lat="47.29206800054557" lon="8.71389777252343"><ele>476.66666666666663</ele><time>2026-04-18T11:02:02Z</time></trkpt><trkpt lat="47.292003306637035" lon="8.713821978501379"><ele>476.8333333333333</ele><time>2026-04-18T11:02:03Z</time></trkpt><trkpt lat="47.29193559827712" lon="8.713749848076713"><ele>477.0</ele><time>2026-04-18T11:02:04Z</time></trkpt><trkpt lat="47.2918674980979" lon="8.713680468938483"><ele>477.0</ele><time>2026-04-18T11:02:05Z</time></trkpt><trkpt lat="47.291798298785395" lon="8.713613117585597"><ele>477.0</ele><time>2026-04-18T11:02:06Z</time></trkpt><trkpt lat="47.291728222183714" lon="8.713547766855879"><ele>477.0</ele><time>2026-04-18T11:02:07Z</time></trkpt><trkpt lat="47.291656444845216" lon="8.713481819150088"><ele>477.0</ele><time>2026-04-18T11:02:08Z</time></trkpt><trkpt lat="47.29158412338578" lon="8.713420326267688"><ele>477.0</ele><time>2026-04-18T11:02:09Z</time></trkpt><trkpt lat="47.29150769330045" lon="8.713369816628326"><ele>477.0</ele><time>2026-04-18T11:02:10Z</time></trkpt><trkpt lat="47.29142826904869" lon="8.71332797807428"><ele>476.8333333333333</ele><time>2026-04-18T11:02:11Z</time></trkpt><trkpt lat="47.291347881740265" lon="8.713290208845354"><ele>476.66666666666663</ele><time>2026-04-18T11:02:12Z</time></trkpt><trkpt lat="47.29126602244005" lon="8.71325463244811"><ele>476.5</ele><time>2026-04-18T11:02:13Z</time></trkpt><trkpt lat="47.29118405703047" lon="8.713220918145478"><ele>476.3333333333333</ele><time>2026-04-18T11:02:14Z</time></trkpt><trkpt lat="47.291107000730314" lon="8.713191076104053"><ele>476.16666666666663</ele><time>2026-04-18T11:02:15Z</time></trkpt><trkpt lat="47.2910441820673" lon="8.713167967340095"><ele>476.0</ele><time>2026-04-18T11:02:16Z</time></trkpt><trkpt lat="47.2909773038733" lon="8.713146040290953"><ele>475.99999999999994</ele><time>2026-04-18T11:02:18Z</time></trkpt><trkpt lat="47.29088696522856" lon="8.713116788863754"><ele>476.0</ele><time>2026-04-18T11:02:27Z</time></trkpt><trkpt lat="47.29078073710903" lon="8.713088974576195"><ele>476.0</ele><time>2026-04-18T11:02:29Z</time></trkpt><trkpt lat="47.29071583792033" lon="8.713076113838541"><ele>476.0</ele><time>2026-04-18T11:02:30Z</time></trkpt><trkpt lat="47.2906438097589" lon="8.713065084272696"><ele>475.99999999999994</ele><time>2026-04-18T11:02:31Z</time></trkpt><trkpt lat="47.290564968295236" lon="8.713052403454654"><ele>476.0</ele><time>2026-04-18T11:02:32Z</time></trkpt><trkpt lat="47.29048496959283" lon="8.713039536530568"><ele>475.99999999999994</ele><time>2026-04-18T11:02:33Z</time></trkpt><trkpt lat="47.29040298509199" lon="8.713027255350363"><ele>476.0</ele><time>2026-04-18T11:02:34Z</time></trkpt><trkpt lat="47.290318306217536" lon="8.712981882456882"><ele>476.0</ele><time>2026-04-18T11:02:35Z</time></trkpt><trkpt lat="47.29023494891061" lon="8.712959309075284"><ele>476.0</ele><time>2026-04-18T11:02:36Z</time></trkpt><trkpt lat="47.29014991327232" lon="8.712935678383602"><ele>475.99999999999994</ele><time>2026-04-18T11:02:37Z</time></trkpt><trkpt lat="47.290064833197334" lon="8.71291119603509"><ele>476.0</ele><time>2026-04-18T11:02:38Z</time></trkpt><trkpt lat="47.28998014670056" lon="8.712886826896508"><ele>475.99999999999994</ele><time>2026-04-18T11:02:39Z</time></trkpt><trkpt lat="47.28989414294218" lon="8.7128602215724"><ele>476.0</ele><time>2026-04-18T11:02:40Z</time></trkpt><trkpt lat="47.28980840596866" lon="8.712833220773655"><ele>476.0</ele><time>2026-04-18T11:02:41Z</time></trkpt><trkpt lat="47.289727763848596" lon="8.712799416520078"><ele>476.0</ele><time>2026-04-18T11:02:42Z</time></trkpt><trkpt lat="47.289641329176625" lon="8.712799957942599"><ele>475.99999999999994</ele><time>2026-04-18T11:02:43Z</time></trkpt><trkpt lat="47.289558934443136" lon="8.71276959769964"><ele>476.0</ele><time>2026-04-18T11:02:44Z</time></trkpt><trkpt lat="47.289477607708804" lon="8.712733072567985"><ele>476.66666666666663</ele><time>2026-04-18T11:02:45Z</time></trkpt><trkpt lat="47.28939712763829" lon="8.712706136414718"><ele>477.3333333333333</ele><time>2026-04-18T11:02:46Z</time></trkpt><trkpt lat="47.289317807537756" lon="8.712676424107817"><ele>478.0</ele><time>2026-04-18T11:02:47Z</time></trkpt><trkpt lat="47.28924156463777" lon="8.712632346613374"><ele>478.66666666666663</ele><time>2026-04-18T11:02:48Z</time></trkpt><trkpt lat="47.28916735677157" lon="8.71259566076394"><ele>479.3333333333333</ele><time>2026-04-18T11:02:49Z</time></trkpt><trkpt lat="47.28909786844077" lon="8.712567743790743"><ele>480.0</ele><time>2026-04-18T11:02:50Z</time></trkpt><trkpt lat="47.28903428880203" lon="8.712541785237535"><ele>480.0</ele><time>2026-04-18T11:02:51Z</time></trkpt><trkpt lat="47.28896261463178" lon="8.71251026252658"><ele>480.0</ele><time>2026-04-18T11:02:53Z</time></trkpt><trkpt lat="47.28888396812858" lon="8.71247523612202"><ele>480.0</ele><time>2026-04-18T11:02:55Z</time></trkpt><trkpt lat="47.288784372027415" lon="8.7124165659176"><ele>480.0</ele><time>2026-04-18T11:02:57Z</time></trkpt><trkpt lat="47.28872121170681" lon="8.712381341888733"><ele>480.0</ele><time>2026-04-18T11:02:58Z</time></trkpt><trkpt lat="47.28865218093555" lon="8.712348184832814"><ele>480.0</ele><time>2026-04-18T11:02:59Z</time></trkpt><trkpt lat="47.28858109233932" lon="8.712319238151423"><ele>480.0</ele><time>2026-04-18T11:03:00Z</time></trkpt><trkpt lat="47.288513540736034" lon="8.71226482481081"><ele>480.0</ele><time>2026-04-18T11:03:01Z</time></trkpt><trkpt lat="47.28844054123797" lon="8.712227661751095"><ele>480.0</ele><time>2026-04-18T11:03:02Z</time></trkpt><trkpt lat="47.288368117686886" lon="8.712189106692238"><ele>480.0</ele><time>2026-04-18T11:03:03Z</time></trkpt><trkpt lat="47.288291887803666" lon="8.712151742602638"><ele>480.0</ele><time>2026-04-18T11:03:04Z</time></trkpt><trkpt lat="47.28822339128538" lon="8.712118183665815"><ele>480.0</ele><time>2026-04-18T11:03:05Z</time></trkpt><trkpt lat="47.288151785132726" lon="8.712083721430401"><ele>480.5</ele><time>2026-04-18T11:03:06Z</time></trkpt><trkpt lat="47.288080908351056" lon="8.712050744401065"><ele>481.0</ele><time>2026-04-18T11:03:07Z</time></trkpt><trkpt lat="47.28801059254399" lon="8.712018320504319"><ele>481.5</ele><time>2026-04-18T11:03:08Z</time></trkpt><trkpt lat="47.28793608982059" lon="8.711983966014687"><ele>482.0</ele><time>2026-04-18T11:03:09Z</time></trkpt><trkpt lat="47.28785833360957" lon="8.71194811110896"><ele>482.5</ele><time>2026-04-18T11:03:10Z</time></trkpt><trkpt lat="47.28778178204653" lon="8.71191118377736"><ele>483.0</ele><time>2026-04-18T11:03:11Z</time></trkpt><trkpt lat="47.287707074280995" lon="8.711874783891995"><ele>483.0</ele><time>2026-04-18T11:03:12Z</time></trkpt><trkpt lat="47.2876248488141" lon="8.711851297333906"><ele>483.0</ele><time>2026-04-18T11:03:13Z</time></trkpt><trkpt lat="47.28754900420699" lon="8.711801523577838"><ele>483.0</ele><time>2026-04-18T11:03:14Z</time></trkpt><trkpt lat="47.28747295836149" lon="8.711744186120779"><ele>483.0</ele><time>2026-04-18T11:03:15Z</time></trkpt><trkpt lat="47.2873968360606" lon="8.711699415615108"><ele>483.0</ele><time>2026-04-18T11:03:16Z</time></trkpt><trkpt lat="47.28732007842836" lon="8.71165768816584"><ele>483.0</ele><time>2026-04-18T11:03:17Z</time></trkpt><trkpt lat="47.28724775208249" lon="8.7116108583926"><ele>483.1666666666667</ele><time>2026-04-18T11:03:18Z</time></trkpt><trkpt lat="47.28719278190078" lon="8.711564140581366"><ele>483.33333333333337</ele><time>2026-04-18T11:03:19Z</time></trkpt><trkpt lat="47.287155071731625" lon="8.711400549445509"><ele>483.5</ele><time>2026-04-18T11:03:21Z</time></trkpt><trkpt lat="47.28714845419288" lon="8.711305824570276"><ele>483.6666666666667</ele><time>2026-04-18T11:03:22Z</time></trkpt><trkpt lat="47.28714670284765" lon="8.711206194434926"><ele>483.83333333333337</ele><time>2026-04-18T11:03:23Z</time></trkpt><trkpt lat="47.28714177088433" lon="8.711098418798294"><ele>484.0</ele><time>2026-04-18T11:03:24Z</time></trkpt><trkpt lat="47.28715625496828" lon="8.710995670167287"><ele>483.79999999999995</ele><time>2026-04-18T11:03:25Z</time></trkpt><trkpt lat="47.28718245306039" lon="8.710843077922746"><ele>483.59999999999997</ele><time>2026-04-18T11:03:27Z</time></trkpt><trkpt lat="47.28720321431124" lon="8.710750798530594"><ele>483.4</ele><time>2026-04-18T11:03:29Z</time></trkpt><trkpt lat="47.28723419253514" lon="8.710631562835532"><ele>483.2</ele><time>2026-04-18T11:03:32Z</time></trkpt><trkpt lat="47.287357171340204" lon="8.710692637638394"><ele>483.0</ele><time>2026-04-18T11:03:33Z</time></trkpt><trkpt lat="47.28743507313008" lon="8.710730415501105"><ele>483.0</ele><time>2026-04-18T11:03:35Z</time></trkpt><trkpt lat="47.287497054684756" lon="8.710711507955352"><ele>483.0</ele><time>2026-04-18T11:03:38Z</time></trkpt><trkpt lat="47.28758731551625" lon="8.71072004663617"><ele>483.0</ele><time>2026-04-18T11:03:43Z</time></trkpt><trkpt lat="47.28768060925226" lon="8.710748051459452"><ele>483.0</ele><time>2026-04-18T11:03:45Z</time></trkpt><trkpt lat="47.287744360423865" lon="8.710806962193105"><ele>483.0</ele><time>2026-04-18T11:03:47Z</time></trkpt><trkpt lat="47.287757527633595" lon="8.710917304505067"><ele>483.0</ele><time>2026-04-18T11:03:50Z</time></trkpt><trkpt lat="47.287708561381905" lon="8.710976521141253"><ele>483.0</ele><time>2026-04-18T11:03:54Z</time></trkpt><trkpt lat="47.28780064947324" lon="8.710850092186767"><ele>482.99999999999994</ele><time>2026-04-18T11:08:19Z</time></trkpt><trkpt lat="47.287744568545826" lon="8.710757433142753"><ele>482.99999999999994</ele><time>2026-04-18T11:08:22Z</time></trkpt><trkpt lat="47.28767118128741" lon="8.710673828322495"><ele>483.0</ele><time>2026-04-18T11:08:24Z</time></trkpt><trkpt lat="47.287621729313265" lon="8.710535776303228"><ele>483.0</ele><time>2026-04-18T11:08:26Z</time></trkpt><trkpt lat="47.2875163767597" lon="8.710521496165683"><ele>483.0</ele><time>2026-04-18T11:08:28Z</time></trkpt><trkpt lat="47.287452334839" lon="8.710559100446842"><ele>482.99999999999994</ele><time>2026-04-18T11:08:29Z</time></trkpt><trkpt lat="47.28736022134877" lon="8.710578730432086"><ele>482.99999999999994</ele><time>2026-04-18T11:08:31Z</time></trkpt><trkpt lat="47.28728389619535" lon="8.710569221242814"><ele>483.0</ele><time>2026-04-18T11:08:34Z</time></trkpt><trkpt lat="47.28719337794235" lon="8.710614984007236"><ele>483.0</ele><time>2026-04-18T11:08:36Z</time></trkpt><trkpt lat="47.28711641782688" lon="8.710760496516263"><ele>483.1666666666667</ele><time>2026-04-18T11:08:38Z</time></trkpt><trkpt lat="47.28710794968896" lon="8.71086735068864"><ele>483.33333333333337</ele><time>2026-04-18T11:08:39Z</time></trkpt><trkpt lat="47.28709072448541" lon="8.710976097539564"><ele>483.5</ele><time>2026-04-18T11:08:40Z</time></trkpt><trkpt lat="47.28706465680428" lon="8.711085698137023"><ele>483.6666666666667</ele><time>2026-04-18T11:08:41Z</time></trkpt><trkpt lat="47.2870544041424" lon="8.711187175457443"><ele>483.83333333333337</ele><time>2026-04-18T11:08:42Z</time></trkpt><trkpt lat="47.28703450501161" lon="8.711330212887969"><ele>484.0</ele><time>2026-04-18T11:08:44Z</time></trkpt><trkpt lat="47.286998769117446" lon="8.711448654457833"><ele>484.00000000000006</ele><time>2026-04-18T11:08:48Z</time></trkpt><trkpt lat="47.28693711998345" lon="8.71158107681246"><ele>484.0</ele><time>2026-04-18T11:08:50Z</time></trkpt><trkpt lat="47.28694598673728" lon="8.711702658690541"><ele>484.0</ele><time>2026-04-18T11:08:51Z</time></trkpt><trkpt lat="47.28696217769296" lon="8.711819252076179"><ele>484.0</ele><time>2026-04-18T11:08:52Z</time></trkpt><trkpt lat="47.286960930712155" lon="8.71193688589236"><ele>484.00000000000006</ele><time>2026-04-18T11:08:53Z</time></trkpt><trkpt lat="47.28694349409572" lon="8.712046040577242"><ele>484.0</ele><time>2026-04-18T11:08:54Z</time></trkpt><trkpt lat="47.28691541693964" lon="8.712146674307618"><ele>484.1428571428571</ele><time>2026-04-18T11:08:55Z</time></trkpt><trkpt lat="47.2869079795925" lon="8.712250857344888"><ele>484.2857142857142</ele><time>2026-04-18T11:08:56Z</time></trkpt><trkpt lat="47.28691172020083" lon="8.712356374704632"><ele>484.42857142857144</ele><time>2026-04-18T11:08:57Z</time></trkpt><trkpt lat="47.28693125233046" lon="8.71245673223281"><ele>484.57142857142856</ele><time>2026-04-18T11:08:58Z</time></trkpt><trkpt lat="47.28694395737224" lon="8.712557164054747"><ele>484.7142857142857</ele><time>2026-04-18T11:08:59Z</time></trkpt><trkpt lat="47.2869656869722" lon="8.712658278560738"><ele>484.8571428571429</ele><time>2026-04-18T11:09:00Z</time></trkpt><trkpt lat="47.286976775867885" lon="8.712762533357719"><ele>485.00000000000006</ele><time>2026-04-18T11:09:01Z</time></trkpt><trkpt lat="47.28698249310138" lon="8.712857358906723"><ele>485.0</ele><time>2026-04-18T11:09:02Z</time></trkpt><trkpt lat="47.28705495277986" lon="8.71301448826024"><ele>485.0</ele><time>2026-04-18T11:09:04Z</time></trkpt><trkpt lat="47.28712692037339" lon="8.713079317864045"><ele>485.0</ele><time>2026-04-18T11:09:05Z</time></trkpt><trkpt lat="47.28720179356613" lon="8.713132131350172"><ele>485.0</ele><time>2026-04-18T11:09:06Z</time></trkpt><trkpt lat="47.28725092864605" lon="8.713275115124386"><ele>485.0</ele><time>2026-04-18T11:09:08Z</time></trkpt><trkpt lat="47.28717761257059" lon="8.713345438760724"><ele>485.0</ele><time>2026-04-18T11:09:11Z</time></trkpt><trkpt lat="47.2870740307014" lon="8.713375460208658"><ele>485.0</ele><time>2026-04-18T11:09:13Z</time></trkpt><trkpt lat="47.28699388230393" lon="8.713381979478212"><ele>485.0</ele><time>2026-04-18T11:09:15Z</time></trkpt><trkpt lat="47.28696164523748" lon="8.713275862119668"><ele>485.0</ele><time>2026-04-18T11:09:40Z</time></trkpt><trkpt lat="47.28685423636999" lon="8.713477037549248"><ele>485.0</ele><time>2026-04-18T11:19:05Z</time></trkpt><trkpt lat="47.28678613533242" lon="8.713528857144814"><ele>484.99999999999994</ele><time>2026-04-18T11:19:06Z</time></trkpt><trkpt lat="47.28670705861389" lon="8.71355246944059"><ele>485.0</ele><time>2026-04-18T11:19:07Z</time></trkpt><trkpt lat="47.28663872870054" lon="8.713606739395559"><ele>485.0</ele><time>2026-04-18T11:19:08Z</time></trkpt><trkpt lat="47.286572022672416" lon="8.713665514393394"><ele>485.0</ele><time>2026-04-18T11:19:09Z</time></trkpt><trkpt lat="47.286517831424774" lon="8.71373796266554"><ele>484.99999999999994</ele><time>2026-04-18T11:19:10Z</time></trkpt><trkpt lat="47.28645500411317" lon="8.713797932197334"><ele>485.0</ele><time>2026-04-18T11:19:11Z</time></trkpt><trkpt lat="47.28637702320047" lon="8.71387707236552"><ele>485.6</ele><time>2026-04-18T11:20:43Z</time></trkpt><trkpt lat="47.2863033515783" lon="8.713947436487755"><ele>486.2</ele><time>2026-04-18T11:20:45Z</time></trkpt><trkpt lat="47.2862110842502" lon="8.714037376517632"><ele>486.79999999999995</ele><time>2026-04-18T11:20:47Z</time></trkpt><trkpt lat="47.286110074792234" lon="8.714140464788482"><ele>487.4</ele><time>2026-04-18T11:20:49Z</time></trkpt><trkpt lat="47.28605665188526" lon="8.714194054171047"><ele>488.0</ele><time>2026-04-18T11:20:50Z</time></trkpt><trkpt lat="47.285995639388446" lon="8.714234590264898"><ele>487.99999999999994</ele><time>2026-04-18T11:20:51Z</time></trkpt><trkpt lat="47.285926623473934" lon="8.714240560709259"><ele>488.0</ele><time>2026-04-18T11:20:52Z</time></trkpt><trkpt lat="47.28586356105783" lon="8.714267227809465"><ele>487.99999999999994</ele><time>2026-04-18T11:20:53Z</time></trkpt><trkpt lat="47.28579865632712" lon="8.714292757981237"><ele>487.99999999999994</ele><time>2026-04-18T11:20:54Z</time></trkpt><trkpt lat="47.285734988494106" lon="8.714324975291918"><ele>488.0</ele><time>2026-04-18T11:20:55Z</time></trkpt><trkpt lat="47.285670124277125" lon="8.714357797521437"><ele>487.99999999999994</ele><time>2026-04-18T11:20:56Z</time></trkpt><trkpt lat="47.28560867521405" lon="8.71439048188486"><ele>487.99999999999994</ele><time>2026-04-18T11:20:57Z</time></trkpt><trkpt lat="47.285544364170235" lon="8.714395572308234"><ele>488.4</ele><time>2026-04-18T11:20:58Z</time></trkpt><trkpt lat="47.28551717618024" lon="8.714244395676177"><ele>488.79999999999995</ele><time>2026-04-18T11:20:59Z</time></trkpt><trkpt lat="47.28546302435437" lon="8.714146457987018"><ele>489.2</ele><time>2026-04-18T11:21:00Z</time></trkpt><trkpt lat="47.28539978511746" lon="8.714067626829038"><ele>489.6</ele><time>2026-04-18T11:21:01Z</time></trkpt><trkpt lat="47.28535688410934" lon="8.713988007488114"><ele>490.0</ele><time>2026-04-18T11:21:02Z</time></trkpt><trkpt lat="47.285331631176966" lon="8.713812576848857"><ele>490.0</ele><time>2026-04-18T11:21:04Z</time></trkpt><trkpt lat="47.28534082742904" lon="8.713644825601927"><ele>490.0</ele><time>2026-04-18T11:21:06Z</time></trkpt><trkpt lat="47.2853486674173" lon="8.71351919059281"><ele>490.0</ele><time>2026-04-18T11:21:08Z</time></trkpt><trkpt lat="47.28526165022534" lon="8.713388148683324"><ele>490.0</ele><time>2026-04-18T11:21:10Z</time></trkpt><trkpt lat="47.28519099760734" lon="8.713355190944554"><ele>490.0</ele><time>2026-04-18T11:21:11Z</time></trkpt><trkpt lat="47.28511386035563" lon="8.713327491575157"><ele>490.00000000000006</ele><time>2026-04-18T11:21:12Z</time></trkpt><trkpt lat="47.28503422685737" lon="8.713314652538829"><ele>490.0</ele><time>2026-04-18T11:21:13Z</time></trkpt><trkpt lat="47.284953761540145" lon="8.713323265029741"><ele>490.0</ele><time>2026-04-18T11:21:14Z</time></trkpt><trkpt lat="47.28487515902473" lon="8.71334953959277"><ele>490.0</ele><time>2026-04-18T11:21:15Z</time></trkpt><trkpt lat="47.284796949147555" lon="8.71338079818391"><ele>490.00000000000006</ele><time>2026-04-18T11:21:16Z</time></trkpt><trkpt lat="47.28471895027447" lon="8.713391401190922"><ele>490.0</ele><time>2026-04-18T11:21:17Z</time></trkpt><trkpt lat="47.284650445103225" lon="8.71345610719886"><ele>490.2857142857143</ele><time>2026-04-18T11:21:18Z</time></trkpt><trkpt lat="47.2845731795375" lon="8.713492818915402"><ele>490.57142857142856</ele><time>2026-04-18T11:21:19Z</time></trkpt><trkpt lat="47.28449992168917" lon="8.7135397960089"><ele>490.8571428571429</ele><time>2026-04-18T11:21:20Z</time></trkpt><trkpt lat="47.284424623495276" lon="8.713575958231687"><ele>491.14285714285717</ele><time>2026-04-18T11:21:21Z</time></trkpt><trkpt lat="47.284351760827164" lon="8.713609471406478"><ele>491.42857142857144</ele><time>2026-04-18T11:21:22Z</time></trkpt><trkpt lat="47.28428855504543" lon="8.713635051837558"><ele>491.7142857142858</ele><time>2026-04-18T11:21:23Z</time></trkpt><trkpt lat="47.28428168597218" lon="8.71353655993463"><ele>492.00000000000006</ele><time>2026-04-18T11:21:25Z</time></trkpt><trkpt lat="47.28427240336455" lon="8.713420336184344"><ele>492.0</ele><time>2026-04-18T11:21:26Z</time></trkpt><trkpt lat="47.284253749405615" lon="8.713258142446932"><ele>492.0</ele><time>2026-04-18T11:21:28Z</time></trkpt><trkpt lat="47.28423557506374" lon="8.713145414976047"><ele>492.0</ele><time>2026-04-18T11:21:40Z</time></trkpt><trkpt lat="47.28421218986968" lon="8.713054746689822"><ele>492.0</ele><time>2026-04-18T11:21:42Z</time></trkpt><trkpt lat="47.28408779009286" lon="8.713091767563336"><ele>492.0</ele><time>2026-04-18T11:21:43Z</time></trkpt><trkpt lat="47.284026204841695" lon="8.713124667484502"><ele>492.0</ele><time>2026-04-18T11:21:44Z</time></trkpt><trkpt lat="47.283959237632715" lon="8.713168325223686"><ele>492.0</ele><time>2026-04-18T11:21:45Z</time></trkpt><trkpt lat="47.28388762682175" lon="8.713223030906407"><ele>492.0</ele><time>2026-04-18T11:21:46Z</time></trkpt><trkpt lat="47.28381528596123" lon="8.713275360581296"><ele>492.0</ele><time>2026-04-18T11:21:47Z</time></trkpt><trkpt lat="47.28374075204203" lon="8.71333033702204"><ele>492.0</ele><time>2026-04-18T11:21:48Z</time></trkpt><trkpt lat="47.283665872114824" lon="8.713380408446321"><ele>492.0</ele><time>2026-04-18T11:21:49Z</time></trkpt><trkpt lat="47.283588224548105" lon="8.713424931243711"><ele>492.0</ele><time>2026-04-18T11:21:50Z</time></trkpt><trkpt lat="47.283514124795495" lon="8.713468177420514"><ele>492.0</ele><time>2026-04-18T11:21:51Z</time></trkpt><trkpt lat="47.28344094057622" lon="8.713512035711773"><ele>492.0</ele><time>2026-04-18T11:21:52Z</time></trkpt><trkpt lat="47.2833659535214" lon="8.71355283442385"><ele>492.0</ele><time>2026-04-18T11:21:53Z</time></trkpt><trkpt lat="47.283292479798796" lon="8.713595159663951"><ele>492.0</ele><time>2026-04-18T11:21:54Z</time></trkpt><trkpt lat="47.283220486668306" lon="8.713637214260753"><ele>492.0</ele><time>2026-04-18T11:21:55Z</time></trkpt><trkpt lat="47.28314897059969" lon="8.713686048798928"><ele>492.0</ele><time>2026-04-18T11:21:56Z</time></trkpt><trkpt lat="47.28307873742973" lon="8.713730335541278"><ele>493.1428571428572</ele><time>2026-04-18T11:21:57Z</time></trkpt><trkpt lat="47.283006655041156" lon="8.713770765541208"><ele>494.28571428571433</ele><time>2026-04-18T11:21:58Z</time></trkpt><trkpt lat="47.282943256321325" lon="8.71380253329334"><ele>495.42857142857144</ele><time>2026-04-18T11:21:59Z</time></trkpt><trkpt lat="47.28287807712992" lon="8.71379805822181"><ele>496.5714285714286</ele><time>2026-04-18T11:22:00Z</time></trkpt><trkpt lat="47.28280723195445" lon="8.71382513412912"><ele>497.7142857142858</ele><time>2026-04-18T11:22:01Z</time></trkpt><trkpt lat="47.28273773803586" lon="8.713864826818751"><ele>498.85714285714283</ele><time>2026-04-18T11:22:02Z</time></trkpt><trkpt lat="47.28266695451701" lon="8.713903491950562"><ele>500.0</ele><time>2026-04-18T11:22:03Z</time></trkpt><trkpt lat="47.28259477301621" lon="8.713940928277532"><ele>499.99999999999994</ele><time>2026-04-18T11:22:04Z</time></trkpt><trkpt lat="47.28252239335405" lon="8.713981442600863"><ele>500.0</ele><time>2026-04-18T11:22:05Z</time></trkpt><trkpt lat="47.282451608330014" lon="8.714027038580479"><ele>500.0</ele><time>2026-04-18T11:22:06Z</time></trkpt><trkpt lat="47.28237968270432" lon="8.714070896336374"><ele>500.0</ele><time>2026-04-18T11:22:07Z</time></trkpt><trkpt lat="47.2823050858826" lon="8.714108128295162"><ele>499.99999999999994</ele><time>2026-04-18T11:22:08Z</time></trkpt><trkpt lat="47.28223696518521" lon="8.714167648189674"><ele>500.0</ele><time>2026-04-18T11:22:09Z</time></trkpt><trkpt lat="47.28216916984684" lon="8.714232716769706"><ele>499.8333333333333</ele><time>2026-04-18T11:22:10Z</time></trkpt><trkpt lat="47.28210841238978" lon="8.714315257149757"><ele>499.66666666666663</ele><time>2026-04-18T11:22:11Z</time></trkpt><trkpt lat="47.282049027709014" lon="8.714395241244237"><ele>499.5</ele><time>2026-04-18T11:22:12Z</time></trkpt><trkpt lat="47.281993357619776" lon="8.714484737763673"><ele>499.33333333333337</ele><time>2026-04-18T11:22:13Z</time></trkpt><trkpt lat="47.28192838917084" lon="8.71455774173143"><ele>499.1666666666667</ele><time>2026-04-18T11:22:14Z</time></trkpt><trkpt lat="47.2818625891529" lon="8.714629133813714"><ele>499.0</ele><time>2026-04-18T11:22:15Z</time></trkpt><trkpt lat="47.28180242986918" lon="8.714714526946294"><ele>499.33333333333337</ele><time>2026-04-18T11:22:16Z</time></trkpt><trkpt lat="47.281737887652284" lon="8.714788120223881"><ele>499.6666666666667</ele><time>2026-04-18T11:22:17Z</time></trkpt><trkpt lat="47.28167647537845" lon="8.714869151544203"><ele>500.0</ele><time>2026-04-18T11:22:18Z</time></trkpt><trkpt lat="47.281612329174344" lon="8.714942078152964"><ele>500.33333333333337</ele><time>2026-04-18T11:22:19Z</time></trkpt><trkpt lat="47.28155987151941" lon="8.715015711091468"><ele>500.6666666666667</ele><time>2026-04-18T11:22:20Z</time></trkpt><trkpt lat="47.28149083795001" lon="8.71511080044366"><ele>501.0</ele><time>2026-04-18T11:22:22Z</time></trkpt><trkpt lat="47.281416721474756" lon="8.71519372679225"><ele>500.6666666666667</ele><time>2026-04-18T11:22:38Z</time></trkpt><trkpt lat="47.28132737212693" lon="8.71531746374065"><ele>500.33333333333337</ele><time>2026-04-18T11:22:40Z</time></trkpt><trkpt lat="47.28127968098203" lon="8.715388455153448"><ele>500.0</ele><time>2026-04-18T11:22:41Z</time></trkpt><trkpt lat="47.28122628215566" lon="8.715460728220297"><ele>499.6666666666667</ele><time>2026-04-18T11:22:42Z</time></trkpt><trkpt lat="47.28116864087973" lon="8.715531483746172"><ele>499.33333333333337</ele><time>2026-04-18T11:22:43Z</time></trkpt><trkpt lat="47.28110736353332" lon="8.715604860393144"><ele>499.0</ele><time>2026-04-18T11:22:44Z</time></trkpt><trkpt lat="47.281046950447276" lon="8.715681877050066"><ele>499.00000000000006</ele><time>2026-04-18T11:22:45Z</time></trkpt><trkpt lat="47.28098168146923" lon="8.71574878680817"><ele>499.0</ele><time>2026-04-18T11:22:46Z</time></trkpt><trkpt lat="47.28091736230933" lon="8.715816051696226"><ele>499.0</ele><time>2026-04-18T11:22:47Z</time></trkpt><trkpt lat="47.28085601622482" lon="8.715896007196879"><ele>499.0</ele><time>2026-04-18T11:22:48Z</time></trkpt><trkpt lat="47.28079363592822" lon="8.71596764593916"><ele>499.00000000000006</ele><time>2026-04-18T11:22:49Z</time></trkpt><trkpt lat="47.28073087667084" lon="8.716040172238271"><ele>499.0</ele><time>2026-04-18T11:22:50Z</time></trkpt><trkpt lat="47.28067107641532" lon="8.716119020143651"><ele>498.83333333333337</ele><time>2026-04-18T11:22:51Z</time></trkpt><trkpt lat="47.28060962807687" lon="8.716195952593367"><ele>498.6666666666667</ele><time>2026-04-18T11:22:52Z</time></trkpt><trkpt lat="47.28054633158838" lon="8.716271426345504"><ele>498.5</ele><time>2026-04-18T11:22:53Z</time></trkpt><trkpt lat="47.28048349125307" lon="8.71634619714053"><ele>498.33333333333337</ele><time>2026-04-18T11:22:54Z</time></trkpt><trkpt lat="47.28042061941045" lon="8.71642253890742"><ele>498.1666666666667</ele><time>2026-04-18T11:22:55Z</time></trkpt><trkpt lat="47.28035919250838" lon="8.71650152725259"><ele>498.0</ele><time>2026-04-18T11:22:56Z</time></trkpt><trkpt lat="47.28030025788547" lon="8.71658426812577"><ele>498.5</ele><time>2026-04-18T11:22:57Z</time></trkpt><trkpt lat="47.28023853788184" lon="8.716662615821935"><ele>499.0</ele><time>2026-04-18T11:22:58Z</time></trkpt><trkpt lat="47.280173105832134" lon="8.716733418805244"><ele>499.5</ele><time>2026-04-18T11:22:59Z</time></trkpt><trkpt lat="47.28011032691883" lon="8.716811077675615"><ele>500.0</ele><time>2026-04-18T11:23:00Z</time></trkpt><trkpt lat="47.28004968500932" lon="8.716892917384788"><ele>500.5</ele><time>2026-04-18T11:23:01Z</time></trkpt><trkpt lat="47.2799899264852" lon="8.716972891274938"><ele>501.0</ele><time>2026-04-18T11:23:02Z</time></trkpt><trkpt lat="47.279926326551085" lon="8.717044230837967"><ele>501.0</ele><time>2026-04-18T11:23:03Z</time></trkpt><trkpt lat="47.27985922956609" lon="8.717111794358836"><ele>501.0</ele><time>2026-04-18T11:23:04Z</time></trkpt><trkpt lat="47.27979300384404" lon="8.717181965779023"><ele>501.0</ele><time>2026-04-18T11:23:05Z</time></trkpt><trkpt lat="47.279724359851706" lon="8.717242677844869"><ele>501.0</ele><time>2026-04-18T11:23:06Z</time></trkpt><trkpt lat="47.2796521941468" lon="8.717298360118583"><ele>501.0</ele><time>2026-04-18T11:23:07Z</time></trkpt><trkpt lat="47.27957854547572" lon="8.717346733951494"><ele>501.0</ele><time>2026-04-18T11:23:08Z</time></trkpt><trkpt lat="47.27950684261016" lon="8.717397703048267"><ele>501.5</ele><time>2026-04-18T11:23:09Z</time></trkpt><trkpt lat="47.27943337226702" lon="8.717453744968786"><ele>502.0</ele><time>2026-04-18T11:23:10Z</time></trkpt><trkpt lat="47.27936405189759" lon="8.71750810505481"><ele>502.5</ele><time>2026-04-18T11:23:11Z</time></trkpt><trkpt lat="47.279292624745274" lon="8.717568768253088"><ele>503.0</ele><time>2026-04-18T11:23:12Z</time></trkpt><trkpt lat="47.27921811748285" lon="8.717616230035278"><ele>503.5</ele><time>2026-04-18T11:23:13Z</time></trkpt><trkpt lat="47.27914044189566" lon="8.717657124313764"><ele>504.0</ele><time>2026-04-18T11:23:14Z</time></trkpt><trkpt lat="47.27906440723209" lon="8.717692620530041"><ele>504.0</ele><time>2026-04-18T11:23:15Z</time></trkpt><trkpt lat="47.278985718416365" lon="8.71772487964658"><ele>504.0</ele><time>2026-04-18T11:23:16Z</time></trkpt><trkpt lat="47.278905932376226" lon="8.717752126038787"><ele>504.0</ele><time>2026-04-18T11:23:17Z</time></trkpt><trkpt lat="47.27882693615703" lon="8.71777636411229"><ele>504.0</ele><time>2026-04-18T11:23:18Z</time></trkpt><trkpt lat="47.278748171134" lon="8.71779482336905"><ele>504.0</ele><time>2026-04-18T11:23:19Z</time></trkpt><trkpt lat="47.278673190109785" lon="8.717823243942286"><ele>504.0</ele><time>2026-04-18T11:23:20Z</time></trkpt><trkpt lat="47.27857880306945" lon="8.717882627943776"><ele>504.5</ele><time>2026-04-18T11:23:22Z</time></trkpt><trkpt lat="47.27847796833393" lon="8.71796269147603"><ele>505.0</ele><time>2026-04-18T11:23:24Z</time></trkpt><trkpt lat="47.27841336494209" lon="8.718022192074555"><ele>505.5</ele><time>2026-04-18T11:23:25Z</time></trkpt><trkpt lat="47.27834913731721" lon="8.71807721307507"><ele>506.0</ele><time>2026-04-18T11:23:26Z</time></trkpt><trkpt lat="47.27828119837381" lon="8.718126571453688"><ele>506.5</ele><time>2026-04-18T11:23:27Z</time></trkpt><trkpt lat="47.27820981995735" lon="8.718176340677449"><ele>507.0</ele><time>2026-04-18T11:23:28Z</time></trkpt><trkpt lat="47.27813533687822" lon="8.718221736128276"><ele>507.6666666666667</ele><time>2026-04-18T11:23:29Z</time></trkpt><trkpt lat="47.278066671807686" lon="8.718257300604945"><ele>508.33333333333337</ele><time>2026-04-18T11:23:30Z</time></trkpt><trkpt lat="47.277991058977186" lon="8.718274134424211"><ele>509.0</ele><time>2026-04-18T11:23:31Z</time></trkpt><trkpt lat="47.277916517983556" lon="8.71828899975198"><ele>509.6666666666667</ele><time>2026-04-18T11:23:32Z</time></trkpt><trkpt lat="47.27783255110446" lon="8.718312216113867"><ele>510.33333333333337</ele><time>2026-04-18T11:23:33Z</time></trkpt><trkpt lat="47.27775019294216" lon="8.718337806053064"><ele>511.0</ele><time>2026-04-18T11:23:34Z</time></trkpt><trkpt lat="47.277672643424594" lon="8.718364298125008"><ele>511.00000000000006</ele><time>2026-04-18T11:23:35Z</time></trkpt><trkpt lat="47.27759426556902" lon="8.718392623491917"><ele>511.0</ele><time>2026-04-18T11:23:36Z</time></trkpt><trkpt lat="47.2775121908464" lon="8.718403958122277"><ele>511.0</ele><time>2026-04-18T11:23:37Z</time></trkpt><trkpt lat="47.27743661951533" lon="8.718422446518698"><ele>511.0</ele><time>2026-04-18T11:23:38Z</time></trkpt><trkpt lat="47.277359733529025" lon="8.718443207188473"><ele>511.00000000000006</ele><time>2026-04-18T11:23:39Z</time></trkpt><trkpt lat="47.27728200522553" lon="8.71846507338491"><ele>511.0</ele><time>2026-04-18T11:23:40Z</time></trkpt><trkpt lat="47.277197197158614" lon="8.718489809047146"><ele>511.00000000000006</ele><time>2026-04-18T11:23:41Z</time></trkpt><trkpt lat="47.277117377503714" lon="8.718502394164295"><ele>511.0</ele><time>2026-04-18T11:23:42Z</time></trkpt><trkpt lat="47.27703625259077" lon="8.718538485855232"><ele>511.0</ele><time>2026-04-18T11:23:43Z</time></trkpt><trkpt lat="47.276954974110154" lon="8.718568084726522"><ele>511.0</ele><time>2026-04-18T11:23:44Z</time></trkpt><trkpt lat="47.276873165224146" lon="8.718585776614413"><ele>511.00000000000006</ele><time>2026-04-18T11:23:45Z</time></trkpt><trkpt lat="47.2767915952509" lon="8.718602509452511"><ele>511.0</ele><time>2026-04-18T11:23:46Z</time></trkpt><trkpt lat="47.2767118196288" lon="8.718627356332657"><ele>511.1666666666667</ele><time>2026-04-18T11:23:47Z</time></trkpt><trkpt lat="47.2766309968066" lon="8.718651758940029"><ele>511.33333333333337</ele><time>2026-04-18T11:23:48Z</time></trkpt><trkpt lat="47.27655001919496" lon="8.718672792465826"><ele>511.5</ele><time>2026-04-18T11:23:49Z</time></trkpt><trkpt lat="47.27646924030927" lon="8.718702285503946"><ele>511.66666666666663</ele><time>2026-04-18T11:23:50Z</time></trkpt><trkpt lat="47.2763898403933" lon="8.718728829969846"><ele>511.8333333333333</ele><time>2026-04-18T11:23:51Z</time></trkpt><trkpt lat="47.27630737795784" lon="8.718760593985646"><ele>512.0</ele><time>2026-04-18T11:23:52Z</time></trkpt><trkpt lat="47.276224702647845" lon="8.718791930774993"><ele>512.1666666666666</ele><time>2026-04-18T11:23:53Z</time></trkpt><trkpt lat="47.27614544158778" lon="8.718826501377512"><ele>512.3333333333333</ele><time>2026-04-18T11:23:54Z</time></trkpt><trkpt lat="47.27606649579818" lon="8.718860355762866"><ele>512.5</ele><time>2026-04-18T11:23:55Z</time></trkpt><trkpt lat="47.275988622844444" lon="8.71889958922086"><ele>512.6666666666666</ele><time>2026-04-18T11:23:56Z</time></trkpt><trkpt lat="47.27590810420772" lon="8.71894863593034"><ele>512.8333333333334</ele><time>2026-04-18T11:23:57Z</time></trkpt><trkpt lat="47.27582795823393" lon="8.718981767478997"><ele>513.0</ele><time>2026-04-18T11:23:58Z</time></trkpt><trkpt lat="47.27574344848604" lon="8.719004815921997"><ele>513.0</ele><time>2026-04-18T11:23:59Z</time></trkpt><trkpt lat="47.27566455459766" lon="8.719025853249724"><ele>513.0</ele><time>2026-04-18T11:24:00Z</time></trkpt><trkpt lat="47.27558140505759" lon="8.719054483235043"><ele>513.0</ele><time>2026-04-18T11:24:01Z</time></trkpt><trkpt lat="47.275498339856426" lon="8.719078168394223"><ele>513.0</ele><time>2026-04-18T11:24:02Z</time></trkpt><trkpt lat="47.27541847375443" lon="8.71910229599494"><ele>513.0</ele><time>2026-04-18T11:24:03Z</time></trkpt><trkpt lat="47.27534102337975" lon="8.719127345877784"><ele>513.0</ele><time>2026-04-18T11:24:04Z</time></trkpt><trkpt lat="47.27525896615773" lon="8.719155756881463"><ele>513.3333333333334</ele><time>2026-04-18T11:24:05Z</time></trkpt><trkpt lat="47.27517842213246" lon="8.719180213250954"><ele>513.6666666666666</ele><time>2026-04-18T11:24:06Z</time></trkpt><trkpt lat="47.27509605276357" lon="8.719206668135797"><ele>514.0</ele><time>2026-04-18T11:24:07Z</time></trkpt><trkpt lat="47.2750139419105" lon="8.719235357264601"><ele>514.3333333333333</ele><time>2026-04-18T11:24:08Z</time></trkpt><trkpt lat="47.27493398368305" lon="8.719257991907886"><ele>514.6666666666666</ele><time>2026-04-18T11:24:09Z</time></trkpt><trkpt lat="47.27485220959187" lon="8.719288001829817"><ele>515.0</ele><time>2026-04-18T11:24:10Z</time></trkpt><trkpt lat="47.27477058304947" lon="8.719309666474437"><ele>515.3333333333333</ele><time>2026-04-18T11:24:11Z</time></trkpt><trkpt lat="47.27468863127025" lon="8.719333673959069"><ele>515.6666666666666</ele><time>2026-04-18T11:24:12Z</time></trkpt><trkpt lat="47.27461078531861" lon="8.719366282080939"><ele>516.0</ele><time>2026-04-18T11:24:13Z</time></trkpt><trkpt lat="47.27453033625574" lon="8.719396826582539"><ele>516.3333333333334</ele><time>2026-04-18T11:24:14Z</time></trkpt><trkpt lat="47.27445226839493" lon="8.719418171080552"><ele>516.6666666666667</ele><time>2026-04-18T11:24:15Z</time></trkpt><trkpt lat="47.27437321262344" lon="8.719439278590785"><ele>517.0</ele><time>2026-04-18T11:24:16Z</time></trkpt><trkpt lat="47.27429260301673" lon="8.7194730473913"><ele>517.3333333333334</ele><time>2026-04-18T11:24:17Z</time></trkpt><trkpt lat="47.27421919576935" lon="8.719505396447321"><ele>517.6666666666667</ele><time>2026-04-18T11:24:18Z</time></trkpt><trkpt lat="47.27414578566576" lon="8.719548390904519"><ele>518.0</ele><time>2026-04-18T11:24:19Z</time></trkpt><trkpt lat="47.27408515633202" lon="8.719590914580277"><ele>518.3333333333334</ele><time>2026-04-18T11:24:20Z</time></trkpt><trkpt lat="47.27403596065684" lon="8.719652019397943"><ele>518.6666666666666</ele><time>2026-04-18T11:24:21Z</time></trkpt><trkpt lat="47.273923295874944" lon="8.719740042316985"><ele>519.0</ele><time>2026-04-18T11:24:23Z</time></trkpt><trkpt lat="47.273861465689514" lon="8.719787910629787"><ele>519.5714285714286</ele><time>2026-04-18T11:24:24Z</time></trkpt><trkpt lat="47.273801853784086" lon="8.719831065017734"><ele>520.1428571428571</ele><time>2026-04-18T11:24:25Z</time></trkpt><trkpt lat="47.2737386117332" lon="8.719873492750137"><ele>520.7142857142857</ele><time>2026-04-18T11:24:26Z</time></trkpt><trkpt lat="47.27367299466157" lon="8.719912244478028"><ele>521.2857142857142</ele><time>2026-04-18T11:24:27Z</time></trkpt><trkpt lat="47.27360944262221" lon="8.719955929084616"><ele>521.8571428571429</ele><time>2026-04-18T11:24:28Z</time></trkpt><trkpt lat="47.27354272697987" lon="8.719996120096273"><ele>522.4285714285713</ele><time>2026-04-18T11:24:29Z</time></trkpt><trkpt lat="47.273475772936166" lon="8.72003390158224"><ele>523.0</ele><time>2026-04-18T11:24:30Z</time></trkpt><trkpt lat="47.27340836953904" lon="8.720068429997994"><ele>522.9999999999999</ele><time>2026-04-18T11:24:31Z</time></trkpt><trkpt lat="47.27333889317196" lon="8.72010437987377"><ele>523.0</ele><time>2026-04-18T11:24:32Z</time></trkpt><trkpt lat="47.27327329841334" lon="8.720135130852007"><ele>523.0</ele><time>2026-04-18T11:24:33Z</time></trkpt><trkpt lat="47.273204928723935" lon="8.72016166371197"><ele>523.0</ele><time>2026-04-18T11:24:34Z</time></trkpt><trkpt lat="47.273134156632096" lon="8.720183288398351"><ele>523.0</ele><time>2026-04-18T11:24:35Z</time></trkpt><trkpt lat="47.27306551995475" lon="8.720191127697214"><ele>522.9999999999999</ele><time>2026-04-18T11:24:36Z</time></trkpt><trkpt lat="47.27299377682041" lon="8.720198612388069"><ele>523.0</ele><time>2026-04-18T11:24:37Z</time></trkpt><trkpt lat="47.2729219927396" lon="8.720244575905424"><ele>523.8333333333334</ele><time>2026-04-18T11:24:38Z</time></trkpt><trkpt lat="47.27284910887308" lon="8.720251732050317"><ele>524.6666666666667</ele><time>2026-04-18T11:24:39Z</time></trkpt><trkpt lat="47.2727687815137" lon="8.720197335997735"><ele>525.5</ele><time>2026-04-18T11:24:40Z</time></trkpt><trkpt lat="47.27269317968158" lon="8.72018653908805"><ele>526.3333333333334</ele><time>2026-04-18T11:24:41Z</time></trkpt><trkpt lat="47.27261877232825" lon="8.72017017484583"><ele>527.1666666666666</ele><time>2026-04-18T11:24:42Z</time></trkpt><trkpt lat="47.2725431898206" lon="8.720151141772838"><ele>528.0</ele><time>2026-04-18T11:24:43Z</time></trkpt><trkpt lat="47.27247186357189" lon="8.72013504911721"><ele>528.0</ele><time>2026-04-18T11:24:44Z</time></trkpt><trkpt lat="47.27239198427884" lon="8.720116925768332"><ele>528.0</ele><time>2026-04-18T11:24:45Z</time></trkpt><trkpt lat="47.27232336968776" lon="8.720101913726335"><ele>528.0</ele><time>2026-04-18T11:24:46Z</time></trkpt><trkpt lat="47.272245372659675" lon="8.720080141238192"><ele>528.0</ele><time>2026-04-18T11:24:47Z</time></trkpt><trkpt lat="47.272171864977125" lon="8.72006447300682"><ele>528.0</ele><time>2026-04-18T11:24:48Z</time></trkpt><trkpt lat="47.272096837111306" lon="8.720047711058731"><ele>528.0</ele><time>2026-04-18T11:24:49Z</time></trkpt><trkpt lat="47.27202016603314" lon="8.720033559154976"><ele>529.3333333333334</ele><time>2026-04-18T11:24:50Z</time></trkpt><trkpt lat="47.27194594590403" lon="8.720016954626084"><ele>530.6666666666666</ele><time>2026-04-18T11:24:51Z</time></trkpt><trkpt lat="47.27186756820283" lon="8.719997900293334"><ele>532.0</ele><time>2026-04-18T11:24:52Z</time></trkpt><trkpt lat="47.27179264563587" lon="8.71998790215815"><ele>533.3333333333333</ele><time>2026-04-18T11:24:53Z</time></trkpt><trkpt lat="47.27171381271478" lon="8.719974410988728"><ele>534.6666666666666</ele><time>2026-04-18T11:24:54Z</time></trkpt><trkpt lat="47.27163828783378" lon="8.71996319711759"><ele>536.0</ele><time>2026-04-18T11:24:55Z</time></trkpt><trkpt lat="47.271560085464834" lon="8.719955602824003"><ele>536.0</ele><time>2026-04-18T11:24:56Z</time></trkpt><trkpt lat="47.27147956719624" lon="8.719958738480502"><ele>536.0</ele><time>2026-04-18T11:24:57Z</time></trkpt><trkpt lat="47.27140030804974" lon="8.71996100554959"><ele>536.0</ele><time>2026-04-18T11:24:58Z</time></trkpt><trkpt lat="47.2713215300153" lon="8.71996959348516"><ele>536.0</ele><time>2026-04-18T11:24:59Z</time></trkpt><trkpt lat="47.2712425441479" lon="8.719979187343348"><ele>536.0</ele><time>2026-04-18T11:25:00Z</time></trkpt><trkpt lat="47.271162033715065" lon="8.719984738081921"><ele>536.0</ele><time>2026-04-18T11:25:01Z</time></trkpt><trkpt lat="47.271080081832174" lon="8.719991579048179"><ele>536.5</ele><time>2026-04-18T11:25:02Z</time></trkpt><trkpt lat="47.27099805186485" lon="8.719996869997736"><ele>537.0</ele><time>2026-04-18T11:25:03Z</time></trkpt><trkpt lat="47.27091694081957" lon="8.720005888248085"><ele>537.5</ele><time>2026-04-18T11:25:04Z</time></trkpt><trkpt lat="47.27083568998521" lon="8.720025106899307"><ele>538.0</ele><time>2026-04-18T11:25:05Z</time></trkpt><trkpt lat="47.270755810854816" lon="8.720053613684373"><ele>538.5</ele><time>2026-04-18T11:25:06Z</time></trkpt><trkpt lat="47.27067849053118" lon="8.720092120941734"><ele>539.0</ele><time>2026-04-18T11:25:07Z</time></trkpt><trkpt lat="47.27060759309119" lon="8.720150081218252"><ele>539.5</ele><time>2026-04-18T11:25:08Z</time></trkpt><trkpt lat="47.27054602399201" lon="8.72021804212162"><ele>540.0</ele><time>2026-04-18T11:25:09Z</time></trkpt><trkpt lat="47.27049153538615" lon="8.720296032074584"><ele>540.5</ele><time>2026-04-18T11:25:10Z</time></trkpt><trkpt lat="47.27044790526419" lon="8.720396169705353"><ele>541.0</ele><time>2026-04-18T11:25:11Z</time></trkpt><trkpt lat="47.270410954787124" lon="8.720500102783076"><ele>541.5</ele><time>2026-04-18T11:25:12Z</time></trkpt><trkpt lat="47.270371336217465" lon="8.720604525709394"><ele>542.0</ele><time>2026-04-18T11:25:13Z</time></trkpt><trkpt lat="47.27032741792261" lon="8.7207039775582"><ele>542.0</ele><time>2026-04-18T11:25:14Z</time></trkpt><trkpt lat="47.27028270978436" lon="8.72079987871565"><ele>542.0</ele><time>2026-04-18T11:25:15Z</time></trkpt><trkpt lat="47.270237348466594" lon="8.720895546789725"><ele>542.0</ele><time>2026-04-18T11:25:16Z</time></trkpt><trkpt lat="47.27019413115481" lon="8.720993885916867"><ele>542.0</ele><time>2026-04-18T11:25:17Z</time></trkpt><trkpt lat="47.270154357732565" lon="8.721096587896698"><ele>542.0</ele><time>2026-04-18T11:25:18Z</time></trkpt><trkpt lat="47.270114559834944" lon="8.721199344167692"><ele>542.0</ele><time>2026-04-18T11:25:19Z</time></trkpt><trkpt lat="47.27007142181196" lon="8.72130087925526"><ele>542.1666666666666</ele><time>2026-04-18T11:25:20Z</time></trkpt><trkpt lat="47.27002974688583" lon="8.721403292205345"><ele>542.3333333333333</ele><time>2026-04-18T11:25:21Z</time></trkpt><trkpt lat="47.269988758659764" lon="8.721504088743494"><ele>542.5</ele><time>2026-04-18T11:25:22Z</time></trkpt><trkpt lat="47.26994839918902" lon="8.721606715605"><ele>542.6666666666666</ele><time>2026-04-18T11:25:23Z</time></trkpt><trkpt lat="47.269909439022086" lon="8.72171112624626"><ele>542.8333333333334</ele><time>2026-04-18T11:25:24Z</time></trkpt><trkpt lat="47.269870821400595" lon="8.721816613084654"><ele>543.0</ele><time>2026-04-18T11:25:25Z</time></trkpt><trkpt lat="47.26983047878993" lon="8.72191886784338"><ele>543.5</ele><time>2026-04-18T11:25:26Z</time></trkpt><trkpt lat="47.26978922362372" lon="8.722021459216503"><ele>544.0</ele><time>2026-04-18T11:25:27Z</time></trkpt><trkpt lat="47.269741963928126" lon="8.72211722845485"><ele>544.5</ele><time>2026-04-18T11:25:28Z</time></trkpt><trkpt lat="47.269698683590384" lon="8.722215746643403"><ele>545.0</ele><time>2026-04-18T11:25:29Z</time></trkpt><trkpt lat="47.269656470479326" lon="8.722317408643503"><ele>545.5</ele><time>2026-04-18T11:25:30Z</time></trkpt><trkpt lat="47.26961541114604" lon="8.72241960475723"><ele>546.0</ele><time>2026-04-18T11:25:31Z</time></trkpt><trkpt lat="47.269573234643495" lon="8.72252065933433"><ele>546.3333333333334</ele><time>2026-04-18T11:25:32Z</time></trkpt><trkpt lat="47.269529512534476" lon="8.722622449701987"><ele>546.6666666666666</ele><time>2026-04-18T11:25:33Z</time></trkpt><trkpt lat="47.26948675478242" lon="8.722725331260097"><ele>547.0</ele><time>2026-04-18T11:25:34Z</time></trkpt><trkpt lat="47.26944410756927" lon="8.722829576252748"><ele>547.3333333333333</ele><time>2026-04-18T11:25:35Z</time></trkpt><trkpt lat="47.2693997922344" lon="8.722933602050087"><ele>547.6666666666666</ele><time>2026-04-18T11:25:36Z</time></trkpt><trkpt lat="47.269356051926664" lon="8.72303788313006"><ele>548.0</ele><time>2026-04-18T11:25:37Z</time></trkpt><trkpt lat="47.269311921923766" lon="8.723144797392116"><ele>548.0</ele><time>2026-04-18T11:25:38Z</time></trkpt><trkpt lat="47.2692688851983" lon="8.72325208343802"><ele>548.0</ele><time>2026-04-18T11:25:39Z</time></trkpt><trkpt lat="47.269226712092134" lon="8.72335906125272"><ele>548.0</ele><time>2026-04-18T11:25:40Z</time></trkpt><trkpt lat="47.26918118302927" lon="8.723464528526831"><ele>548.0</ele><time>2026-04-18T11:25:41Z</time></trkpt><trkpt lat="47.269136391753605" lon="8.72357101198921"><ele>548.0</ele><time>2026-04-18T11:25:42Z</time></trkpt><trkpt lat="47.26909216200645" lon="8.723674572532465"><ele>548.0</ele><time>2026-04-18T11:25:43Z</time></trkpt><trkpt lat="47.26904927836873" lon="8.723778292103718"><ele>547.6666666666666</ele><time>2026-04-18T11:25:44Z</time></trkpt><trkpt lat="47.26900608598475" lon="8.723882617026343"><ele>547.3333333333333</ele><time>2026-04-18T11:25:45Z</time></trkpt><trkpt lat="47.268962342157465" lon="8.723986171097023"><ele>547.0</ele><time>2026-04-18T11:25:46Z</time></trkpt><trkpt lat="47.268919882300295" lon="8.724091031416487"><ele>546.6666666666666</ele><time>2026-04-18T11:25:47Z</time></trkpt><trkpt lat="47.2688783718711" lon="8.724197612522799"><ele>546.3333333333334</ele><time>2026-04-18T11:25:48Z</time></trkpt><trkpt lat="47.268835786861764" lon="8.724300489970606"><ele>546.0</ele><time>2026-04-18T11:25:49Z</time></trkpt><trkpt lat="47.268791015283036" lon="8.72440348302223"><ele>546.6666666666666</ele><time>2026-04-18T11:25:50Z</time></trkpt><trkpt lat="47.26874632747319" lon="8.724508061058872"><ele>547.3333333333334</ele><time>2026-04-18T11:25:51Z</time></trkpt><trkpt lat="47.26870170634294" lon="8.724612665145342"><ele>548.0</ele><time>2026-04-18T11:25:52Z</time></trkpt><trkpt lat="47.268658900568745" lon="8.724717969871604"><ele>548.6666666666667</ele><time>2026-04-18T11:25:53Z</time></trkpt><trkpt lat="47.26861612347743" lon="8.724822772835616"><ele>549.3333333333334</ele><time>2026-04-18T11:25:54Z</time></trkpt><trkpt lat="47.26857185676424" lon="8.72492762309019"><ele>550.0</ele><time>2026-04-18T11:25:55Z</time></trkpt><trkpt lat="47.26852917584862" lon="8.725032651846801"><ele>550.0</ele><time>2026-04-18T11:25:56Z</time></trkpt><trkpt lat="47.26848572026202" lon="8.725138373286947"><ele>550.0</ele><time>2026-04-18T11:25:57Z</time></trkpt><trkpt lat="47.26844218413587" lon="8.725242187135514"><ele>550.0</ele><time>2026-04-18T11:25:58Z</time></trkpt><trkpt lat="47.26839765601046" lon="8.725346389399437"><ele>550.0</ele><time>2026-04-18T11:25:59Z</time></trkpt><trkpt lat="47.26835518404272" lon="8.725453022373847"><ele>550.0</ele><time>2026-04-18T11:26:00Z</time></trkpt><trkpt lat="47.268311314656344" lon="8.725557524185977"><ele>550.0</ele><time>2026-04-18T11:26:01Z</time></trkpt><trkpt lat="47.268266827038644" lon="8.725662730328743"><ele>549.6666666666667</ele><time>2026-04-18T11:26:02Z</time></trkpt><trkpt lat="47.26822281745418" lon="8.725768293888292"><ele>549.3333333333334</ele><time>2026-04-18T11:26:03Z</time></trkpt><trkpt lat="47.268178819174594" lon="8.725873796047804"><ele>549.0</ele><time>2026-04-18T11:26:04Z</time></trkpt><trkpt lat="47.26813567772106" lon="8.725981552668472"><ele>548.6666666666666</ele><time>2026-04-18T11:26:05Z</time></trkpt><trkpt lat="47.26809097060992" lon="8.726087418781331"><ele>548.3333333333333</ele><time>2026-04-18T11:26:06Z</time></trkpt><trkpt lat="47.26804604725807" lon="8.726192989650361"><ele>548.0</ele><time>2026-04-18T11:26:07Z</time></trkpt><trkpt lat="47.2679969701141" lon="8.72629371175151"><ele>548.6666666666666</ele><time>2026-04-18T11:26:08Z</time></trkpt><trkpt lat="47.267940828940034" lon="8.726388893572041"><ele>549.3333333333333</ele><time>2026-04-18T11:26:09Z</time></trkpt><trkpt lat="47.26788094722068" lon="8.726477142375163"><ele>550.0</ele><time>2026-04-18T11:26:10Z</time></trkpt><trkpt lat="47.2678186845896" lon="8.726562921894425"><ele>550.6666666666666</ele><time>2026-04-18T11:26:11Z</time></trkpt><trkpt lat="47.267756351314766" lon="8.72664735859299"><ele>551.3333333333334</ele><time>2026-04-18T11:26:12Z</time></trkpt><trkpt lat="47.26769475934176" lon="8.726733367667677"><ele>552.0</ele><time>2026-04-18T11:26:13Z</time></trkpt><trkpt lat="47.26763380738971" lon="8.72681936442323"><ele>551.3333333333334</ele><time>2026-04-18T11:26:14Z</time></trkpt><trkpt lat="47.267572466275254" lon="8.726903121435225"><ele>550.6666666666666</ele><time>2026-04-18T11:26:15Z</time></trkpt><trkpt lat="47.267511741600316" lon="8.726987644718365"><ele>550.0</ele><time>2026-04-18T11:26:16Z</time></trkpt><trkpt lat="47.26745186975426" lon="8.727074247744808"><ele>549.3333333333333</ele><time>2026-04-18T11:26:17Z</time></trkpt><trkpt lat="47.267392446577894" lon="8.72716100459268"><ele>548.6666666666666</ele><time>2026-04-18T11:26:18Z</time></trkpt><trkpt lat="47.267331229344336" lon="8.727245256923304"><ele>548.0</ele><time>2026-04-18T11:26:19Z</time></trkpt><trkpt lat="47.267268052089314" lon="8.72732925477528"><ele>548.3333333333333</ele><time>2026-04-18T11:26:20Z</time></trkpt><trkpt lat="47.26720636761621" lon="8.727414268081953"><ele>548.6666666666666</ele><time>2026-04-18T11:26:21Z</time></trkpt><trkpt lat="47.2671448488153" lon="8.72750004502386"><ele>549.0</ele><time>2026-04-18T11:26:22Z</time></trkpt><trkpt lat="47.26708429250904" lon="8.727586773915156"><ele>549.3333333333334</ele><time>2026-04-18T11:26:23Z</time></trkpt><trkpt lat="47.267022956885484" lon="8.727676540205856"><ele>549.6666666666667</ele><time>2026-04-18T11:26:24Z</time></trkpt><trkpt lat="47.26696130997652" lon="8.72776215491733"><ele>550.0</ele><time>2026-04-18T11:26:25Z</time></trkpt><trkpt lat="47.266899670682065" lon="8.727849117387699"><ele>550.0</ele><time>2026-04-18T11:26:26Z</time></trkpt><trkpt lat="47.266838056870746" lon="8.727933372405522"><ele>550.0</ele><time>2026-04-18T11:26:27Z</time></trkpt><trkpt lat="47.26677701205483" lon="8.728020300143395"><ele>550.0</ele><time>2026-04-18T11:26:28Z</time></trkpt><trkpt lat="47.26671756302476" lon="8.728108589200756"><ele>550.0</ele><time>2026-04-18T11:26:29Z</time></trkpt><trkpt lat="47.26665902972042" lon="8.728197873469716"><ele>550.0</ele><time>2026-04-18T11:26:30Z</time></trkpt><trkpt lat="47.26660314566713" lon="8.728291039368491"><ele>550.0</ele><time>2026-04-18T11:26:31Z</time></trkpt><trkpt lat="47.26654799584282" lon="8.728385388032773"><ele>550.0</ele><time>2026-04-18T11:26:32Z</time></trkpt><trkpt lat="47.26649342589074" lon="8.728480696458218"><ele>550.0</ele><time>2026-04-18T11:26:33Z</time></trkpt><trkpt lat="47.26644060926995" lon="8.728575084742845"><ele>550.0</ele><time>2026-04-18T11:26:34Z</time></trkpt><trkpt lat="47.266386997696614" lon="8.728670024204737"><ele>550.0</ele><time>2026-04-18T11:26:35Z</time></trkpt><trkpt lat="47.26633432285852" lon="8.72876577405314"><ele>550.0</ele><time>2026-04-18T11:26:36Z</time></trkpt><trkpt lat="47.26628385009584" lon="8.728861675870753"><ele>550.0</ele><time>2026-04-18T11:26:37Z</time></trkpt><trkpt lat="47.26623593040707" lon="8.728962310594431"><ele>550.8333333333334</ele><time>2026-04-18T11:26:38Z</time></trkpt><trkpt lat="47.26618975095383" lon="8.729063604907356"><ele>551.6666666666667</ele><time>2026-04-18T11:26:39Z</time></trkpt><trkpt lat="47.26614585780781" lon="8.729165424744185"><ele>552.5</ele><time>2026-04-18T11:26:40Z</time></trkpt><trkpt lat="47.2661011213351" lon="8.729269381334218"><ele>553.3333333333334</ele><time>2026-04-18T11:26:41Z</time></trkpt><trkpt lat="47.26605958645482" lon="8.729374675033677"><ele>554.1666666666666</ele><time>2026-04-18T11:26:42Z</time></trkpt><trkpt lat="47.26602334992576" lon="8.72948398316795"><ele>555.0</ele><time>2026-04-18T11:26:43Z</time></trkpt><trkpt lat="47.265986559166414" lon="8.729593029949497"><ele>555.1666666666666</ele><time>2026-04-18T11:26:44Z</time></trkpt><trkpt lat="47.26595058727555" lon="8.729703400289925"><ele>555.3333333333334</ele><time>2026-04-18T11:26:45Z</time></trkpt><trkpt lat="47.26591531392318" lon="8.72981197892822"><ele>555.5</ele><time>2026-04-18T11:26:46Z</time></trkpt><trkpt lat="47.26588375757239" lon="8.729924700471694"><ele>555.6666666666667</ele><time>2026-04-18T11:26:47Z</time></trkpt><trkpt lat="47.26585509864021" lon="8.730038098968853"><ele>555.8333333333334</ele><time>2026-04-18T11:26:48Z</time></trkpt><trkpt lat="47.26582721329948" lon="8.730153105212421"><ele>556.0</ele><time>2026-04-18T11:26:49Z</time></trkpt><trkpt lat="47.265803307743525" lon="8.730268523095033"><ele>556.6666666666667</ele><time>2026-04-18T11:26:50Z</time></trkpt><trkpt lat="47.26578565709843" lon="8.730387910119475"><ele>557.3333333333334</ele><time>2026-04-18T11:26:51Z</time></trkpt><trkpt lat="47.26577388544319" lon="8.730509688892292"><ele>558.0</ele><time>2026-04-18T11:26:52Z</time></trkpt><trkpt lat="47.265773544965526" lon="8.730633051891136"><ele>558.6666666666666</ele><time>2026-04-18T11:26:53Z</time></trkpt><trkpt lat="47.265778522584775" lon="8.730756152694463"><ele>559.3333333333333</ele><time>2026-04-18T11:26:54Z</time></trkpt><trkpt lat="47.26578740418171" lon="8.73087843576038"><ele>560.0</ele><time>2026-04-18T11:26:55Z</time></trkpt><trkpt lat="47.26580094526012" lon="8.730998476379664"><ele>559.4</ele><time>2026-04-18T11:26:56Z</time></trkpt><trkpt lat="47.265813957856246" lon="8.731106266537202"><ele>558.8</ele><time>2026-04-18T11:26:57Z</time></trkpt><trkpt lat="47.26581842361833" lon="8.731272892530336"><ele>558.2</ele><time>2026-04-18T11:26:59Z</time></trkpt><trkpt lat="47.26576875047107" lon="8.73134639044937"><ele>557.6</ele><time>2026-04-18T11:27:01Z</time></trkpt><trkpt lat="47.265677272106934" lon="8.731336369315658"><ele>557.0</ele><time>2026-04-18T11:27:03Z</time></trkpt><trkpt lat="47.26555124067229" lon="8.731328823678293"><ele>560.0</ele><time>2026-04-18T11:27:05Z</time></trkpt><trkpt lat="47.265513362131486" lon="8.731428061074208"><ele>563.0</ele><time>2026-04-18T11:27:06Z</time></trkpt><trkpt lat="47.26551930188186" lon="8.73154236941026"><ele>566.0</ele><time>2026-04-18T11:27:07Z</time></trkpt><trkpt lat="47.26555704100824" lon="8.731661646238038"><ele>569.0</ele><time>2026-04-18T11:27:08Z</time></trkpt><trkpt lat="47.265575425306075" lon="8.731792501043905"><ele>572.0</ele><time>2026-04-18T11:27:09Z</time></trkpt><trkpt lat="47.26557015189735" lon="8.731983380434142"><ele>572.0</ele><time>2026-04-18T11:27:11Z</time></trkpt><trkpt lat="47.26556660721167" lon="8.732100773476605"><ele>572.0</ele><time>2026-04-18T11:27:12Z</time></trkpt><trkpt lat="47.26554246059136" lon="8.732215770216708"><ele>572.0</ele><time>2026-04-18T11:27:13Z</time></trkpt><trkpt lat="47.2655212107966" lon="8.73233210539774"><ele>572.0</ele><time>2026-04-18T11:27:14Z</time></trkpt><trkpt lat="47.26550748320971" lon="8.732451007721219"><ele>572.0</ele><time>2026-04-18T11:27:15Z</time></trkpt><trkpt lat="47.26549237602348" lon="8.732572529446587"><ele>572.0</ele><time>2026-04-18T11:27:16Z</time></trkpt><trkpt lat="47.26547534089596" lon="8.73269415191166"><ele>569.0</ele><time>2026-04-18T11:27:17Z</time></trkpt><trkpt lat="47.26545225052946" lon="8.732818187658708"><ele>566.0</ele><time>2026-04-18T11:27:18Z</time></trkpt><trkpt lat="47.26545716591449" lon="8.73295257102163"><ele>563.0</ele><time>2026-04-18T11:27:19Z</time></trkpt><trkpt lat="47.265440975442786" lon="8.733087695454104"><ele>560.0</ele><time>2026-04-18T11:27:20Z</time></trkpt><trkpt lat="47.265425703645505" lon="8.733221525398765"><ele>557.0</ele><time>2026-04-18T11:27:21Z</time></trkpt><trkpt lat="47.26541022586853" lon="8.733357160484358"><ele>557.0</ele><time>2026-04-18T11:27:22Z</time></trkpt><trkpt lat="47.26539493326589" lon="8.733494167670937"><ele>557.0</ele><time>2026-04-18T11:27:23Z</time></trkpt><trkpt lat="47.26538069037799" lon="8.733633512677105"><ele>557.0</ele><time>2026-04-18T11:27:24Z</time></trkpt><trkpt lat="47.2653741900223" lon="8.73377132797286"><ele>557.0</ele><time>2026-04-18T11:27:25Z</time></trkpt><trkpt lat="47.26538378542652" lon="8.733908588633033"><ele>557.0</ele><time>2026-04-18T11:27:26Z</time></trkpt><trkpt lat="47.26539844494654" lon="8.734045825135233"><ele>556.2</ele><time>2026-04-18T11:27:27Z</time></trkpt><trkpt lat="47.2654264170305" lon="8.734182693252231"><ele>555.4000000000001</ele><time>2026-04-18T11:27:28Z</time></trkpt><trkpt lat="47.265461919843574" lon="8.7343109349033"><ele>554.5999999999999</ele><time>2026-04-18T11:27:29Z</time></trkpt><trkpt lat="47.26550467444072" lon="8.73443442773994"><ele>553.8</ele><time>2026-04-18T11:27:30Z</time></trkpt><trkpt lat="47.26555496807284" lon="8.734553638067782"><ele>553.0</ele><time>2026-04-18T11:27:31Z</time></trkpt><trkpt lat="47.265616472423034" lon="8.734651899888554"><ele>552.6666666666667</ele><time>2026-04-18T11:27:32Z</time></trkpt><trkpt lat="47.26568223867807" lon="8.734743103121415"><ele>552.3333333333334</ele><time>2026-04-18T11:27:33Z</time></trkpt><trkpt lat="47.2657498291994" lon="8.734824377794004"><ele>552.0</ele><time>2026-04-18T11:27:34Z</time></trkpt><trkpt lat="47.265820102588364" lon="8.734904731437487"><ele>551.6666666666666</ele><time>2026-04-18T11:27:35Z</time></trkpt><trkpt lat="47.26589215488253" lon="8.734975104353126"><ele>551.3333333333333</ele><time>2026-04-18T11:27:36Z</time></trkpt><trkpt lat="47.26596546973851" lon="8.735043545550543"><ele>551.0</ele><time>2026-04-18T11:27:37Z</time></trkpt><trkpt lat="47.26602485436914" lon="8.735137488064924"><ele>551.0</ele><time>2026-04-18T11:27:38Z</time></trkpt><trkpt lat="47.26609124364888" lon="8.735216143346527"><ele>551.0</ele><time>2026-04-18T11:27:39Z</time></trkpt><trkpt lat="47.26615798823474" lon="8.735303826417885"><ele>551.0</ele><time>2026-04-18T11:27:40Z</time></trkpt><trkpt lat="47.26622637600374" lon="8.735394652087876"><ele>551.0</ele><time>2026-04-18T11:27:41Z</time></trkpt><trkpt lat="47.26629616648424" lon="8.735485468558432"><ele>551.0</ele><time>2026-04-18T11:27:42Z</time></trkpt><trkpt lat="47.26634575358293" lon="8.73560731730145"><ele>551.0</ele><time>2026-04-18T11:27:43Z</time></trkpt><trkpt lat="47.266404746459" lon="8.7357132746039"><ele>551.0</ele><time>2026-04-18T11:27:44Z</time></trkpt><trkpt lat="47.26648394042392" lon="8.735788403348366"><ele>551.0</ele><time>2026-04-18T11:27:45Z</time></trkpt><trkpt lat="47.26656966896396" lon="8.735874709264538"><ele>551.0</ele><time>2026-04-18T11:27:46Z</time></trkpt><trkpt lat="47.26652702544906" lon="8.736049435466985"><ele>551.0</ele><time>2026-04-18T11:27:47Z</time></trkpt><trkpt lat="47.26658461686865" lon="8.736149094689818"><ele>550.6</ele><time>2026-04-18T11:27:48Z</time></trkpt><trkpt lat="47.26663960686501" lon="8.736253122559258"><ele>550.2</ele><time>2026-04-18T11:27:49Z</time></trkpt><trkpt lat="47.266694152843414" lon="8.736361881999292"><ele>549.8</ele><time>2026-04-18T11:27:50Z</time></trkpt><trkpt lat="47.26674952952689" lon="8.736471419150233"><ele>549.4</ele><time>2026-04-18T11:27:51Z</time></trkpt><trkpt lat="47.26680579857426" lon="8.736582522272046"><ele>549.0</ele><time>2026-04-18T11:27:52Z</time></trkpt><trkpt lat="47.26686057098125" lon="8.73669362419805"><ele>549.0</ele><time>2026-04-18T11:27:53Z</time></trkpt><trkpt lat="47.26691479183212" lon="8.736800112732631"><ele>549.0</ele><time>2026-04-18T11:27:54Z</time></trkpt><trkpt lat="47.26698322841921" lon="8.736892339899695"><ele>549.0</ele><time>2026-04-18T11:27:55Z</time></trkpt><trkpt lat="47.26702180796358" lon="8.737012601130452"><ele>549.0</ele><time>2026-04-18T11:27:56Z</time></trkpt><trkpt lat="47.267077765603986" lon="8.737117013702653"><ele>549.0</ele><time>2026-04-18T11:27:57Z</time></trkpt><trkpt lat="47.26713698744192" lon="8.7372212009932"><ele>549.0</ele><time>2026-04-18T11:27:58Z</time></trkpt><trkpt lat="47.26719356069246" lon="8.737327611666217"><ele>549.0</ele><time>2026-04-18T11:27:59Z</time></trkpt><trkpt lat="47.267253015386466" lon="8.737432965305459"><ele>549.0</ele><time>2026-04-18T11:28:00Z</time></trkpt><trkpt lat="47.26731008662702" lon="8.737538219534487"><ele>549.0</ele><time>2026-04-18T11:28:01Z</time></trkpt><trkpt lat="47.26736447641583" lon="8.737642964452418"><ele>549.0</ele><time>2026-04-18T11:28:02Z</time></trkpt><trkpt lat="47.26742134440683" lon="8.737748379388034"><ele>548.4</ele><time>2026-04-18T11:28:03Z</time></trkpt><trkpt lat="47.267494372669454" lon="8.737835285972963"><ele>547.8</ele><time>2026-04-18T11:28:04Z</time></trkpt><trkpt lat="47.26756074290553" lon="8.737923357275896"><ele>547.2</ele><time>2026-04-18T11:28:05Z</time></trkpt><trkpt lat="47.26763067037463" lon="8.738002192802815"><ele>546.6</ele><time>2026-04-18T11:28:06Z</time></trkpt><trkpt lat="47.26770834902445" lon="8.738077145687118"><ele>546.0</ele><time>2026-04-18T11:28:07Z</time></trkpt><trkpt lat="47.26778665210539" lon="8.73814315480502"><ele>546.0</ele><time>2026-04-18T11:28:08Z</time></trkpt><trkpt lat="47.26786228191987" lon="8.738225201107957"><ele>546.0</ele><time>2026-04-18T11:28:09Z</time></trkpt><trkpt lat="47.267942862578664" lon="8.738288515152133"><ele>546.0</ele><time>2026-04-18T11:28:10Z</time></trkpt><trkpt lat="47.26802776882986" lon="8.738353993963802"><ele>546.0</ele><time>2026-04-18T11:28:11Z</time></trkpt><trkpt lat="47.268112361571184" lon="8.738411314063391"><ele>546.0</ele><time>2026-04-18T11:28:12Z</time></trkpt><trkpt lat="47.26819249940765" lon="8.738476128255533"><ele>546.2</ele><time>2026-04-18T11:28:13Z</time></trkpt><trkpt lat="47.26827373424447" lon="8.738538052074572"><ele>546.4000000000001</ele><time>2026-04-18T11:28:14Z</time></trkpt><trkpt lat="47.268354477878894" lon="8.738598079011613"><ele>546.6</ele><time>2026-04-18T11:28:15Z</time></trkpt><trkpt lat="47.26843368433173" lon="8.738661585599226"><ele>546.8000000000001</ele><time>2026-04-18T11:28:16Z</time></trkpt><trkpt lat="47.268512638543264" lon="8.738723600151387"><ele>547.0</ele><time>2026-04-18T11:28:17Z</time></trkpt><trkpt lat="47.26859632506917" lon="8.73877648542301"><ele>547.0</ele><time>2026-04-18T11:28:18Z</time></trkpt><trkpt lat="47.268676666481376" lon="8.738829687510854"><ele>547.0</ele><time>2026-04-18T11:28:19Z</time></trkpt><trkpt lat="47.268757702211005" lon="8.738888728799656"><ele>547.0</ele><time>2026-04-18T11:28:20Z</time></trkpt><trkpt lat="47.2688395217248" lon="8.738942777339519"><ele>547.0</ele><time>2026-04-18T11:28:21Z</time></trkpt><trkpt lat="47.26892563110447" lon="8.738986964865392"><ele>547.0</ele><time>2026-04-18T11:28:22Z</time></trkpt><trkpt lat="47.26901223841016" lon="8.739024889570846"><ele>546.3333333333334</ele><time>2026-04-18T11:28:23Z</time></trkpt><trkpt lat="47.269094441743256" lon="8.7390650434634"><ele>545.6666666666667</ele><time>2026-04-18T11:28:24Z</time></trkpt><trkpt lat="47.26917980442338" lon="8.739107311334212"><ele>545.0</ele><time>2026-04-18T11:28:25Z</time></trkpt><trkpt lat="47.26926111062313" lon="8.73914099243007"><ele>544.3333333333334</ele><time>2026-04-18T11:28:26Z</time></trkpt><trkpt lat="47.26934142826023" lon="8.739181753338626"><ele>543.6666666666666</ele><time>2026-04-18T11:28:27Z</time></trkpt><trkpt lat="47.26942068202032" lon="8.739221833845342"><ele>543.0</ele><time>2026-04-18T11:28:28Z</time></trkpt><trkpt lat="47.26949855531213" lon="8.739259571735497"><ele>543.0</ele><time>2026-04-18T11:28:29Z</time></trkpt><trkpt lat="47.26958147136409" lon="8.739303825501274"><ele>543.0</ele><time>2026-04-18T11:28:30Z</time></trkpt><trkpt lat="47.2696626672922" lon="8.739343554333157"><ele>543.0</ele><time>2026-04-18T11:28:31Z</time></trkpt><trkpt lat="47.2697415853118" lon="8.739383940785043"><ele>543.0</ele><time>2026-04-18T11:28:32Z</time></trkpt><trkpt lat="47.269820162856256" lon="8.739426105862693"><ele>543.0</ele><time>2026-04-18T11:28:33Z</time></trkpt><trkpt lat="47.269898378978525" lon="8.739468393668044"><ele>543.0</ele><time>2026-04-18T11:28:34Z</time></trkpt><trkpt lat="47.269974300594626" lon="8.73951912730861"><ele>543.6666666666666</ele><time>2026-04-18T11:28:35Z</time></trkpt><trkpt lat="47.27004623628819" lon="8.739577026621646"><ele>544.3333333333334</ele><time>2026-04-18T11:28:36Z</time></trkpt><trkpt lat="47.27011682385307" lon="8.739655806237248"><ele>545.0</ele><time>2026-04-18T11:28:37Z</time></trkpt><trkpt lat="47.270180431545946" lon="8.73973720097189"><ele>545.6666666666667</ele><time>2026-04-18T11:28:38Z</time></trkpt><trkpt lat="47.27024084228315" lon="8.739831400346347"><ele>546.3333333333334</ele><time>2026-04-18T11:28:39Z</time></trkpt><trkpt lat="47.27030861660072" lon="8.739913301031843"><ele>547.0</ele><time>2026-04-18T11:28:40Z</time></trkpt><trkpt lat="47.270364383781775" lon="8.740011387383394"><ele>547.0</ele><time>2026-04-18T11:28:41Z</time></trkpt><trkpt lat="47.27042810311376" lon="8.740103571961212"><ele>547.0</ele><time>2026-04-18T11:28:42Z</time></trkpt><trkpt lat="47.27049135568462" lon="8.74019364669276"><ele>547.0</ele><time>2026-04-18T11:28:43Z</time></trkpt><trkpt lat="47.27055487914447" lon="8.740282794086733"><ele>547.0</ele><time>2026-04-18T11:28:44Z</time></trkpt><trkpt lat="47.27061901849326" lon="8.740371874066833"><ele>547.0</ele><time>2026-04-18T11:28:45Z</time></trkpt><trkpt lat="47.270681554646885" lon="8.740462490438592"><ele>547.0</ele><time>2026-04-18T11:28:46Z</time></trkpt><trkpt lat="47.27074536672524" lon="8.740553223487064"><ele>546.4</ele><time>2026-04-18T11:28:47Z</time></trkpt><trkpt lat="47.270809622721494" lon="8.74064574508293"><ele>545.8000000000001</ele><time>2026-04-18T11:28:48Z</time></trkpt><trkpt lat="47.27087300950267" lon="8.740742091553544"><ele>545.2</ele><time>2026-04-18T11:28:49Z</time></trkpt><trkpt lat="47.27094839624365" lon="8.74082059318904"><ele>544.6</ele><time>2026-04-18T11:28:50Z</time></trkpt><trkpt lat="47.27100183538741" lon="8.740936853879626"><ele>544.0</ele><time>2026-04-18T11:28:51Z</time></trkpt><trkpt lat="47.27106968368697" lon="8.741036705968389"><ele>543.6</ele><time>2026-04-18T11:28:52Z</time></trkpt><trkpt lat="47.27112980125729" lon="8.741143751527803"><ele>543.2</ele><time>2026-04-18T11:28:53Z</time></trkpt><trkpt lat="47.27119509444213" lon="8.741256476315915"><ele>542.8000000000001</ele><time>2026-04-18T11:28:54Z</time></trkpt><trkpt lat="47.27125459999896" lon="8.741370623956888"><ele>542.4</ele><time>2026-04-18T11:28:55Z</time></trkpt><trkpt lat="47.27131637048322" lon="8.741483119187416"><ele>542.0</ele><time>2026-04-18T11:28:56Z</time></trkpt><trkpt lat="47.27137672639129" lon="8.741602728652321"><ele>542.0</ele><time>2026-04-18T11:28:57Z</time></trkpt><trkpt lat="47.27143121900363" lon="8.741721546468654"><ele>542.0</ele><time>2026-04-18T11:28:58Z</time></trkpt><trkpt lat="47.271488531795995" lon="8.741838388155962"><ele>542.0</ele><time>2026-04-18T11:28:59Z</time></trkpt><trkpt lat="47.27155021737717" lon="8.741949582709411"><ele>542.0</ele><time>2026-04-18T11:29:00Z</time></trkpt><trkpt lat="47.271607143635244" lon="8.742062103769086"><ele>542.0</ele><time>2026-04-18T11:29:01Z</time></trkpt><trkpt lat="47.27166310274464" lon="8.742172366598815"><ele>542.4</ele><time>2026-04-18T11:29:02Z</time></trkpt><trkpt lat="47.27171896711262" lon="8.742279283238824"><ele>542.8000000000001</ele><time>2026-04-18T11:29:03Z</time></trkpt><trkpt lat="47.2717742175811" lon="8.742382671173852"><ele>543.2</ele><time>2026-04-18T11:29:04Z</time></trkpt><trkpt lat="47.27182868420168" lon="8.7424864641711"><ele>543.6</ele><time>2026-04-18T11:29:05Z</time></trkpt><trkpt lat="47.27188779279169" lon="8.742592502799727"><ele>544.0</ele><time>2026-04-18T11:29:06Z</time></trkpt><trkpt lat="47.271949758482336" lon="8.742682351459353"><ele>543.8</ele><time>2026-04-18T11:29:07Z</time></trkpt><trkpt lat="47.27201223203783" lon="8.742772028904414"><ele>543.5999999999999</ele><time>2026-04-18T11:29:08Z</time></trkpt><trkpt lat="47.27207920754154" lon="8.742859527266686"><ele>543.4</ele><time>2026-04-18T11:29:09Z</time></trkpt><trkpt lat="47.272149280026596" lon="8.742943670732176"><ele>543.1999999999999</ele><time>2026-04-18T11:29:10Z</time></trkpt><trkpt lat="47.27221790835256" lon="8.743029528343127"><ele>543.0</ele><time>2026-04-18T11:29:11Z</time></trkpt><trkpt lat="47.27228770506641" lon="8.743118781935685"><ele>542.4</ele><time>2026-04-18T11:29:12Z</time></trkpt><trkpt lat="47.27235840286546" lon="8.743208777994452"><ele>541.8</ele><time>2026-04-18T11:29:13Z</time></trkpt><trkpt lat="47.272431844577305" lon="8.74329802230874"><ele>541.2</ele><time>2026-04-18T11:29:14Z</time></trkpt><trkpt lat="47.272505641168486" lon="8.743391900795404"><ele>540.6</ele><time>2026-04-18T11:29:15Z</time></trkpt><trkpt lat="47.272580719374325" lon="8.743483646942972"><ele>540.0</ele><time>2026-04-18T11:29:16Z</time></trkpt><trkpt lat="47.27265758829671" lon="8.743578642095862"><ele>539.4</ele><time>2026-04-18T11:29:17Z</time></trkpt><trkpt lat="47.272728534149884" lon="8.743677795846198"><ele>538.8</ele><time>2026-04-18T11:29:18Z</time></trkpt><trkpt lat="47.27279518596758" lon="8.743787128795306"><ele>538.2</ele><time>2026-04-18T11:29:19Z</time></trkpt><trkpt lat="47.27284726714389" lon="8.74391178257814"><ele>537.6</ele><time>2026-04-18T11:29:20Z</time></trkpt><trkpt lat="47.27289269111524" lon="8.744044665261143"><ele>537.0</ele><time>2026-04-18T11:29:21Z</time></trkpt><trkpt lat="47.2729312954732" lon="8.744184156935043"><ele>537.0</ele><time>2026-04-18T11:29:22Z</time></trkpt><trkpt lat="47.27296035814778" lon="8.744327348324951"><ele>537.0</ele><time>2026-04-18T11:29:23Z</time></trkpt><trkpt lat="47.272989644705866" lon="8.744470869589755"><ele>537.0</ele><time>2026-04-18T11:29:24Z</time></trkpt><trkpt lat="47.27302070249677" lon="8.744618168043939"><ele>537.0</ele><time>2026-04-18T11:29:25Z</time></trkpt><trkpt lat="47.273050913938505" lon="8.744763329626563"><ele>537.0</ele><time>2026-04-18T11:29:26Z</time></trkpt><trkpt lat="47.27308432398878" lon="8.744907067492312"><ele>536.4</ele><time>2026-04-18T11:29:27Z</time></trkpt><trkpt lat="47.27311254141294" lon="8.745053126187804"><ele>535.8000000000001</ele><time>2026-04-18T11:29:28Z</time></trkpt><trkpt lat="47.27314292888473" lon="8.745200873756172"><ele>535.2</ele><time>2026-04-18T11:29:29Z</time></trkpt><trkpt lat="47.27317267486004" lon="8.745345737374194"><ele>534.6</ele><time>2026-04-18T11:29:30Z</time></trkpt><trkpt lat="47.27320631058805" lon="8.745484929152873"><ele>534.0</ele><time>2026-04-18T11:29:31Z</time></trkpt><trkpt lat="47.273236988576464" lon="8.74562696947773"><ele>534.0</ele><time>2026-04-18T11:29:32Z</time></trkpt><trkpt lat="47.27326512874884" lon="8.7457660850323"><ele>534.0</ele><time>2026-04-18T11:29:33Z</time></trkpt><trkpt lat="47.27329389952265" lon="8.745904471776791"><ele>534.0</ele><time>2026-04-18T11:29:34Z</time></trkpt><trkpt lat="47.27332203831289" lon="8.746041537886413"><ele>534.0</ele><time>2026-04-18T11:29:35Z</time></trkpt><trkpt lat="47.27335072795796" lon="8.746178078913667"><ele>534.0</ele><time>2026-04-18T11:29:36Z</time></trkpt><trkpt lat="47.273379784761346" lon="8.746313033789551"><ele>534.0</ele><time>2026-04-18T11:29:37Z</time></trkpt><trkpt lat="47.2734095653829" lon="8.746447963322325"><ele>534.0</ele><time>2026-04-18T11:29:38Z</time></trkpt><trkpt lat="47.27343615708866" lon="8.746580558997962"><ele>534.0</ele><time>2026-04-18T11:29:39Z</time></trkpt><trkpt lat="47.27346283186802" lon="8.746714319982845"><ele>534.0</ele><time>2026-04-18T11:29:40Z</time></trkpt><trkpt lat="47.273491947879116" lon="8.746849238853503"><ele>534.0</ele><time>2026-04-18T11:29:41Z</time></trkpt><trkpt lat="47.27351982786809" lon="8.746978831843863"><ele>534.2</ele><time>2026-04-18T11:29:42Z</time></trkpt><trkpt lat="47.273546521775906" lon="8.747111935461808"><ele>534.4</ele><time>2026-04-18T11:29:43Z</time></trkpt><trkpt lat="47.27357426263554" lon="8.74724332437781"><ele>534.6</ele><time>2026-04-18T11:29:44Z</time></trkpt><trkpt lat="47.27360083782234" lon="8.747375799788754"><ele>534.8</ele><time>2026-04-18T11:29:45Z</time></trkpt><trkpt lat="47.27362749810461" lon="8.747505957220268"><ele>535.0</ele><time>2026-04-18T11:29:46Z</time></trkpt><trkpt lat="47.273656993616235" lon="8.747635623823648"><ele>534.8</ele><time>2026-04-18T11:29:47Z</time></trkpt><trkpt lat="47.273687697322266" lon="8.747764232386103"><ele>534.6</ele><time>2026-04-18T11:29:48Z</time></trkpt><trkpt lat="47.273729426259614" lon="8.747887053891189"><ele>534.4</ele><time>2026-04-18T11:29:49Z</time></trkpt><trkpt lat="47.27380826174936" lon="8.747968560521668"><ele>534.2</ele><time>2026-04-18T11:29:50Z</time></trkpt><trkpt lat="47.27389494569352" lon="8.748021529837233"><ele>534.0</ele><time>2026-04-18T11:29:51Z</time></trkpt><trkpt lat="47.273997545136915" lon="8.748049522567486"><ele>532.4</ele><time>2026-04-18T11:29:52Z</time></trkpt><trkpt lat="47.27409901899706" lon="8.748010540493699"><ele>530.8</ele><time>2026-04-18T11:29:53Z</time></trkpt><trkpt lat="47.27419285409136" lon="8.747930460802483"><ele>529.2</ele><time>2026-04-18T11:29:54Z</time></trkpt><trkpt lat="47.27429798308293" lon="8.747865159376534"><ele>527.6</ele><time>2026-04-18T11:29:55Z</time></trkpt><trkpt lat="47.27439949217496" lon="8.7477885246113"><ele>526.0</ele><time>2026-04-18T11:29:56Z</time></trkpt><trkpt lat="47.274503655545374" lon="8.747711121752337"><ele>526.25</ele><time>2026-04-18T11:29:57Z</time></trkpt><trkpt lat="47.27460928303592" lon="8.74762589394776"><ele>526.5</ele><time>2026-04-18T11:29:58Z</time></trkpt><trkpt lat="47.27471769287037" lon="8.747547622522186"><ele>526.75</ele><time>2026-04-18T11:29:59Z</time></trkpt><trkpt lat="47.274839198532234" lon="8.747495489201057"><ele>527.0</ele><time>2026-04-18T11:30:00Z</time></trkpt><trkpt lat="47.27496208306301" lon="8.74750569763882"><ele>525.6</ele><time>2026-04-18T11:30:01Z</time></trkpt><trkpt lat="47.27503803269999" lon="8.747624478413426"><ele>524.2</ele><time>2026-04-18T11:30:02Z</time></trkpt><trkpt lat="47.27502639905737" lon="8.74776607082081"><ele>522.8</ele><time>2026-04-18T11:30:03Z</time></trkpt><trkpt lat="47.27507123243941" lon="8.747878515708175"><ele>521.4</ele><time>2026-04-18T11:30:04Z</time></trkpt><trkpt lat="47.27510254114829" lon="8.748081020445998"><ele>520.0</ele><time>2026-04-18T11:30:05Z</time></trkpt><trkpt lat="47.27514306941518" lon="8.748241756264504"><ele>519.75</ele><time>2026-04-18T11:30:06Z</time></trkpt><trkpt lat="47.27518494340403" lon="8.748406931956607"><ele>519.5</ele><time>2026-04-18T11:30:07Z</time></trkpt><trkpt lat="47.2752251613148" lon="8.74856778613747"><ele>519.25</ele><time>2026-04-18T11:30:08Z</time></trkpt><trkpt lat="47.27527645600331" lon="8.748719354632193"><ele>519.0</ele><time>2026-04-18T11:30:09Z</time></trkpt><trkpt lat="47.275313420527205" lon="8.748880739687591"><ele>518.5</ele><time>2026-04-18T11:30:10Z</time></trkpt><trkpt lat="47.27535191159123" lon="8.749038748875943"><ele>518.0</ele><time>2026-04-18T11:30:11Z</time></trkpt><trkpt lat="47.275391342134355" lon="8.749199043345747"><ele>517.5</ele><time>2026-04-18T11:30:12Z</time></trkpt><trkpt lat="47.27542909635945" lon="8.749355107236214"><ele>517.0</ele><time>2026-04-18T11:30:13Z</time></trkpt><trkpt lat="47.27546405192534" lon="8.749507708195294"><ele>516.4</ele><time>2026-04-18T11:30:14Z</time></trkpt><trkpt lat="47.2754930117403" lon="8.749662556655002"><ele>515.8000000000001</ele><time>2026-04-18T11:30:15Z</time></trkpt><trkpt lat="47.2755090163026" lon="8.74982081620247"><ele>515.2</ele><time>2026-04-18T11:30:16Z</time></trkpt><trkpt lat="47.27552283887391" lon="8.749975236566618"><ele>514.6</ele><time>2026-04-18T11:30:17Z</time></trkpt><trkpt lat="47.275537357711926" lon="8.750130845220186"><ele>514.0</ele><time>2026-04-18T11:30:18Z</time></trkpt><trkpt lat="47.275551186195216" lon="8.750283760497277"><ele>514.0</ele><time>2026-04-18T11:30:19Z</time></trkpt><trkpt lat="47.275566735028214" lon="8.750433658585"><ele>514.0</ele><time>2026-04-18T11:30:20Z</time></trkpt><trkpt lat="47.27558218022407" lon="8.750583831893316"><ele>514.0</ele><time>2026-04-18T11:30:21Z</time></trkpt><trkpt lat="47.27560007534648" lon="8.750730720578026"><ele>514.0</ele><time>2026-04-18T11:30:22Z</time></trkpt><trkpt lat="47.275617344295156" lon="8.750878338788523"><ele>514.0</ele><time>2026-04-18T11:30:23Z</time></trkpt><trkpt lat="47.2756333092791" lon="8.751025247862096"><ele>514.0</ele><time>2026-04-18T11:30:24Z</time></trkpt><trkpt lat="47.27564858276469" lon="8.751170668253318"><ele>514.0</ele><time>2026-04-18T11:30:25Z</time></trkpt><trkpt lat="47.27566565274627" lon="8.751315825040969"><ele>514.0</ele><time>2026-04-18T11:30:26Z</time></trkpt><trkpt lat="47.275681742786794" lon="8.751455058590675"><ele>514.0</ele><time>2026-04-18T11:30:27Z</time></trkpt><trkpt lat="47.27570057227591" lon="8.751600940838868"><ele>514.0</ele><time>2026-04-18T11:30:28Z</time></trkpt><trkpt lat="47.27571954282235" lon="8.751745272534507"><ele>514.0</ele><time>2026-04-18T11:30:29Z</time></trkpt><trkpt lat="47.27574015941923" lon="8.75188945008282"><ele>514.0</ele><time>2026-04-18T11:30:30Z</time></trkpt><trkpt lat="47.27575897247413" lon="8.75202839252972"><ele>514.0</ele><time>2026-04-18T11:30:31Z</time></trkpt><trkpt lat="47.27577497387743" lon="8.752169881528975"><ele>514.0</ele><time>2026-04-18T11:30:32Z</time></trkpt><trkpt lat="47.27578709898579" lon="8.752319276920439"><ele>514.0</ele><time>2026-04-18T11:30:33Z</time></trkpt><trkpt lat="47.27580531810667" lon="8.752463221290485"><ele>514.0</ele><time>2026-04-18T11:30:34Z</time></trkpt><trkpt lat="47.27582631337023" lon="8.75260180814744"><ele>514.0</ele><time>2026-04-18T11:30:35Z</time></trkpt><trkpt lat="47.275843277344315" lon="8.752746056722179"><ele>514.0</ele><time>2026-04-18T11:30:36Z</time></trkpt><trkpt lat="47.27585946313363" lon="8.752886161454839"><ele>514.0</ele><time>2026-04-18T11:30:37Z</time></trkpt><trkpt lat="47.275875551208166" lon="8.753028681713348"><ele>514.0</ele><time>2026-04-18T11:30:38Z</time></trkpt><trkpt lat="47.27589343121539" lon="8.753171108673028"><ele>513.4</ele><time>2026-04-18T11:30:39Z</time></trkpt><trkpt lat="47.27590879214523" lon="8.753310668946929"><ele>512.8</ele><time>2026-04-18T11:30:40Z</time></trkpt><trkpt lat="47.27592962242867" lon="8.753451013261682"><ele>512.2</ele><time>2026-04-18T11:30:41Z</time></trkpt><trkpt lat="47.27594375093844" lon="8.753592331379034"><ele>511.6</ele><time>2026-04-18T11:30:42Z</time></trkpt><trkpt lat="47.27595897256255" lon="8.753733328573842"><ele>511.0</ele><time>2026-04-18T11:30:43Z</time></trkpt><trkpt lat="47.2759803219363" lon="8.753873319472493"><ele>510.8</ele><time>2026-04-18T11:30:44Z</time></trkpt><trkpt lat="47.276001510052645" lon="8.75401366790614"><ele>510.6</ele><time>2026-04-18T11:30:45Z</time></trkpt><trkpt lat="47.276017372405086" lon="8.754157708061367"><ele>510.4</ele><time>2026-04-18T11:30:46Z</time></trkpt><trkpt lat="47.27603654337476" lon="8.754300374777479"><ele>510.2</ele><time>2026-04-18T11:30:47Z</time></trkpt><trkpt lat="47.276054225571656" lon="8.754441750072566"><ele>510.0</ele><time>2026-04-18T11:30:48Z</time></trkpt><trkpt lat="47.276071439368486" lon="8.754585328342015"><ele>510.0</ele><time>2026-04-18T11:30:49Z</time></trkpt><trkpt lat="47.27609070490787" lon="8.754727980162915"><ele>510.0</ele><time>2026-04-18T11:30:50Z</time></trkpt><trkpt lat="47.276103586337804" lon="8.754869497822433"><ele>510.0</ele><time>2026-04-18T11:30:51Z</time></trkpt><trkpt lat="47.276121393487365" lon="8.755014675172566"><ele>510.0</ele><time>2026-04-18T11:30:52Z</time></trkpt><trkpt lat="47.27614079477555" lon="8.755157966941056"><ele>510.0</ele><time>2026-04-18T11:30:53Z</time></trkpt><trkpt lat="47.27615598973363" lon="8.755307178154435"><ele>510.2</ele><time>2026-04-18T11:30:54Z</time></trkpt><trkpt lat="47.27616646584986" lon="8.755453605736319"><ele>510.4</ele><time>2026-04-18T11:30:55Z</time></trkpt><trkpt lat="47.27617068199406" lon="8.755603360527045"><ele>510.6</ele><time>2026-04-18T11:30:56Z</time></trkpt><trkpt lat="47.27617120669743" lon="8.755750472808113"><ele>510.8</ele><time>2026-04-18T11:30:57Z</time></trkpt><trkpt lat="47.276185915079765" lon="8.755905319445919"><ele>511.0</ele><time>2026-04-18T11:30:58Z</time></trkpt><trkpt lat="47.27620727583903" lon="8.756054148819933"><ele>511.20000000000005</ele><time>2026-04-18T11:30:59Z</time></trkpt><trkpt lat="47.27625801985225" lon="8.756192168428035"><ele>511.40000000000003</ele><time>2026-04-18T11:31:00Z</time></trkpt><trkpt lat="47.27627996249298" lon="8.75633933538446"><ele>511.6</ele><time>2026-04-18T11:31:01Z</time></trkpt><trkpt lat="47.27630815473161" lon="8.756487536281663"><ele>511.8</ele><time>2026-04-18T11:31:02Z</time></trkpt><trkpt lat="47.276328855859205" lon="8.756636995353082"><ele>512.0</ele><time>2026-04-18T11:31:03Z</time></trkpt><trkpt lat="47.27637048603022" lon="8.756774546601301"><ele>512.0</ele><time>2026-04-18T11:31:04Z</time></trkpt><trkpt lat="47.27640910912527" lon="8.756913800866345"><ele>512.0</ele><time>2026-04-18T11:31:05Z</time></trkpt><trkpt lat="47.27644670686337" lon="8.757053314646948"><ele>512.0</ele><time>2026-04-18T11:31:06Z</time></trkpt><trkpt lat="47.276483380856234" lon="8.75719317134005"><ele>512.0</ele><time>2026-04-18T11:31:07Z</time></trkpt><trkpt lat="47.276516806545025" lon="8.757333640428236"><ele>512.0</ele><time>2026-04-18T11:31:08Z</time></trkpt><trkpt lat="47.27654649857204" lon="8.757470639218935"><ele>511.6</ele><time>2026-04-18T11:31:09Z</time></trkpt><trkpt lat="47.276573986701166" lon="8.757618941156524"><ele>511.20000000000005</ele><time>2026-04-18T11:31:10Z</time></trkpt><trkpt lat="47.276600975974816" lon="8.757767075027635"><ele>510.8</ele><time>2026-04-18T11:31:11Z</time></trkpt><trkpt lat="47.27663093161688" lon="8.757910440331939"><ele>510.4</ele><time>2026-04-18T11:31:12Z</time></trkpt><trkpt lat="47.27666409478815" lon="8.758050121072687"><ele>510.0</ele><time>2026-04-18T11:31:13Z</time></trkpt><trkpt lat="47.276710772601724" lon="8.758179083769663"><ele>510.0</ele><time>2026-04-18T11:31:14Z</time></trkpt><trkpt lat="47.27676761998191" lon="8.758302974413422"><ele>510.0</ele><time>2026-04-18T11:31:15Z</time></trkpt><trkpt lat="47.27683074077316" lon="8.758421823691512"><ele>510.0</ele><time>2026-04-18T11:31:16Z</time></trkpt><trkpt lat="47.27690577889851" lon="8.758526059917697"><ele>510.0</ele><time>2026-04-18T11:31:17Z</time></trkpt><trkpt lat="47.27699788590693" lon="8.7585979315923"><ele>510.0</ele><time>2026-04-18T11:31:18Z</time></trkpt><trkpt lat="47.27710157080407" lon="8.758693088159283"><ele>509.6</ele><time>2026-04-18T11:31:19Z</time></trkpt><trkpt lat="47.27719737819013" lon="8.75876839117681"><ele>509.2</ele><time>2026-04-18T11:31:20Z</time></trkpt><trkpt lat="47.27729373062344" lon="8.758856083643627"><ele>508.79999999999995</ele><time>2026-04-18T11:31:21Z</time></trkpt><trkpt lat="47.27738922284431" lon="8.758936874113521"><ele>508.4</ele><time>2026-04-18T11:31:22Z</time></trkpt><trkpt lat="47.2774862872239" lon="8.759022270916738"><ele>508.0</ele><time>2026-04-18T11:31:23Z</time></trkpt><trkpt lat="47.27758628825923" lon="8.759097741616339"><ele>507.4</ele><time>2026-04-18T11:31:24Z</time></trkpt><trkpt lat="47.277690419289506" lon="8.759166732903948"><ele>506.79999999999995</ele><time>2026-04-18T11:31:25Z</time></trkpt><trkpt lat="47.277790728420236" lon="8.759237249317732"><ele>506.2</ele><time>2026-04-18T11:31:26Z</time></trkpt><trkpt lat="47.2778906437954" lon="8.759308030359815"><ele>505.6</ele><time>2026-04-18T11:31:27Z</time></trkpt><trkpt lat="47.277990934912474" lon="8.759369746149833"><ele>505.0</ele><time>2026-04-18T11:31:28Z</time></trkpt><trkpt lat="47.27808989948362" lon="8.75943181668429"><ele>504.8</ele><time>2026-04-18T11:31:29Z</time></trkpt><trkpt lat="47.27818165284539" lon="8.75950948804631"><ele>504.6</ele><time>2026-04-18T11:31:30Z</time></trkpt><trkpt lat="47.278267609944876" lon="8.759591834167095"><ele>504.4</ele><time>2026-04-18T11:31:31Z</time></trkpt><trkpt lat="47.27836434794115" lon="8.759665384480442"><ele>504.2</ele><time>2026-04-18T11:31:32Z</time></trkpt><trkpt lat="47.27845509020318" lon="8.759721282886217"><ele>504.0</ele><time>2026-04-18T11:31:33Z</time></trkpt><trkpt lat="47.278551163018484" lon="8.759774162347657"><ele>504.0</ele><time>2026-04-18T11:31:34Z</time></trkpt><trkpt lat="47.278657375035785" lon="8.759799010852143"><ele>504.0</ele><time>2026-04-18T11:31:35Z</time></trkpt><trkpt lat="47.278758958078726" lon="8.759782304921096"><ele>504.0</ele><time>2026-04-18T11:31:36Z</time></trkpt><trkpt lat="47.27885891404463" lon="8.75978020054056"><ele>504.0</ele><time>2026-04-18T11:31:37Z</time></trkpt><trkpt lat="47.27895589030178" lon="8.759794304429667"><ele>504.0</ele><time>2026-04-18T11:31:38Z</time></trkpt><trkpt lat="47.27905558986765" lon="8.759815586100492"><ele>503.2</ele><time>2026-04-18T11:31:39Z</time></trkpt><trkpt lat="47.27915555010552" lon="8.759839575989815"><ele>502.4</ele><time>2026-04-18T11:31:40Z</time></trkpt><trkpt lat="47.27925356331398" lon="8.759864940943451"><ele>501.6</ele><time>2026-04-18T11:31:41Z</time></trkpt><trkpt lat="47.27934982880636" lon="8.759890348753864"><ele>500.8</ele><time>2026-04-18T11:31:42Z</time></trkpt><trkpt lat="47.2794476030184" lon="8.759905393010216"><ele>500.0</ele><time>2026-04-18T11:31:43Z</time></trkpt><trkpt lat="47.2795477575455" lon="8.759920861487897"><ele>500.0</ele><time>2026-04-18T11:31:44Z</time></trkpt><trkpt lat="47.279645261043946" lon="8.759941432180828"><ele>500.0</ele><time>2026-04-18T11:31:45Z</time></trkpt><trkpt lat="47.2797434485777" lon="8.759964387719215"><ele>500.0</ele><time>2026-04-18T11:31:46Z</time></trkpt><trkpt lat="47.27984196107084" lon="8.759981976603093"><ele>500.0</ele><time>2026-04-18T11:31:47Z</time></trkpt><trkpt lat="47.27994088899496" lon="8.759997111979542"><ele>500.0</ele><time>2026-04-18T11:31:48Z</time></trkpt><trkpt lat="47.28003817766566" lon="8.760016608901259"><ele>499.6</ele><time>2026-04-18T11:31:49Z</time></trkpt><trkpt lat="47.28013778224766" lon="8.760040404588203"><ele>499.2</ele><time>2026-04-18T11:31:50Z</time></trkpt><trkpt lat="47.28023837034206" lon="8.760062883810694"><ele>498.79999999999995</ele><time>2026-04-18T11:31:51Z</time></trkpt><trkpt lat="47.28033720816896" lon="8.760086243635692"><ele>498.4</ele><time>2026-04-18T11:31:52Z</time></trkpt><trkpt lat="47.28043629355051" lon="8.760110653693305"><ele>498.0</ele><time>2026-04-18T11:31:53Z</time></trkpt><trkpt lat="47.28053662322015" lon="8.76013717336372"><ele>497.59999999999997</ele><time>2026-04-18T11:31:54Z</time></trkpt><trkpt lat="47.280636276490945" lon="8.760174035471712"><ele>497.19999999999993</ele><time>2026-04-18T11:31:55Z</time></trkpt><trkpt lat="47.280737486994404" lon="8.760210594527548"><ele>496.8</ele><time>2026-04-18T11:31:56Z</time></trkpt><trkpt lat="47.280843326093496" lon="8.760219700268951"><ele>496.4</ele><time>2026-04-18T11:31:57Z</time></trkpt><trkpt lat="47.28094771863514" lon="8.760240060079616"><ele>496.0</ele><time>2026-04-18T11:31:58Z</time></trkpt><trkpt lat="47.28104869945824" lon="8.76029055530965"><ele>496.0</ele><time>2026-04-18T11:31:59Z</time></trkpt><trkpt lat="47.281151818112434" lon="8.76035025499785"><ele>496.0</ele><time>2026-04-18T11:32:00Z</time></trkpt><trkpt lat="47.281249546828725" lon="8.760409827790676"><ele>496.0</ele><time>2026-04-18T11:32:01Z</time></trkpt><trkpt lat="47.281343593953" lon="8.760472351903452"><ele>496.0</ele><time>2026-04-18T11:32:02Z</time></trkpt><trkpt lat="47.281438379763784" lon="8.760535761969491"><ele>496.0</ele><time>2026-04-18T11:32:03Z</time></trkpt><trkpt lat="47.28152929567278" lon="8.760606929177305"><ele>495.20000000000005</ele><time>2026-04-18T11:32:04Z</time></trkpt><trkpt lat="47.28162214944959" lon="8.760673998103247"><ele>494.40000000000003</ele><time>2026-04-18T11:32:05Z</time></trkpt><trkpt lat="47.28171289134053" lon="8.760739889340675"><ele>493.6</ele><time>2026-04-18T11:32:06Z</time></trkpt><trkpt lat="47.28180868197287" lon="8.760810428168018"><ele>492.8</ele><time>2026-04-18T11:32:07Z</time></trkpt><trkpt lat="47.28190347710438" lon="8.760879750516645"><ele>492.0</ele><time>2026-04-18T11:32:08Z</time></trkpt><trkpt lat="47.281999245433155" lon="8.760948674312079"><ele>492.0</ele><time>2026-04-18T11:32:09Z</time></trkpt><trkpt lat="47.28209400246913" lon="8.76101556384288"><ele>492.00000000000006</ele><time>2026-04-18T11:32:10Z</time></trkpt><trkpt lat="47.282191677894176" lon="8.76108604394527"><ele>492.00000000000006</ele><time>2026-04-18T11:32:11Z</time></trkpt><trkpt lat="47.282288465560214" lon="8.761154826037993"><ele>492.0</ele><time>2026-04-18T11:32:12Z</time></trkpt><trkpt lat="47.28238833941273" lon="8.761215290051734"><ele>492.0</ele><time>2026-04-18T11:32:13Z</time></trkpt><trkpt lat="47.28248504457298" lon="8.761290173671691"><ele>491.20000000000005</ele><time>2026-04-18T11:32:14Z</time></trkpt><trkpt lat="47.28258099122683" lon="8.761362290530263"><ele>490.40000000000003</ele><time>2026-04-18T11:32:15Z</time></trkpt><trkpt lat="47.28267525846532" lon="8.761432648457959"><ele>489.59999999999997</ele><time>2026-04-18T11:32:16Z</time></trkpt><trkpt lat="47.282779841520956" lon="8.76151157978842"><ele>488.79999999999995</ele><time>2026-04-18T11:32:17Z</time></trkpt><trkpt lat="47.28288512334321" lon="8.7615830087881"><ele>488.0</ele><time>2026-04-18T11:32:18Z</time></trkpt><trkpt lat="47.28299041897283" lon="8.761654436488204"><ele>488.0</ele><time>2026-04-18T11:32:19Z</time></trkpt><trkpt lat="47.283095290853645" lon="8.761731203915847"><ele>488.0</ele><time>2026-04-18T11:32:20Z</time></trkpt><trkpt lat="47.28319933284949" lon="8.761807706157553"><ele>488.0</ele><time>2026-04-18T11:32:21Z</time></trkpt><trkpt lat="47.283304727420806" lon="8.761879432844818"><ele>488.0</ele><time>2026-04-18T11:32:22Z</time></trkpt><trkpt lat="47.28341231164459" lon="8.761948026279022"><ele>486.25</ele><time>2026-04-18T11:32:23Z</time></trkpt><trkpt lat="47.283520004334314" lon="8.762018269864532"><ele>484.5</ele><time>2026-04-18T11:32:24Z</time></trkpt><trkpt lat="47.283619301623546" lon="8.76209374084862"><ele>482.75</ele><time>2026-04-18T11:32:25Z</time></trkpt><trkpt lat="47.283713030354896" lon="8.762186215198513"><ele>481.0</ele><time>2026-04-18T11:32:26Z</time></trkpt><trkpt lat="47.283801174360775" lon="8.762278088212321"><ele>481.0</ele><time>2026-04-18T11:32:27Z</time></trkpt><trkpt lat="47.28388918585905" lon="8.762369971291413"><ele>481.0</ele><time>2026-04-18T11:32:28Z</time></trkpt><trkpt lat="47.283970461033654" lon="8.762453515528042"><ele>481.0</ele><time>2026-04-18T11:32:29Z</time></trkpt><trkpt lat="47.28404806269298" lon="8.762532378182861"><ele>481.0</ele><time>2026-04-18T11:32:30Z</time></trkpt><trkpt lat="47.28412003541246" lon="8.762616873858464"><ele>481.0</ele><time>2026-04-18T11:32:31Z</time></trkpt><trkpt lat="47.28418911361025" lon="8.762704694382135"><ele>482.8571428571428</ele><time>2026-04-18T11:32:32Z</time></trkpt><trkpt lat="47.28425255699053" lon="8.762785943806138"><ele>484.71428571428567</ele><time>2026-04-18T11:32:33Z</time></trkpt><trkpt lat="47.28431487500001" lon="8.762865150516125"><ele>486.57142857142856</ele><time>2026-04-18T11:32:34Z</time></trkpt><trkpt lat="47.2843708839615" lon="8.762927641978255"><ele>488.4285714285714</ele><time>2026-04-18T11:32:35Z</time></trkpt><trkpt lat="47.28442943260867" lon="8.762983714328568"><ele>490.2857142857142</ele><time>2026-04-18T11:32:36Z</time></trkpt><trkpt lat="47.28448322075051" lon="8.76305692064936"><ele>492.14285714285717</ele><time>2026-04-18T11:32:37Z</time></trkpt><trkpt lat="47.28452273261817" lon="8.7631381606854"><ele>494.0</ele><time>2026-04-18T11:32:38Z</time></trkpt><trkpt lat="47.284568548112645" lon="8.76326819472148"><ele>493.99999999999994</ele><time>2026-04-18T11:32:40Z</time></trkpt><trkpt lat="47.28446602079404" lon="8.763344539157886"><ele>494.0</ele><time>2026-04-18T11:32:41Z</time></trkpt><trkpt lat="47.28442187151192" lon="8.763457881390371"><ele>494.0</ele><time>2026-04-18T11:32:42Z</time></trkpt><trkpt lat="47.28438227860432" lon="8.763556081619704"><ele>494.0</ele><time>2026-04-18T11:32:43Z</time></trkpt><trkpt lat="47.28435394280909" lon="8.763661610253045"><ele>493.99999999999994</ele><time>2026-04-18T11:32:44Z</time></trkpt><trkpt lat="47.28430484212902" lon="8.763748173278461"><ele>494.0</ele><time>2026-04-18T11:32:45Z</time></trkpt><trkpt lat="47.28426108280567" lon="8.763854456311567"><ele>493.8333333333333</ele><time>2026-04-18T11:32:46Z</time></trkpt><trkpt lat="47.28421609538342" lon="8.763957557154473"><ele>493.66666666666663</ele><time>2026-04-18T11:32:47Z</time></trkpt><trkpt lat="47.28417795949618" lon="8.764071447465373"><ele>493.5</ele><time>2026-04-18T11:32:48Z</time></trkpt><trkpt lat="47.28413287896959" lon="8.764175789517397"><ele>493.33333333333337</ele><time>2026-04-18T11:32:49Z</time></trkpt><trkpt lat="47.28408985571761" lon="8.764285514828945"><ele>493.1666666666667</ele><time>2026-04-18T11:32:50Z</time></trkpt><trkpt lat="47.28404903805463" lon="8.764397589901465"><ele>493.0</ele><time>2026-04-18T11:32:51Z</time></trkpt><trkpt lat="47.28400759586963" lon="8.764510492320964"><ele>492.83333333333337</ele><time>2026-04-18T11:32:52Z</time></trkpt><trkpt lat="47.28396734842111" lon="8.764619168773997"><ele>492.6666666666667</ele><time>2026-04-18T11:32:53Z</time></trkpt><trkpt lat="47.283923182675956" lon="8.764733113776103"><ele>492.5</ele><time>2026-04-18T11:32:54Z</time></trkpt><trkpt lat="47.28387485103545" lon="8.764844344596014"><ele>492.33333333333337</ele><time>2026-04-18T11:32:55Z</time></trkpt><trkpt lat="47.283817761554374" lon="8.764947737912879"><ele>492.1666666666667</ele><time>2026-04-18T11:32:56Z</time></trkpt><trkpt lat="47.28375212392796" lon="8.765040352149"><ele>492.0</ele><time>2026-04-18T11:32:57Z</time></trkpt><trkpt lat="47.28367910277448" lon="8.765124644847079"><ele>492.0</ele><time>2026-04-18T11:32:58Z</time></trkpt><trkpt lat="47.28360685212215" lon="8.765206220932198"><ele>492.00000000000006</ele><time>2026-04-18T11:32:59Z</time></trkpt><trkpt lat="47.28353434524798" lon="8.765289667899152"><ele>492.00000000000006</ele><time>2026-04-18T11:33:00Z</time></trkpt><trkpt lat="47.28346347121202" lon="8.765378840752213"><ele>492.0</ele><time>2026-04-18T11:33:01Z</time></trkpt><trkpt lat="47.28339047904076" lon="8.76547127412088"><ele>492.0</ele><time>2026-04-18T11:33:02Z</time></trkpt><trkpt lat="47.283325377263516" lon="8.765581688687146"><ele>492.0</ele><time>2026-04-18T11:33:03Z</time></trkpt><trkpt lat="47.28328178043385" lon="8.765715699804328"><ele>492.00000000000006</ele><time>2026-04-18T11:33:04Z</time></trkpt><trkpt lat="47.283263012861845" lon="8.765863532312547"><ele>492.00000000000006</ele><time>2026-04-18T11:33:05Z</time></trkpt><trkpt lat="47.28327741252263" lon="8.766003029597071"><ele>492.0</ele><time>2026-04-18T11:33:06Z</time></trkpt><trkpt lat="47.28331427705357" lon="8.766127184674257"><ele>492.0</ele><time>2026-04-18T11:33:07Z</time></trkpt><trkpt lat="47.28336800727059" lon="8.766230923651534"><ele>492.0</ele><time>2026-04-18T11:33:08Z</time></trkpt><trkpt lat="47.283450525311906" lon="8.766297833149004"><ele>492.00000000000006</ele><time>2026-04-18T11:33:09Z</time></trkpt><trkpt lat="47.28354250373184" lon="8.766333574933194"><ele>492.00000000000006</ele><time>2026-04-18T11:33:10Z</time></trkpt><trkpt lat="47.283638241452515" lon="8.766364053297664"><ele>492.0</ele><time>2026-04-18T11:33:11Z</time></trkpt><trkpt lat="47.28372625056045" lon="8.766394290837177"><ele>492.0</ele><time>2026-04-18T11:33:12Z</time></trkpt><trkpt lat="47.2838029596142" lon="8.766411953491046"><ele>492.0</ele><time>2026-04-18T11:33:13Z</time></trkpt><trkpt lat="47.28387835021006" lon="8.766432173878052"><ele>492.00000000000006</ele><time>2026-04-18T11:33:14Z</time></trkpt><trkpt lat="47.283995742169324" lon="8.76645202641671"><ele>492.00000000000006</ele><time>2026-04-18T11:33:16Z</time></trkpt><trkpt lat="47.284100391189774" lon="8.766461138478846"><ele>492.0</ele><time>2026-04-18T11:33:18Z</time></trkpt><trkpt lat="47.284193557243746" lon="8.766481629354628"><ele>492.0</ele><time>2026-04-18T11:33:20Z</time></trkpt><trkpt lat="47.28427776702357" lon="8.76649736495487"><ele>491.6666666666667</ele><time>2026-04-18T11:33:22Z</time></trkpt><trkpt lat="47.28435496572114" lon="8.766514662535679"><ele>491.33333333333337</ele><time>2026-04-18T11:33:24Z</time></trkpt><trkpt lat="47.28442609014324" lon="8.766527521602352"><ele>491.0</ele><time>2026-04-18T11:33:26Z</time></trkpt><trkpt lat="47.284493322705686" lon="8.766528177890885"><ele>490.6666666666667</ele><time>2026-04-18T11:33:28Z</time></trkpt><trkpt lat="47.28455926120104" lon="8.76654668742791"><ele>490.33333333333337</ele><time>2026-04-18T11:33:50Z</time></trkpt><trkpt lat="47.284647743486815" lon="8.766568719691515"><ele>490.0</ele><time>2026-04-18T11:33:54Z</time></trkpt><trkpt lat="47.28473956582759" lon="8.76658797502354"><ele>489.33333333333337</ele><time>2026-04-18T11:33:57Z</time></trkpt><trkpt lat="47.2848288696464" lon="8.766605182706414"><ele>488.6666666666667</ele><time>2026-04-18T11:34:00Z</time></trkpt><trkpt lat="47.28491298184392" lon="8.766617651920535"><ele>488.0</ele><time>2026-04-18T11:34:02Z</time></trkpt><trkpt lat="47.28499422808322" lon="8.766629546910274"><ele>487.33333333333337</ele><time>2026-04-18T11:34:04Z</time></trkpt><trkpt lat="47.28506279773545" lon="8.766638266218342"><ele>486.6666666666667</ele><time>2026-04-18T11:34:06Z</time></trkpt><trkpt lat="47.285099285697896" lon="8.766553889187264"><ele>486.0</ele><time>2026-04-18T11:34:42Z</time></trkpt><trkpt lat="47.28518908860732" lon="8.766546462263454"><ele>486.0</ele><time>2026-04-18T11:34:45Z</time></trkpt><trkpt lat="47.28528025368826" lon="8.766564038215314"><ele>486.0</ele><time>2026-04-18T11:34:47Z</time></trkpt><trkpt lat="47.28536158056256" lon="8.766558308393861"><ele>486.0</ele><time>2026-04-18T11:34:49Z</time></trkpt><trkpt lat="47.28542626329334" lon="8.76655221028538"><ele>486.0</ele><time>2026-04-18T11:34:51Z</time></trkpt><trkpt lat="47.28532778410049" lon="8.76655539712647"><ele>486.0</ele><time>2026-04-18T11:35:43Z</time></trkpt><trkpt lat="47.28524913423126" lon="8.766553173537377"><ele>486.0</ele><time>2026-04-18T11:35:45Z</time></trkpt><trkpt lat="47.285157926168715" lon="8.766555024116625"><ele>486.0</ele><time>2026-04-18T11:35:47Z</time></trkpt><trkpt lat="47.285076011199344" lon="8.76654992385025"><ele>486.0</ele><time>2026-04-18T11:35:49Z</time></trkpt><trkpt lat="47.28500553356302" lon="8.766538618854774"><ele>486.0</ele><time>2026-04-18T11:35:51Z</time></trkpt><trkpt lat="47.28493993480754" lon="8.76653107037613"><ele>486.0</ele><time>2026-04-18T11:35:53Z</time></trkpt><trkpt lat="47.284860777511206" lon="8.766528127687677"><ele>486.0</ele><time>2026-04-18T11:35:55Z</time></trkpt><trkpt lat="47.28477359977657" lon="8.766512563557022"><ele>486.0</ele><time>2026-04-18T11:35:57Z</time></trkpt><trkpt lat="47.28469891585053" lon="8.766506084246423"><ele>486.6666666666667</ele><time>2026-04-18T11:35:59Z</time></trkpt><trkpt lat="47.284622788051834" lon="8.766494287294684"><ele>487.33333333333337</ele><time>2026-04-18T11:36:02Z</time></trkpt><trkpt lat="47.28455008741467" lon="8.766473389463796"><ele>488.0</ele><time>2026-04-18T11:36:05Z</time></trkpt><trkpt lat="47.28445057247126" lon="8.766435207770858"><ele>488.6666666666667</ele><time>2026-04-18T11:36:06Z</time></trkpt><trkpt lat="47.28437785033538" lon="8.766420879591557"><ele>489.33333333333337</ele><time>2026-04-18T11:36:08Z</time></trkpt><trkpt lat="47.28429606816745" lon="8.766406060694878"><ele>490.0</ele><time>2026-04-18T11:36:11Z</time></trkpt><trkpt lat="47.28422803940421" lon="8.766386935645926"><ele>490.00000000000006</ele><time>2026-04-18T11:36:13Z</time></trkpt><trkpt lat="47.28416514253074" lon="8.766364422872494"><ele>490.0</ele><time>2026-04-18T11:36:15Z</time></trkpt><trkpt lat="47.284084253288334" lon="8.766350067585567"><ele>490.0</ele><time>2026-04-18T11:36:19Z</time></trkpt><trkpt lat="47.28401216911144" lon="8.766336278177661"><ele>490.0</ele><time>2026-04-18T11:36:22Z</time></trkpt><trkpt lat="47.28392165345982" lon="8.766304727639035"><ele>490.00000000000006</ele><time>2026-04-18T11:36:26Z</time></trkpt><trkpt lat="47.28382926920068" lon="8.766289106204884"><ele>490.0</ele><time>2026-04-18T11:36:29Z</time></trkpt><trkpt lat="47.283756542470066" lon="8.766268106273365"><ele>490.33333333333337</ele><time>2026-04-18T11:36:32Z</time></trkpt><trkpt lat="47.2836678630622" lon="8.766247499361187"><ele>490.6666666666667</ele><time>2026-04-18T11:36:36Z</time></trkpt><trkpt lat="47.283598394706566" lon="8.766228244667634"><ele>491.0</ele><time>2026-04-18T11:36:39Z</time></trkpt><trkpt lat="47.28353493226349" lon="8.766184271114625"><ele>491.33333333333337</ele><time>2026-04-18T11:36:43Z</time></trkpt><trkpt lat="47.28347927158509" lon="8.766097224879962"><ele>491.6666666666667</ele><time>2026-04-18T11:36:47Z</time></trkpt><trkpt lat="47.28344042474821" lon="8.766005008446308"><ele>492.0</ele><time>2026-04-18T11:37:38Z</time></trkpt><trkpt lat="47.28340021244774" lon="8.76591872123772"><ele>492.00000000000006</ele><time>2026-04-18T11:37:46Z</time></trkpt><trkpt lat="47.283381740296" lon="8.76582354489112"><ele>492.0</ele><time>2026-04-18T11:37:53Z</time></trkpt><trkpt lat="47.28338339513971" lon="8.765917059530912"><ele>492.00000000000006</ele><time>2026-04-18T11:40:49Z</time></trkpt><trkpt lat="47.283436853708984" lon="8.766002849843916"><ele>492.00000000000006</ele><time>2026-04-18T11:40:53Z</time></trkpt><trkpt lat="47.2834033917177" lon="8.765921840873224"><ele>492.0</ele><time>2026-04-18T11:41:19Z</time></trkpt><trkpt lat="47.2833836566732" lon="8.765826798071291"><ele>492.00000000000006</ele><time>2026-04-18T11:41:26Z</time></trkpt><trkpt lat="47.28330184917682" lon="8.765828063147447"><ele>492.00000000000006</ele><time>2026-04-18T11:43:28Z</time></trkpt><trkpt lat="47.28325853549537" lon="8.765904332800703"><ele>492.00000000000006</ele><time>2026-04-18T11:43:31Z</time></trkpt><trkpt lat="47.28324729915993" lon="8.765997124976034"><ele>492.0</ele><time>2026-04-18T11:43:34Z</time></trkpt><trkpt lat="47.28324082975172" lon="8.766102577646544"><ele>492.00000000000006</ele><time>2026-04-18T11:44:01Z</time></trkpt><trkpt lat="47.283244076397544" lon="8.76619714529492"><ele>492.00000000000006</ele><time>2026-04-18T11:44:07Z</time></trkpt><trkpt lat="47.28325507862404" lon="8.766089451292764"><ele>492.0</ele><time>2026-04-18T11:49:16Z</time></trkpt><trkpt lat="47.283242651483036" lon="8.76597300376098"><ele>492.00000000000006</ele><time>2026-04-18T11:49:18Z</time></trkpt><trkpt lat="47.283243993345" lon="8.765870562774683"><ele>492.00000000000006</ele><time>2026-04-18T11:49:20Z</time></trkpt><trkpt lat="47.28325477391889" lon="8.765772532315879"><ele>492.0</ele><time>2026-04-18T11:49:22Z</time></trkpt><trkpt lat="47.283273758228674" lon="8.765667003175198"><ele>492.0</ele><time>2026-04-18T11:49:25Z</time></trkpt><trkpt lat="47.28331009765106" lon="8.76555448265361"><ele>492.0</ele><time>2026-04-18T11:49:27Z</time></trkpt><trkpt lat="47.28335424439979" lon="8.765467491811254"><ele>492.0</ele><time>2026-04-18T11:49:29Z</time></trkpt><trkpt lat="47.28340841556495" lon="8.765391803636188"><ele>492.0</ele><time>2026-04-18T11:49:31Z</time></trkpt><trkpt lat="47.28346457321507" lon="8.765326696589469"><ele>492.0</ele><time>2026-04-18T11:49:34Z</time></trkpt><trkpt lat="47.283529001787954" lon="8.765238231978554"><ele>492.0</ele><time>2026-04-18T11:49:36Z</time></trkpt><trkpt lat="47.28360746672802" lon="8.7651612652572"><ele>492.0</ele><time>2026-04-18T11:49:39Z</time></trkpt><trkpt lat="47.28366232970854" lon="8.765088555360938"><ele>492.0</ele><time>2026-04-18T11:49:41Z</time></trkpt><trkpt lat="47.28371497035886" lon="8.765024775431211"><ele>492.0</ele><time>2026-04-18T11:49:43Z</time></trkpt><trkpt lat="47.28376289738172" lon="8.764961506719658"><ele>492.0</ele><time>2026-04-18T11:49:45Z</time></trkpt><trkpt lat="47.283817915343725" lon="8.764872538368131"><ele>492.0</ele><time>2026-04-18T11:49:48Z</time></trkpt><trkpt lat="47.283871360034425" lon="8.764768192067914"><ele>492.0</ele><time>2026-04-18T11:49:51Z</time></trkpt><trkpt lat="47.28390950725341" lon="8.764690199181686"><ele>492.0</ele><time>2026-04-18T11:49:54Z</time></trkpt><trkpt lat="47.28398272594094" lon="8.764650640699648"><ele>492.0</ele><time>2026-04-18T11:49:59Z</time></trkpt><trkpt lat="47.28402680830964" lon="8.764559204658784"><ele>492.0</ele><time>2026-04-18T11:50:03Z</time></trkpt><trkpt lat="47.28406498186004" lon="8.764462715525761"><ele>492.0</ele><time>2026-04-18T11:50:46Z</time></trkpt><trkpt lat="47.284110238760405" lon="8.76434414589126"><ele>492.0</ele><time>2026-04-18T11:50:49Z</time></trkpt><trkpt lat="47.28414586158385" lon="8.76426025250751"><ele>492.1428571428572</ele><time>2026-04-18T11:50:51Z</time></trkpt><trkpt lat="47.28417557394609" lon="8.76417458585621"><ele>492.28571428571433</ele><time>2026-04-18T11:50:53Z</time></trkpt><trkpt lat="47.28420597287922" lon="8.764088029675605"><ele>492.42857142857144</ele><time>2026-04-18T11:50:55Z</time></trkpt><trkpt lat="47.28424627334957" lon="8.764000602355429"><ele>492.5714285714286</ele><time>2026-04-18T11:50:57Z</time></trkpt><trkpt lat="47.2842811874183" lon="8.763905741956304"><ele>492.7142857142858</ele><time>2026-04-18T11:50:59Z</time></trkpt><trkpt lat="47.284320188360425" lon="8.763816286132968"><ele>492.85714285714283</ele><time>2026-04-18T11:51:01Z</time></trkpt><trkpt lat="47.28435461942396" lon="8.763725135420927"><ele>493.0</ele><time>2026-04-18T11:51:03Z</time></trkpt><trkpt lat="47.284390680342206" lon="8.763622835967892"><ele>493.1666666666667</ele><time>2026-04-18T11:51:05Z</time></trkpt><trkpt lat="47.28442789638023" lon="8.763529999480618"><ele>493.33333333333337</ele><time>2026-04-18T11:51:07Z</time></trkpt><trkpt lat="47.284477059575984" lon="8.7634230416288"><ele>493.5</ele><time>2026-04-18T11:51:09Z</time></trkpt><trkpt lat="47.284526937866374" lon="8.76330609849855"><ele>493.66666666666663</ele><time>2026-04-18T11:51:11Z</time></trkpt><trkpt lat="47.284569470905666" lon="8.763193575124838"><ele>493.8333333333333</ele><time>2026-04-18T11:51:13Z</time></trkpt><trkpt lat="47.284584449643816" lon="8.763082976934896"><ele>494.0</ele><time>2026-04-18T11:51:15Z</time></trkpt><trkpt lat="47.28452279504106" lon="8.762993086163306"><ele>494.0</ele><time>2026-04-18T11:51:17Z</time></trkpt><trkpt lat="47.28445014294792" lon="8.762946172420472"><ele>494.0</ele><time>2026-04-18T11:51:19Z</time></trkpt><trkpt lat="47.28435716438721" lon="8.762860764238383"><ele>494.0</ele><time>2026-04-18T11:51:21Z</time></trkpt><trkpt lat="47.28430915758167" lon="8.76279456052188"><ele>494.0</ele><time>2026-04-18T11:51:22Z</time></trkpt><trkpt lat="47.28421660397183" lon="8.762678241346755"><ele>494.0</ele><time>2026-04-18T11:51:24Z</time></trkpt><trkpt lat="47.28411519092326" lon="8.762578494339852"><ele>493.3333333333333</ele><time>2026-04-18T11:51:26Z</time></trkpt><trkpt lat="47.28405289055927" lon="8.762555399236856"><ele>492.66666666666663</ele><time>2026-04-18T11:51:27Z</time></trkpt><trkpt lat="47.28395250169284" lon="8.762449052635574"><ele>492.0</ele><time>2026-04-18T11:51:29Z</time></trkpt><trkpt lat="47.283930905637156" lon="8.762330269996523"><ele>491.33333333333337</ele><time>2026-04-18T11:51:30Z</time></trkpt><trkpt lat="47.28387515043032" lon="8.76227256957288"><ele>490.6666666666667</ele><time>2026-04-18T11:51:31Z</time></trkpt><trkpt lat="47.283821911912256" lon="8.762221573199344"><ele>490.0</ele><time>2026-04-18T11:51:32Z</time></trkpt><trkpt lat="47.28376478611703" lon="8.762172269887524"><ele>489.0</ele><time>2026-04-18T11:51:33Z</time></trkpt><trkpt lat="47.28365977267555" lon="8.762086207680422"><ele>488.0</ele><time>2026-04-18T11:51:35Z</time></trkpt><trkpt lat="47.283560675658194" lon="8.76200641458495"><ele>487.0</ele><time>2026-04-18T11:51:37Z</time></trkpt><trkpt lat="47.28347196746991" lon="8.761937034077643"><ele>486.0</ele><time>2026-04-18T11:51:39Z</time></trkpt><trkpt lat="47.28339179432516" lon="8.761874328945456"><ele>485.0</ele><time>2026-04-18T11:51:41Z</time></trkpt><trkpt lat="47.28332009113404" lon="8.761818248368332"><ele>485.00000000000006</ele><time>2026-04-18T11:51:43Z</time></trkpt><trkpt lat="47.283263970390976" lon="8.761774354166603"><ele>485.0</ele><time>2026-04-18T11:51:45Z</time></trkpt><trkpt lat="47.28319740132825" lon="8.761724907469526"><ele>485.00000000000006</ele><time>2026-04-18T11:51:47Z</time></trkpt><trkpt lat="47.283130002471" lon="8.761674108686242"><ele>485.00000000000006</ele><time>2026-04-18T11:51:49Z</time></trkpt><trkpt lat="47.28305421632953" lon="8.76161764837518"><ele>485.0</ele><time>2026-04-18T11:51:52Z</time></trkpt><trkpt lat="47.28306177962368" lon="8.761525427037046"><ele>485.00000000000006</ele><time>2026-04-18T11:52:01Z</time></trkpt><trkpt lat="47.28306932985791" lon="8.76142543549931"><ele>485.00000000000006</ele><time>2026-04-18T11:52:04Z</time></trkpt><trkpt lat="47.28307145936013" lon="8.76131796515919"><ele>485.49999999999994</ele><time>2026-04-18T11:52:08Z</time></trkpt><trkpt lat="47.28301606219848" lon="8.76136787534173"><ele>486.0</ele><time>2026-04-18T11:52:21Z</time></trkpt><trkpt lat="47.28293404600039" lon="8.76131878387523"><ele>486.5</ele><time>2026-04-18T11:52:24Z</time></trkpt><trkpt lat="47.28295580792115" lon="8.761202989221418"><ele>487.0</ele><time>2026-04-18T11:52:27Z</time></trkpt><trkpt lat="47.2829907152386" lon="8.761105313826537"><ele>487.49999999999994</ele><time>2026-04-18T11:52:29Z</time></trkpt><trkpt lat="47.283017886536044" lon="8.761018119201262"><ele>488.0</ele><time>2026-04-18T11:52:31Z</time></trkpt><trkpt lat="47.283056438704115" lon="8.760912236940294"><ele>488.16666666666663</ele><time>2026-04-18T11:52:34Z</time></trkpt><trkpt lat="47.28309375548472" lon="8.760792724028704"><ele>488.3333333333333</ele><time>2026-04-18T11:52:37Z</time></trkpt><trkpt lat="47.28312003084185" lon="8.760703461701558"><ele>488.5</ele><time>2026-04-18T11:52:39Z</time></trkpt><trkpt lat="47.28315168789763" lon="8.76060818718002"><ele>488.66666666666663</ele><time>2026-04-18T11:52:41Z</time></trkpt><trkpt lat="47.28318057576398" lon="8.760513226525115"><ele>488.8333333333333</ele><time>2026-04-18T11:52:44Z</time></trkpt><trkpt lat="47.28320446445831" lon="8.760416297898013"><ele>489.0</ele><time>2026-04-18T11:52:46Z</time></trkpt><trkpt lat="47.28324190764144" lon="8.760296536853161"><ele>489.2</ele><time>2026-04-18T11:52:49Z</time></trkpt><trkpt lat="47.283283119522586" lon="8.760168802239871"><ele>489.4</ele><time>2026-04-18T11:52:52Z</time></trkpt><trkpt lat="47.283311610418785" lon="8.760073208397516"><ele>489.6</ele><time>2026-04-18T11:52:55Z</time></trkpt><trkpt lat="47.28334630702282" lon="8.759930742204824"><ele>489.8</ele><time>2026-04-18T11:52:58Z</time></trkpt><trkpt lat="47.28339551693252" lon="8.759794975544127"><ele>490.0</ele><time>2026-04-18T11:53:01Z</time></trkpt><trkpt lat="47.28342835521471" lon="8.759678803327516"><ele>490.00000000000006</ele><time>2026-04-18T11:53:04Z</time></trkpt><trkpt lat="47.28345270796329" lon="8.759583424618741"><ele>490.0</ele><time>2026-04-18T11:53:07Z</time></trkpt><trkpt lat="47.28346262019989" lon="8.759421150893724"><ele>490.0</ele><time>2026-04-18T11:53:10Z</time></trkpt><trkpt lat="47.283487002565245" lon="8.759315723367575"><ele>490.0</ele><time>2026-04-18T11:53:13Z</time></trkpt><trkpt lat="47.2835055382344" lon="8.759173034230267"><ele>490.00000000000006</ele><time>2026-04-18T11:53:16Z</time></trkpt><trkpt lat="47.28350261281282" lon="8.75907701056552"><ele>490.0</ele><time>2026-04-18T11:53:18Z</time></trkpt><trkpt lat="47.28352233065597" lon="8.758970050066251"><ele>490.2857142857143</ele><time>2026-04-18T11:53:21Z</time></trkpt><trkpt lat="47.2835611655016" lon="8.758872858410653"><ele>490.57142857142856</ele><time>2026-04-18T11:53:24Z</time></trkpt><trkpt lat="47.283624056789655" lon="8.758795552633003"><ele>490.8571428571429</ele><time>2026-04-18T11:53:27Z</time></trkpt><trkpt lat="47.283664395111934" lon="8.758697449697472"><ele>491.14285714285717</ele><time>2026-04-18T11:53:31Z</time></trkpt><trkpt lat="47.28369397075927" lon="8.758610256652549"><ele>491.42857142857144</ele><time>2026-04-18T11:53:33Z</time></trkpt><trkpt lat="47.28372708021455" lon="8.758511691507687"><ele>491.7142857142858</ele><time>2026-04-18T11:53:35Z</time></trkpt><trkpt lat="47.283753069890025" lon="8.758419033898212"><ele>492.00000000000006</ele><time>2026-04-18T11:53:37Z</time></trkpt><trkpt lat="47.28378745264783" lon="8.758308975390639"><ele>492.1428571428572</ele><time>2026-04-18T11:53:40Z</time></trkpt><trkpt lat="47.283807079282084" lon="8.758214312418874"><ele>492.28571428571433</ele><time>2026-04-18T11:53:43Z</time></trkpt><trkpt lat="47.283841296737904" lon="8.758107748444449"><ele>492.42857142857144</ele><time>2026-04-18T11:53:46Z</time></trkpt><trkpt lat="47.28386824247385" lon="8.758015981661272"><ele>492.5714285714286</ele><time>2026-04-18T11:53:48Z</time></trkpt><trkpt lat="47.283892560560595" lon="8.757927014878364"><ele>492.7142857142858</ele><time>2026-04-18T11:53:51Z</time></trkpt><trkpt lat="47.28391479675071" lon="8.7578258734203"><ele>492.85714285714283</ele><time>2026-04-18T11:53:55Z</time></trkpt><trkpt lat="47.28395857580239" lon="8.75771698460583"><ele>493.0</ele><time>2026-04-18T11:53:58Z</time></trkpt><trkpt lat="47.283997550479626" lon="8.75760380392358"><ele>493.00000000000006</ele><time>2026-04-18T11:54:01Z</time></trkpt><trkpt lat="47.28402071977895" lon="8.757500214481723"><ele>493.0</ele><time>2026-04-18T11:54:04Z</time></trkpt><trkpt lat="47.284053809779714" lon="8.757374741271596"><ele>493.0</ele><time>2026-04-18T11:54:07Z</time></trkpt><trkpt lat="47.284080031526855" lon="8.75726066396177"><ele>493.0</ele><time>2026-04-18T11:54:10Z</time></trkpt><trkpt lat="47.284112426938286" lon="8.75716710680364"><ele>493.00000000000006</ele><time>2026-04-18T11:54:14Z</time></trkpt><trkpt lat="47.284148115660805" lon="8.757077912143243"><ele>493.0</ele><time>2026-04-18T11:54:17Z</time></trkpt><trkpt lat="47.28417284907923" lon="8.756954801708696"><ele>493.50000000000006</ele><time>2026-04-18T11:54:20Z</time></trkpt><trkpt lat="47.28419297368492" lon="8.756861796248037"><ele>494.0</ele><time>2026-04-18T11:54:22Z</time></trkpt><trkpt lat="47.28423013669755" lon="8.756749019521349"><ele>494.5</ele><time>2026-04-18T11:54:25Z</time></trkpt><trkpt lat="47.28425913110534" lon="8.756650514949728"><ele>495.0</ele><time>2026-04-18T11:54:28Z</time></trkpt><trkpt lat="47.28428746837877" lon="8.756521574946714"><ele>495.50000000000006</ele><time>2026-04-18T11:54:31Z</time></trkpt><trkpt lat="47.28430930623057" lon="8.756432606351357"><ele>496.0</ele><time>2026-04-18T11:54:33Z</time></trkpt><trkpt lat="47.2843447044654" lon="8.756320395653798"><ele>496.00000000000006</ele><time>2026-04-18T11:54:37Z</time></trkpt><trkpt lat="47.28437662701963" lon="8.75619815897644"><ele>496.0</ele><time>2026-04-18T11:54:41Z</time></trkpt><trkpt lat="47.284404049218885" lon="8.756086195545208"><ele>496.0</ele><time>2026-04-18T11:54:44Z</time></trkpt><trkpt lat="47.28444465666441" lon="8.755973235413306"><ele>496.0</ele><time>2026-04-18T11:54:47Z</time></trkpt><trkpt lat="47.28448059434387" lon="8.755859825792346"><ele>496.00000000000006</ele><time>2026-04-18T11:54:51Z</time></trkpt><trkpt lat="47.28449539182349" lon="8.755768122111748"><ele>496.0</ele><time>2026-04-18T11:54:55Z</time></trkpt><trkpt lat="47.28450973730283" lon="8.75566426505077"><ele>496.00000000000006</ele><time>2026-04-18T11:54:58Z</time></trkpt><trkpt lat="47.28452203503048" lon="8.755564795180508"><ele>496.0</ele><time>2026-04-18T11:55:00Z</time></trkpt><trkpt lat="47.284536057488275" lon="8.755473458277775"><ele>496.0</ele><time>2026-04-18T11:55:02Z</time></trkpt><trkpt lat="47.2845431175861" lon="8.755356502896968"><ele>496.0</ele><time>2026-04-18T11:55:04Z</time></trkpt><trkpt lat="47.28454668828229" lon="8.755209589107393"><ele>496.00000000000006</ele><time>2026-04-18T11:55:06Z</time></trkpt><trkpt lat="47.2845471262325" lon="8.755070659736829"><ele>496.0</ele><time>2026-04-18T11:55:08Z</time></trkpt><trkpt lat="47.28454783975744" lon="8.754937027155638"><ele>496.1666666666667</ele><time>2026-04-18T11:55:10Z</time></trkpt><trkpt lat="47.28455512397907" lon="8.754807992981554"><ele>496.33333333333337</ele><time>2026-04-18T11:55:12Z</time></trkpt><trkpt lat="47.28455302722984" lon="8.754686497942002"><ele>496.5</ele><time>2026-04-18T11:55:14Z</time></trkpt><trkpt lat="47.284553387667536" lon="8.754571372560056"><ele>496.66666666666663</ele><time>2026-04-18T11:55:16Z</time></trkpt><trkpt lat="47.28456083893155" lon="8.7544594868644"><ele>496.8333333333333</ele><time>2026-04-18T11:55:18Z</time></trkpt><trkpt lat="47.28457595792911" lon="8.75436184695697"><ele>497.0</ele><time>2026-04-18T11:55:20Z</time></trkpt><trkpt lat="47.284579420960995" lon="8.754260264272979"><ele>497.0</ele><time>2026-04-18T11:55:22Z</time></trkpt><trkpt lat="47.284592650327575" lon="8.754118553097998"><ele>497.00000000000006</ele><time>2026-04-18T11:55:24Z</time></trkpt><trkpt lat="47.284608915205375" lon="8.753973551163456"><ele>497.00000000000006</ele><time>2026-04-18T11:55:26Z</time></trkpt><trkpt lat="47.28462874284536" lon="8.753827906100401"><ele>497.0</ele><time>2026-04-18T11:55:28Z</time></trkpt><trkpt lat="47.284739873128075" lon="8.753722519722595"><ele>497.0</ele><time>2026-04-18T11:55:30Z</time></trkpt><trkpt lat="47.28476468061851" lon="8.753589096390323"><ele>497.16666666666663</ele><time>2026-04-18T11:55:32Z</time></trkpt><trkpt lat="47.2847900967715" lon="8.753457233753938"><ele>497.3333333333333</ele><time>2026-04-18T11:55:34Z</time></trkpt><trkpt lat="47.28481481452753" lon="8.75332745573296"><ele>497.5</ele><time>2026-04-18T11:55:36Z</time></trkpt><trkpt lat="47.28483739706449" lon="8.753205013046077"><ele>497.66666666666663</ele><time>2026-04-18T11:55:38Z</time></trkpt><trkpt lat="47.284858396134645" lon="8.753089449705678"><ele>497.8333333333333</ele><time>2026-04-18T11:55:40Z</time></trkpt><trkpt lat="47.28487817652334" lon="8.752980661207385"><ele>498.0</ele><time>2026-04-18T11:55:42Z</time></trkpt><trkpt lat="47.28489701346606" lon="8.752877061440758"><ele>498.0</ele><time>2026-04-18T11:55:44Z</time></trkpt><trkpt lat="47.28491906953602" lon="8.752755756759404"><ele>497.99999999999994</ele><time>2026-04-18T11:55:46Z</time></trkpt><trkpt lat="47.28494768801982" lon="8.752598360007983"><ele>497.99999999999994</ele><time>2026-04-18T11:55:48Z</time></trkpt><trkpt lat="47.284979535083316" lon="8.752423207021085"><ele>498.0</ele><time>2026-04-18T11:55:50Z</time></trkpt><trkpt lat="47.285012563357206" lon="8.752241557243034"><ele>498.0</ele><time>2026-04-18T11:55:52Z</time></trkpt><trkpt lat="47.28502995911631" lon="8.752145883776603"><ele>497.8333333333333</ele><time>2026-04-18T11:55:53Z</time></trkpt><trkpt lat="47.285046571938466" lon="8.75205451604673"><ele>497.66666666666663</ele><time>2026-04-18T11:55:54Z</time></trkpt><trkpt lat="47.285073675609226" lon="8.751905450699734"><ele>497.5</ele><time>2026-04-18T11:55:56Z</time></trkpt><trkpt lat="47.284986212576" lon="8.751802904910736"><ele>497.3333333333333</ele><time>2026-04-18T11:55:57Z</time></trkpt><trkpt lat="47.2850080677241" lon="8.751699441144803"><ele>497.16666666666663</ele><time>2026-04-18T11:55:59Z</time></trkpt><trkpt lat="47.28507394095682" lon="8.751627060957313"><ele>497.0</ele><time>2026-04-18T11:56:02Z</time></trkpt><trkpt lat="47.28513391228586" lon="8.751577702210662"><ele>497.0</ele><time>2026-04-18T11:56:04Z</time></trkpt><trkpt lat="47.285149455481246" lon="8.751454361949422"><ele>497.00000000000006</ele><time>2026-04-18T11:56:07Z</time></trkpt><trkpt lat="47.28517372715843" lon="8.751327442935805"><ele>497.00000000000006</ele><time>2026-04-18T11:56:11Z</time></trkpt><trkpt lat="47.28520031293231" lon="8.751205938120803"><ele>497.0</ele><time>2026-04-18T11:56:14Z</time></trkpt><trkpt lat="47.285224372865954" lon="8.751078003655847"><ele>497.0</ele><time>2026-04-18T11:56:16Z</time></trkpt><trkpt lat="47.285253937406914" lon="8.750921527496715"><ele>497.16666666666663</ele><time>2026-04-18T11:56:18Z</time></trkpt><trkpt lat="47.28528437351854" lon="8.750744011674763"><ele>497.3333333333333</ele><time>2026-04-18T11:56:20Z</time></trkpt><trkpt lat="47.2853057002067" lon="8.750651527188376"><ele>497.5</ele><time>2026-04-18T11:56:21Z</time></trkpt><trkpt lat="47.28532387394146" lon="8.750554343386016"><ele>497.66666666666663</ele><time>2026-04-18T11:56:22Z</time></trkpt><trkpt lat="47.285340519647335" lon="8.750454727340353"><ele>497.8333333333333</ele><time>2026-04-18T11:56:23Z</time></trkpt><trkpt lat="47.28535972994354" lon="8.750352202421569"><ele>498.0</ele><time>2026-04-18T11:56:24Z</time></trkpt><trkpt lat="47.285379859406646" lon="8.75024962869397"><ele>498.0</ele><time>2026-04-18T11:56:25Z</time></trkpt><trkpt lat="47.28540203283106" lon="8.75014340796513"><ele>498.0</ele><time>2026-04-18T11:56:26Z</time></trkpt><trkpt lat="47.2854228263059" lon="8.750036202518919"><ele>498.0</ele><time>2026-04-18T11:56:27Z</time></trkpt><trkpt lat="47.28544405053702" lon="8.749929031139015"><ele>498.0</ele><time>2026-04-18T11:56:28Z</time></trkpt><trkpt lat="47.28546585708811" lon="8.749819744425904"><ele>498.0</ele><time>2026-04-18T11:56:29Z</time></trkpt><trkpt lat="47.28548606534773" lon="8.749710468297222"><ele>498.0</ele><time>2026-04-18T11:56:30Z</time></trkpt><trkpt lat="47.28550939612162" lon="8.749603284165309"><ele>498.0</ele><time>2026-04-18T11:56:31Z</time></trkpt><trkpt lat="47.28553629784394" lon="8.749495327045029"><ele>498.0</ele><time>2026-04-18T11:56:32Z</time></trkpt><trkpt lat="47.28556696642796" lon="8.749388498610633"><ele>498.0</ele><time>2026-04-18T11:56:33Z</time></trkpt><trkpt lat="47.285603401419024" lon="8.74928376463372"><ele>498.0</ele><time>2026-04-18T11:56:34Z</time></trkpt><trkpt lat="47.285641680100554" lon="8.749180503089029"><ele>498.0</ele><time>2026-04-18T11:56:35Z</time></trkpt><trkpt lat="47.28568274499417" lon="8.749080256361966"><ele>498.0</ele><time>2026-04-18T11:56:36Z</time></trkpt><trkpt lat="47.285723676160686" lon="8.748979531935122"><ele>498.3333333333333</ele><time>2026-04-18T11:56:37Z</time></trkpt><trkpt lat="47.28576746140252" lon="8.748880162055261"><ele>498.66666666666663</ele><time>2026-04-18T11:56:38Z</time></trkpt><trkpt lat="47.28581016049817" lon="8.74878001336386"><ele>499.0</ele><time>2026-04-18T11:56:39Z</time></trkpt><trkpt lat="47.285850801528674" lon="8.748677584236333"><ele>499.3333333333333</ele><time>2026-04-18T11:56:40Z</time></trkpt><trkpt lat="47.285892431864376" lon="8.748576727501675"><ele>499.66666666666663</ele><time>2026-04-18T11:56:41Z</time></trkpt><trkpt lat="47.285935721772425" lon="8.748477544722766"><ele>500.0</ele><time>2026-04-18T11:56:42Z</time></trkpt><trkpt lat="47.285977758416955" lon="8.74837698155139"><ele>499.99999999999994</ele><time>2026-04-18T11:56:43Z</time></trkpt><trkpt lat="47.28602086537506" lon="8.748276644285644"><ele>500.0</ele><time>2026-04-18T11:56:44Z</time></trkpt><trkpt lat="47.28606123377229" lon="8.748174689061717"><ele>500.0</ele><time>2026-04-18T11:56:45Z</time></trkpt><trkpt lat="47.28610291549814" lon="8.748073749555045"><ele>500.0</ele><time>2026-04-18T11:56:46Z</time></trkpt><trkpt lat="47.28614519977746" lon="8.74797201032301"><ele>499.99999999999994</ele><time>2026-04-18T11:56:47Z</time></trkpt><trkpt lat="47.28618782086255" lon="8.747870587898758"><ele>500.0</ele><time>2026-04-18T11:56:48Z</time></trkpt><trkpt lat="47.28622936758359" lon="8.747766642310124"><ele>499.99999999999994</ele><time>2026-04-18T11:56:49Z</time></trkpt><trkpt lat="47.28626977014259" lon="8.747663168431236"><ele>500.0</ele><time>2026-04-18T11:56:50Z</time></trkpt><trkpt lat="47.28631299629859" lon="8.747562177701642"><ele>500.0</ele><time>2026-04-18T11:56:51Z</time></trkpt><trkpt lat="47.28635420195469" lon="8.747460418912187"><ele>500.0</ele><time>2026-04-18T11:56:52Z</time></trkpt><trkpt lat="47.286396757120045" lon="8.747359888285917"><ele>499.99999999999994</ele><time>2026-04-18T11:56:53Z</time></trkpt><trkpt lat="47.286442541995235" lon="8.747262665000584"><ele>500.0</ele><time>2026-04-18T11:56:54Z</time></trkpt><trkpt lat="47.286485655481506" lon="8.747158015474218"><ele>499.8333333333333</ele><time>2026-04-18T11:56:55Z</time></trkpt><trkpt lat="47.28652700820186" lon="8.747060971228068"><ele>499.66666666666663</ele><time>2026-04-18T11:56:56Z</time></trkpt><trkpt lat="47.28657385783113" lon="8.746954289132256"><ele>499.5</ele><time>2026-04-18T11:56:57Z</time></trkpt><trkpt lat="47.286613551318865" lon="8.746853632825625"><ele>499.33333333333337</ele><time>2026-04-18T11:56:58Z</time></trkpt><trkpt lat="47.286657897784885" lon="8.74674929506263"><ele>499.1666666666667</ele><time>2026-04-18T11:56:59Z</time></trkpt><trkpt lat="47.28670294753484" lon="8.746647058143695"><ele>499.0</ele><time>2026-04-18T11:57:00Z</time></trkpt><trkpt lat="47.28674566134593" lon="8.746543703537938"><ele>499.00000000000006</ele><time>2026-04-18T11:57:01Z</time></trkpt><trkpt lat="47.286791794632876" lon="8.746441321478951"><ele>499.0</ele><time>2026-04-18T11:57:02Z</time></trkpt><trkpt lat="47.28683485768946" lon="8.746336540703656"><ele>499.0</ele><time>2026-04-18T11:57:03Z</time></trkpt><trkpt lat="47.28687722937862" lon="8.746232063209352"><ele>499.0</ele><time>2026-04-18T11:57:04Z</time></trkpt><trkpt lat="47.28692275004338" lon="8.746130397318256"><ele>499.00000000000006</ele><time>2026-04-18T11:57:05Z</time></trkpt><trkpt lat="47.28696547282039" lon="8.746027810017203"><ele>499.0</ele><time>2026-04-18T11:57:06Z</time></trkpt><trkpt lat="47.2870067455276" lon="8.745925181641594"><ele>499.33333333333337</ele><time>2026-04-18T11:57:07Z</time></trkpt><trkpt lat="47.28705080645249" lon="8.745824445172936"><ele>499.6666666666667</ele><time>2026-04-18T11:57:08Z</time></trkpt><trkpt lat="47.287091363912104" lon="8.745721904259057"><ele>500.0</ele><time>2026-04-18T11:57:09Z</time></trkpt><trkpt lat="47.287133055490116" lon="8.745620606102612"><ele>500.33333333333337</ele><time>2026-04-18T11:57:10Z</time></trkpt><trkpt lat="47.28717594298887" lon="8.745518894082977"><ele>500.6666666666667</ele><time>2026-04-18T11:57:11Z</time></trkpt><trkpt lat="47.28721730360716" lon="8.745415095928777"><ele>501.0</ele><time>2026-04-18T11:57:12Z</time></trkpt><trkpt lat="47.287261088025055" lon="8.745313595767698"><ele>500.0</ele><time>2026-04-18T11:57:13Z</time></trkpt><trkpt lat="47.28730451490781" lon="8.745212886716986"><ele>499.0</ele><time>2026-04-18T11:57:14Z</time></trkpt><trkpt lat="47.28734682641308" lon="8.745112119783263"><ele>498.0</ele><time>2026-04-18T11:57:15Z</time></trkpt><trkpt lat="47.28738722235913" lon="8.74500974561406"><ele>497.0</ele><time>2026-04-18T11:57:16Z</time></trkpt><trkpt lat="47.28742668275107" lon="8.744905393565753"><ele>496.0</ele><time>2026-04-18T11:57:17Z</time></trkpt><trkpt lat="47.2874688704844" lon="8.744804607295816"><ele>495.0</ele><time>2026-04-18T11:57:18Z</time></trkpt><trkpt lat="47.287511128209445" lon="8.744701760077556"><ele>495.0</ele><time>2026-04-18T11:57:19Z</time></trkpt><trkpt lat="47.28755420520129" lon="8.744599860120086"><ele>495.0</ele><time>2026-04-18T11:57:20Z</time></trkpt><trkpt lat="47.28758744371046" lon="8.744490586614369"><ele>495.0</ele><time>2026-04-18T11:57:21Z</time></trkpt><trkpt lat="47.28761211946034" lon="8.744375238518648"><ele>495.0</ele><time>2026-04-18T11:57:22Z</time></trkpt><trkpt lat="47.28763036432794" lon="8.74425530281658"><ele>495.0</ele><time>2026-04-18T11:57:23Z</time></trkpt><trkpt lat="47.28764158682566" lon="8.744133805848476"><ele>495.0</ele><time>2026-04-18T11:57:24Z</time></trkpt><trkpt lat="47.28764334950835" lon="8.744009364228711"><ele>495.3333333333333</ele><time>2026-04-18T11:57:25Z</time></trkpt><trkpt lat="47.28764100068659" lon="8.743887383116304"><ele>495.66666666666663</ele><time>2026-04-18T11:57:26Z</time></trkpt><trkpt lat="47.28763253007491" lon="8.743765496163398"><ele>496.0</ele><time>2026-04-18T11:57:27Z</time></trkpt><trkpt lat="47.28761583539872" lon="8.743648030175658"><ele>496.3333333333333</ele><time>2026-04-18T11:57:28Z</time></trkpt><trkpt lat="47.28760259224349" lon="8.743538593221272"><ele>496.66666666666663</ele><time>2026-04-18T11:57:29Z</time></trkpt><trkpt lat="47.28759385547285" lon="8.743430048458809"><ele>497.0</ele><time>2026-04-18T11:57:31Z</time></trkpt><trkpt lat="47.287589369161864" lon="8.743333122555569"><ele>497.0</ele><time>2026-04-18T11:57:44Z</time></trkpt><trkpt lat="47.28758188746551" lon="8.74323734657529"><ele>497.0</ele><time>2026-04-18T11:57:52Z</time></trkpt><trkpt lat="47.28755847733585" lon="8.743130983157661"><ele>497.0</ele><time>2026-04-18T11:57:56Z</time></trkpt><trkpt lat="47.28754598794888" lon="8.74302516845508"><ele>497.0</ele><time>2026-04-18T11:57:59Z</time></trkpt><trkpt lat="47.28754294830321" lon="8.742923481525496"><ele>497.0</ele><time>2026-04-18T11:58:04Z</time></trkpt><trkpt lat="47.2875197907418" lon="8.742802631224546"><ele>497.0</ele><time>2026-04-18T11:58:10Z</time></trkpt><trkpt lat="47.28751611825437" lon="8.742684612434529"><ele>497.0</ele><time>2026-04-18T11:58:12Z</time></trkpt><trkpt lat="47.28751870424922" lon="8.742558746448095"><ele>497.40000000000003</ele><time>2026-04-18T11:58:14Z</time></trkpt><trkpt lat="47.287522834193126" lon="8.74242876736603"><ele>497.80000000000007</ele><time>2026-04-18T11:58:16Z</time></trkpt><trkpt lat="47.28752487875355" lon="8.742288130828586"><ele>498.2</ele><time>2026-04-18T11:58:18Z</time></trkpt><trkpt lat="47.28753837038444" lon="8.742139111528257"><ele>498.6</ele><time>2026-04-18T11:58:20Z</time></trkpt><trkpt lat="47.28756028058793" lon="8.741978698738816"><ele>499.0</ele><time>2026-04-18T11:58:22Z</time></trkpt><trkpt lat="47.287590681211206" lon="8.741813162483119"><ele>499.79999999999995</ele><time>2026-04-18T11:58:24Z</time></trkpt><trkpt lat="47.28763408152985" lon="8.741641992295174"><ele>500.59999999999997</ele><time>2026-04-18T11:58:26Z</time></trkpt><trkpt lat="47.28768464882373" lon="8.741471239166591"><ele>501.4</ele><time>2026-04-18T11:58:28Z</time></trkpt><trkpt lat="47.28771258472219" lon="8.741383095629361"><ele>502.2</ele><time>2026-04-18T11:58:29Z</time></trkpt><trkpt lat="47.28773950606401" lon="8.741292547656037"><ele>503.0</ele><time>2026-04-18T11:58:30Z</time></trkpt><trkpt lat="47.28777231246615" lon="8.741204822360668"><ele>503.0</ele><time>2026-04-18T11:58:31Z</time></trkpt><trkpt lat="47.28780748028124" lon="8.741115530371484"><ele>503.00000000000006</ele><time>2026-04-18T11:58:32Z</time></trkpt><trkpt lat="47.28784132068784" lon="8.741022331972202"><ele>503.0</ele><time>2026-04-18T11:58:33Z</time></trkpt><trkpt lat="47.28787259616423" lon="8.740926634375285"><ele>503.0</ele><time>2026-04-18T11:58:34Z</time></trkpt><trkpt lat="47.287906646279474" lon="8.740828783279328"><ele>503.00000000000006</ele><time>2026-04-18T11:58:35Z</time></trkpt><trkpt lat="47.28793917259022" lon="8.740728259226117"><ele>503.0</ele><time>2026-04-18T11:58:36Z</time></trkpt><trkpt lat="47.28797362999744" lon="8.74062655893879"><ele>503.0</ele><time>2026-04-18T11:58:37Z</time></trkpt><trkpt lat="47.288008232319314" lon="8.740525151416751"><ele>503.66666666666663</ele><time>2026-04-18T11:58:38Z</time></trkpt><trkpt lat="47.28804508389706" lon="8.740420343190923"><ele>504.3333333333333</ele><time>2026-04-18T11:58:39Z</time></trkpt><trkpt lat="47.28807842651966" lon="8.740314217521176"><ele>505.0</ele><time>2026-04-18T11:58:40Z</time></trkpt><trkpt lat="47.28811273337749" lon="8.740205665977351"><ele>505.66666666666663</ele><time>2026-04-18T11:58:41Z</time></trkpt><trkpt lat="47.288147551230736" lon="8.740100136755679"><ele>506.3333333333333</ele><time>2026-04-18T11:58:42Z</time></trkpt><trkpt lat="47.2881790418324" lon="8.739991479156451"><ele>507.0</ele><time>2026-04-18T11:58:43Z</time></trkpt><trkpt lat="47.28820802744282" lon="8.739881692983696"><ele>507.1666666666667</ele><time>2026-04-18T11:58:44Z</time></trkpt><trkpt lat="47.28823742726216" lon="8.739773236507745"><ele>507.33333333333337</ele><time>2026-04-18T11:58:45Z</time></trkpt><trkpt lat="47.28826294338021" lon="8.73966057116625"><ele>507.5</ele><time>2026-04-18T11:58:46Z</time></trkpt><trkpt lat="47.288278908204354" lon="8.739544145683833"><ele>507.6666666666667</ele><time>2026-04-18T11:58:47Z</time></trkpt><trkpt lat="47.288291233399775" lon="8.739427569268777"><ele>507.83333333333337</ele><time>2026-04-18T11:58:48Z</time></trkpt><trkpt lat="47.28829481191348" lon="8.739322274489865"><ele>508.0</ele><time>2026-04-18T11:58:49Z</time></trkpt><trkpt lat="47.28828197618676" lon="8.739195846795681"><ele>508.00000000000006</ele><time>2026-04-18T11:58:51Z</time></trkpt><trkpt lat="47.28824419168812" lon="8.739055639859542"><ele>508.0</ele><time>2026-04-18T11:58:54Z</time></trkpt><trkpt lat="47.288241905572896" lon="8.738879344343237"><ele>508.0</ele><time>2026-04-18T11:58:56Z</time></trkpt><trkpt lat="47.28823928253601" lon="8.738777215776416"><ele>508.0</ele><time>2026-04-18T11:58:57Z</time></trkpt><trkpt lat="47.288235236850326" lon="8.738670429464692"><ele>508.00000000000006</ele><time>2026-04-18T11:58:58Z</time></trkpt><trkpt lat="47.28822488855664" lon="8.738556600939923"><ele>508.0</ele><time>2026-04-18T11:58:59Z</time></trkpt><trkpt lat="47.288213362360175" lon="8.738440507163034"><ele>507.6666666666667</ele><time>2026-04-18T11:59:00Z</time></trkpt><trkpt lat="47.28820545454885" lon="8.738319841204998"><ele>507.33333333333337</ele><time>2026-04-18T11:59:01Z</time></trkpt><trkpt lat="47.28819839442952" lon="8.738195896815554"><ele>507.0</ele><time>2026-04-18T11:59:02Z</time></trkpt><trkpt lat="47.2881874443654" lon="8.738071845871096"><ele>506.66666666666663</ele><time>2026-04-18T11:59:03Z</time></trkpt><trkpt lat="47.288176887972256" lon="8.737943352028946"><ele>506.3333333333333</ele><time>2026-04-18T11:59:04Z</time></trkpt><trkpt lat="47.288165015915155" lon="8.737812535720806"><ele>506.0</ele><time>2026-04-18T11:59:05Z</time></trkpt><trkpt lat="47.288152816086786" lon="8.737679376452977"><ele>505.4</ele><time>2026-04-18T11:59:06Z</time></trkpt><trkpt lat="47.2881405352424" lon="8.737544256449157"><ele>504.8</ele><time>2026-04-18T11:59:07Z</time></trkpt><trkpt lat="47.288133805718964" lon="8.73740565948475"><ele>504.19999999999993</ele><time>2026-04-18T11:59:08Z</time></trkpt><trkpt lat="47.28812275848673" lon="8.737267885379216"><ele>503.59999999999997</ele><time>2026-04-18T11:59:09Z</time></trkpt><trkpt lat="47.28811247969444" lon="8.737126509046764"><ele>503.0</ele><time>2026-04-18T11:59:10Z</time></trkpt><trkpt lat="47.28811165779831" lon="8.73698210536834"><ele>502.59999999999997</ele><time>2026-04-18T11:59:11Z</time></trkpt><trkpt lat="47.28811905057396" lon="8.736839316961431"><ele>502.19999999999993</ele><time>2026-04-18T11:59:12Z</time></trkpt><trkpt lat="47.28813589687931" lon="8.736694581304139"><ele>501.8</ele><time>2026-04-18T11:59:13Z</time></trkpt><trkpt lat="47.28815721896831" lon="8.73654972965755"><ele>501.4</ele><time>2026-04-18T11:59:14Z</time></trkpt><trkpt lat="47.28818830090828" lon="8.736403804979712"><ele>501.0</ele><time>2026-04-18T11:59:15Z</time></trkpt><trkpt lat="47.28821864150475" lon="8.73626045311519"><ele>501.0</ele><time>2026-04-18T11:59:16Z</time></trkpt><trkpt lat="47.28826020002892" lon="8.736117265880694"><ele>501.0</ele><time>2026-04-18T11:59:17Z</time></trkpt><trkpt lat="47.28831044472613" lon="8.735987235095381"><ele>501.0</ele><time>2026-04-18T11:59:18Z</time></trkpt><trkpt lat="47.28837277601351" lon="8.7358679046472"><ele>501.0</ele><time>2026-04-18T11:59:19Z</time></trkpt><trkpt lat="47.28843878671847" lon="8.73575055694059"><ele>501.0</ele><time>2026-04-18T11:59:20Z</time></trkpt><trkpt lat="47.28849238960813" lon="8.735668995634278"><ele>500.20000000000005</ele><time>2026-04-18T11:59:21Z</time></trkpt><trkpt lat="47.28854203861616" lon="8.735592437708592"><ele>499.40000000000003</ele><time>2026-04-18T11:59:23Z</time></trkpt><trkpt lat="47.28860252247648" lon="8.735525394663433"><ele>498.6</ele><time>2026-04-18T11:59:28Z</time></trkpt><trkpt lat="47.28853543870289" lon="8.735333847870544"><ele>497.8</ele><time>2026-04-18T11:59:31Z</time></trkpt><trkpt lat="47.28848500407577" lon="8.735218682712826"><ele>497.0</ele><time>2026-04-18T11:59:33Z</time></trkpt><trkpt lat="47.288446656709475" lon="8.735064337556118"><ele>496.49999999999994</ele><time>2026-04-18T11:59:35Z</time></trkpt><trkpt lat="47.288437917865636" lon="8.734877328952047"><ele>496.0</ele><time>2026-04-18T11:59:37Z</time></trkpt><trkpt lat="47.28844939340549" lon="8.734779345035014"><ele>495.5</ele><time>2026-04-18T11:59:38Z</time></trkpt><trkpt lat="47.2884679130788" lon="8.734681131870063"><ele>495.0</ele><time>2026-04-18T11:59:39Z</time></trkpt><trkpt lat="47.288490622445515" lon="8.734582841464274"><ele>494.49999999999994</ele><time>2026-04-18T11:59:40Z</time></trkpt><trkpt lat="47.28851326093026" lon="8.734485396936515"><ele>494.0</ele><time>2026-04-18T11:59:41Z</time></trkpt><trkpt lat="47.28853627788396" lon="8.734387204525518"><ele>493.8571428571429</ele><time>2026-04-18T11:59:42Z</time></trkpt><trkpt lat="47.288562695065714" lon="8.734290277424106"><ele>493.71428571428567</ele><time>2026-04-18T11:59:43Z</time></trkpt><trkpt lat="47.28858946784551" lon="8.734192248583048"><ele>493.57142857142856</ele><time>2026-04-18T11:59:44Z</time></trkpt><trkpt lat="47.28861545467704" lon="8.734092110680525"><ele>493.42857142857144</ele><time>2026-04-18T11:59:45Z</time></trkpt><trkpt lat="47.28864461486202" lon="8.733994242139756"><ele>493.28571428571433</ele><time>2026-04-18T11:59:46Z</time></trkpt><trkpt lat="47.288676176469494" lon="8.73389680864999"><ele>493.1428571428571</ele><time>2026-04-18T11:59:47Z</time></trkpt><trkpt lat="47.28871028315619" lon="8.733799958396519"><ele>493.0</ele><time>2026-04-18T11:59:48Z</time></trkpt><trkpt lat="47.288746088891315" lon="8.733702813743907"><ele>493.0</ele><time>2026-04-18T11:59:49Z</time></trkpt><trkpt lat="47.288779974672075" lon="8.733607898850776"><ele>493.0</ele><time>2026-04-18T11:59:50Z</time></trkpt><trkpt lat="47.28881332577875" lon="8.733512645955315"><ele>493.0</ele><time>2026-04-18T11:59:51Z</time></trkpt><trkpt lat="47.28884907469275" lon="8.73341917020138"><ele>493.0</ele><time>2026-04-18T11:59:52Z</time></trkpt><trkpt lat="47.28888323662427" lon="8.733325745018918"><ele>493.0</ele><time>2026-04-18T11:59:53Z</time></trkpt><trkpt lat="47.28891869408595" lon="8.733235795067863"><ele>493.0</ele><time>2026-04-18T11:59:54Z</time></trkpt><trkpt lat="47.28895465639245" lon="8.733146277174662"><ele>493.0</ele><time>2026-04-18T11:59:55Z</time></trkpt><trkpt lat="47.28898927506418" lon="8.733054294304736"><ele>493.1428571428571</ele><time>2026-04-18T11:59:56Z</time></trkpt><trkpt lat="47.28902289614402" lon="8.732964734174452"><ele>493.28571428571433</ele><time>2026-04-18T11:59:57Z</time></trkpt><trkpt lat="47.289055937885884" lon="8.732875042443995"><ele>493.42857142857144</ele><time>2026-04-18T11:59:58Z</time></trkpt><trkpt lat="47.28908840150041" lon="8.73278329962179"><ele>493.57142857142856</ele><time>2026-04-18T11:59:59Z</time></trkpt><trkpt lat="47.28911557663729" lon="8.732689027323762"><ele>493.71428571428567</ele><time>2026-04-18T12:00:00Z</time></trkpt><trkpt lat="47.289154749901364" lon="8.732601066281424"><ele>493.8571428571429</ele><time>2026-04-18T12:00:01Z</time></trkpt><trkpt lat="47.28915505213634" lon="8.7324944105754"><ele>494.0</ele><time>2026-04-18T12:00:02Z</time></trkpt><trkpt lat="47.28916785183406" lon="8.73239505845562"><ele>494.0</ele><time>2026-04-18T12:00:03Z</time></trkpt><trkpt lat="47.28917370581915" lon="8.732293601091694"><ele>494.0</ele><time>2026-04-18T12:00:04Z</time></trkpt><trkpt lat="47.28919133893142" lon="8.732191482464648"><ele>494.0</ele><time>2026-04-18T12:00:05Z</time></trkpt><trkpt lat="47.28918925052053" lon="8.732085801971579"><ele>494.0</ele><time>2026-04-18T12:00:06Z</time></trkpt><trkpt lat="47.28918459724942" lon="8.731980993888126"><ele>494.0</ele><time>2026-04-18T12:00:07Z</time></trkpt><trkpt lat="47.28917847703766" lon="8.731872143669616"><ele>494.0</ele><time>2026-04-18T12:00:08Z</time></trkpt><trkpt lat="47.28917189805888" lon="8.731766773204267"><ele>494.0</ele><time>2026-04-18T12:00:09Z</time></trkpt><trkpt lat="47.289165128743086" lon="8.731658355115123"><ele>493.7142857142857</ele><time>2026-04-18T12:00:10Z</time></trkpt><trkpt lat="47.28915851218761" lon="8.731552382867482"><ele>493.42857142857144</ele><time>2026-04-18T12:00:11Z</time></trkpt><trkpt lat="47.289151820517176" lon="8.731445207961425"><ele>493.14285714285717</ele><time>2026-04-18T12:00:12Z</time></trkpt><trkpt lat="47.28913413095147" lon="8.731339606802868"><ele>492.8571428571429</ele><time>2026-04-18T12:00:13Z</time></trkpt><trkpt lat="47.28912974775048" lon="8.731230799864958"><ele>492.57142857142856</ele><time>2026-04-18T12:00:14Z</time></trkpt><trkpt lat="47.28912931841081" lon="8.731122378222162"><ele>492.28571428571433</ele><time>2026-04-18T12:00:15Z</time></trkpt><trkpt lat="47.28913110478651" lon="8.731012837741227"><ele>492.00000000000006</ele><time>2026-04-18T12:00:16Z</time></trkpt><trkpt lat="47.28913477397989" lon="8.730902234080915"><ele>491.4285714285715</ele><time>2026-04-18T12:00:17Z</time></trkpt><trkpt lat="47.28913774008539" lon="8.730794974382452"><ele>490.8571428571429</ele><time>2026-04-18T12:00:18Z</time></trkpt><trkpt lat="47.289142634093785" lon="8.730686850073152"><ele>490.2857142857143</ele><time>2026-04-18T12:00:19Z</time></trkpt><trkpt lat="47.289148261095775" lon="8.730580518321473"><ele>489.7142857142857</ele><time>2026-04-18T12:00:20Z</time></trkpt><trkpt lat="47.289156902316265" lon="8.730472204540865"><ele>489.1428571428571</ele><time>2026-04-18T12:00:21Z</time></trkpt><trkpt lat="47.28918197631761" lon="8.730371590561786"><ele>488.5714285714285</ele><time>2026-04-18T12:00:22Z</time></trkpt><trkpt lat="47.289178337207076" lon="8.730260622656981"><ele>487.99999999999994</ele><time>2026-04-18T12:00:23Z</time></trkpt><trkpt lat="47.28920747391434" lon="8.730160029728932"><ele>487.99999999999994</ele><time>2026-04-18T12:00:24Z</time></trkpt><trkpt lat="47.289220649979995" lon="8.730054686927797"><ele>488.0</ele><time>2026-04-18T12:00:25Z</time></trkpt><trkpt lat="47.289218298318055" lon="8.729945988114856"><ele>487.99999999999994</ele><time>2026-04-18T12:00:26Z</time></trkpt><trkpt lat="47.28923411891812" lon="8.729839875513974"><ele>487.99999999999994</ele><time>2026-04-18T12:00:27Z</time></trkpt><trkpt lat="47.28924819682835" lon="8.729734624674435"><ele>488.0</ele><time>2026-04-18T12:00:28Z</time></trkpt><trkpt lat="47.2892630761371" lon="8.729629718991683"><ele>487.99999999999994</ele><time>2026-04-18T12:00:29Z</time></trkpt><trkpt lat="47.289277678922964" lon="8.729524347579867"><ele>487.99999999999994</ele><time>2026-04-18T12:00:30Z</time></trkpt><trkpt lat="47.28929034016606" lon="8.72941871866596"><ele>488.1428571428571</ele><time>2026-04-18T12:00:31Z</time></trkpt><trkpt lat="47.289304878713814" lon="8.729313771974267"><ele>488.2857142857143</ele><time>2026-04-18T12:00:32Z</time></trkpt><trkpt lat="47.289320940856456" lon="8.729209168370621"><ele>488.42857142857144</ele><time>2026-04-18T12:00:33Z</time></trkpt><trkpt lat="47.28933739251389" lon="8.729103716839028"><ele>488.57142857142856</ele><time>2026-04-18T12:00:34Z</time></trkpt><trkpt lat="47.289351602959144" lon="8.728998214003271"><ele>488.7142857142858</ele><time>2026-04-18T12:00:35Z</time></trkpt><trkpt lat="47.28936435472771" lon="8.728893070520593"><ele>488.8571428571429</ele><time>2026-04-18T12:00:36Z</time></trkpt><trkpt lat="47.289377869850505" lon="8.728785736045086"><ele>489.0</ele><time>2026-04-18T12:00:37Z</time></trkpt><trkpt lat="47.28939313444318" lon="8.728680193754885"><ele>489.0</ele><time>2026-04-18T12:00:38Z</time></trkpt><trkpt lat="47.28940825898258" lon="8.728575120658558"><ele>489.00000000000006</ele><time>2026-04-18T12:00:39Z</time></trkpt><trkpt lat="47.28942105273713" lon="8.728468604905155"><ele>489.0</ele><time>2026-04-18T12:00:40Z</time></trkpt><trkpt lat="47.28943488715622" lon="8.72836337672232"><ele>489.0</ele><time>2026-04-18T12:00:41Z</time></trkpt><trkpt lat="47.289450884660425" lon="8.728257381802267"><ele>489.00000000000006</ele><time>2026-04-18T12:00:42Z</time></trkpt><trkpt lat="47.28946642700751" lon="8.728149980879707"><ele>489.0</ele><time>2026-04-18T12:00:43Z</time></trkpt><trkpt lat="47.28948172592781" lon="8.728042678126572"><ele>489.0</ele><time>2026-04-18T12:00:44Z</time></trkpt><trkpt lat="47.289494725020774" lon="8.727939591267855"><ele>488.8571428571429</ele><time>2026-04-18T12:00:45Z</time></trkpt><trkpt lat="47.28950983830461" lon="8.727833229026569"><ele>488.7142857142858</ele><time>2026-04-18T12:00:46Z</time></trkpt><trkpt lat="47.289524708849875" lon="8.727726060762388"><ele>488.57142857142856</ele><time>2026-04-18T12:00:47Z</time></trkpt><trkpt lat="47.289537737532044" lon="8.727618888441938"><ele>488.42857142857144</ele><time>2026-04-18T12:00:48Z</time></trkpt><trkpt lat="47.2895506034601" lon="8.727512381324663"><ele>488.2857142857143</ele><time>2026-04-18T12:00:49Z</time></trkpt><trkpt lat="47.28956413134328" lon="8.727406310163003"><ele>488.1428571428571</ele><time>2026-04-18T12:00:50Z</time></trkpt><trkpt lat="47.28957920316117" lon="8.72730013707236"><ele>487.99999999999994</ele><time>2026-04-18T12:00:51Z</time></trkpt><trkpt lat="47.28959455702087" lon="8.727194180655593"><ele>487.99999999999994</ele><time>2026-04-18T12:00:52Z</time></trkpt><trkpt lat="47.28961016520167" lon="8.727084995651309"><ele>488.0</ele><time>2026-04-18T12:00:53Z</time></trkpt><trkpt lat="47.28962456870401" lon="8.726978432334441"><ele>487.99999999999994</ele><time>2026-04-18T12:00:54Z</time></trkpt><trkpt lat="47.289638910539715" lon="8.726870051318453"><ele>487.99999999999994</ele><time>2026-04-18T12:00:55Z</time></trkpt><trkpt lat="47.289654183566746" lon="8.726762929621716"><ele>488.0</ele><time>2026-04-18T12:00:56Z</time></trkpt><trkpt lat="47.289668770953156" lon="8.726655077630907"><ele>487.99999999999994</ele><time>2026-04-18T12:00:57Z</time></trkpt><trkpt lat="47.28968321894157" lon="8.726545609284713"><ele>487.99999999999994</ele><time>2026-04-18T12:00:58Z</time></trkpt><trkpt lat="47.28971318412126" lon="8.726443303443377"><ele>487.99999999999994</ele><time>2026-04-18T12:00:59Z</time></trkpt><trkpt lat="47.28971205469844" lon="8.726331795784054"><ele>488.0</ele><time>2026-04-18T12:01:00Z</time></trkpt><trkpt lat="47.289728101901645" lon="8.726224105261457"><ele>487.99999999999994</ele><time>2026-04-18T12:01:01Z</time></trkpt><trkpt lat="47.28974295347491" lon="8.726115569846725"><ele>487.99999999999994</ele><time>2026-04-18T12:01:02Z</time></trkpt><trkpt lat="47.28975771904483" lon="8.726006631818048"><ele>488.0</ele><time>2026-04-18T12:01:03Z</time></trkpt><trkpt lat="47.28978633901167" lon="8.725912817259735"><ele>487.99999999999994</ele><time>2026-04-18T12:01:04Z</time></trkpt><trkpt lat="47.289791783800204" lon="8.725805549519473"><ele>487.99999999999994</ele><time>2026-04-18T12:01:05Z</time></trkpt><trkpt lat="47.28980375732959" lon="8.72570061433786"><ele>487.8571428571428</ele><time>2026-04-18T12:01:06Z</time></trkpt><trkpt lat="47.28981980335286" lon="8.725596269412558"><ele>487.71428571428567</ele><time>2026-04-18T12:01:07Z</time></trkpt><trkpt lat="47.289831450483675" lon="8.725492527958417"><ele>487.57142857142856</ele><time>2026-04-18T12:01:08Z</time></trkpt><trkpt lat="47.289847158470195" lon="8.72538951772196"><ele>487.4285714285714</ele><time>2026-04-18T12:01:09Z</time></trkpt><trkpt lat="47.28985580305922" lon="8.725288519282065"><ele>487.2857142857142</ele><time>2026-04-18T12:01:10Z</time></trkpt><trkpt lat="47.28986965462932" lon="8.725188051640968"><ele>487.14285714285717</ele><time>2026-04-18T12:01:11Z</time></trkpt><trkpt lat="47.28988899959692" lon="8.725088341288684"><ele>487.0</ele><time>2026-04-18T12:01:12Z</time></trkpt><trkpt lat="47.28990048770655" lon="8.72498372412786"><ele>487.0</ele><time>2026-04-18T12:01:13Z</time></trkpt><trkpt lat="47.2899116045687" lon="8.724880755269446"><ele>487.0</ele><time>2026-04-18T12:01:14Z</time></trkpt><trkpt lat="47.28992400363853" lon="8.724778554943343"><ele>487.0</ele><time>2026-04-18T12:01:15Z</time></trkpt><trkpt lat="47.28993727904001" lon="8.724676159960088"><ele>487.0</ele><time>2026-04-18T12:01:16Z</time></trkpt><trkpt lat="47.28995635961368" lon="8.724574330032995"><ele>487.0</ele><time>2026-04-18T12:01:17Z</time></trkpt><trkpt lat="47.28996855911686" lon="8.72447181761658"><ele>487.0</ele><time>2026-04-18T12:01:18Z</time></trkpt><trkpt lat="47.28998394248213" lon="8.724370442278092"><ele>487.0</ele><time>2026-04-18T12:01:19Z</time></trkpt><trkpt lat="47.28999487314715" lon="8.724267691042842"><ele>486.7142857142857</ele><time>2026-04-18T12:01:20Z</time></trkpt><trkpt lat="47.29000770201894" lon="8.724165305291969"><ele>486.42857142857144</ele><time>2026-04-18T12:01:21Z</time></trkpt><trkpt lat="47.29002086756179" lon="8.724061908462653"><ele>486.14285714285717</ele><time>2026-04-18T12:01:22Z</time></trkpt><trkpt lat="47.29003207127685" lon="8.723959995131858"><ele>485.8571428571429</ele><time>2026-04-18T12:01:23Z</time></trkpt><trkpt lat="47.29005138709956" lon="8.723859731157363"><ele>485.57142857142856</ele><time>2026-04-18T12:01:24Z</time></trkpt><trkpt lat="47.29006668849373" lon="8.72375764549355"><ele>485.28571428571433</ele><time>2026-04-18T12:01:25Z</time></trkpt><trkpt lat="47.29007825916429" lon="8.723652866243429"><ele>485.00000000000006</ele><time>2026-04-18T12:01:26Z</time></trkpt><trkpt lat="47.290092296643465" lon="8.72354842044785"><ele>485.00000000000006</ele><time>2026-04-18T12:01:27Z</time></trkpt><trkpt lat="47.29011043203712" lon="8.723446307956545"><ele>485.0</ele><time>2026-04-18T12:01:28Z</time></trkpt><trkpt lat="47.29012416237945" lon="8.723341012127332"><ele>485.00000000000006</ele><time>2026-04-18T12:01:29Z</time></trkpt><trkpt lat="47.290137467252805" lon="8.723240999143618"><ele>485.00000000000006</ele><time>2026-04-18T12:01:30Z</time></trkpt><trkpt lat="47.29015389774224" lon="8.723138569794463"><ele>485.0</ele><time>2026-04-18T12:01:31Z</time></trkpt><trkpt lat="47.290170064795404" lon="8.723035988173898"><ele>485.00000000000006</ele><time>2026-04-18T12:01:32Z</time></trkpt><trkpt lat="47.290186598996485" lon="8.72293510003506"><ele>485.00000000000006</ele><time>2026-04-18T12:01:33Z</time></trkpt><trkpt lat="47.29020223025411" lon="8.722832128556126"><ele>484.8571428571429</ele><time>2026-04-18T12:01:34Z</time></trkpt><trkpt lat="47.29021651662813" lon="8.722730782217972"><ele>484.7142857142857</ele><time>2026-04-18T12:01:35Z</time></trkpt><trkpt lat="47.29023065169136" lon="8.722625361448998"><ele>484.57142857142856</ele><time>2026-04-18T12:01:36Z</time></trkpt><trkpt lat="47.29026189024278" lon="8.722527318791304"><ele>484.42857142857144</ele><time>2026-04-18T12:01:37Z</time></trkpt><trkpt lat="47.29026353591146" lon="8.722417108048415"><ele>484.2857142857142</ele><time>2026-04-18T12:01:38Z</time></trkpt><trkpt lat="47.290285892354525" lon="8.722312737605924"><ele>484.1428571428571</ele><time>2026-04-18T12:01:39Z</time></trkpt><trkpt lat="47.290303516561885" lon="8.722207320744308"><ele>484.0</ele><time>2026-04-18T12:01:40Z</time></trkpt><trkpt lat="47.29031794591646" lon="8.722101441223279"><ele>484.00000000000006</ele><time>2026-04-18T12:01:41Z</time></trkpt><trkpt lat="47.29033514305955" lon="8.72199361575926"><ele>484.0</ele><time>2026-04-18T12:01:42Z</time></trkpt><trkpt lat="47.29035348699459" lon="8.721886234583305"><ele>484.0</ele><time>2026-04-18T12:01:43Z</time></trkpt><trkpt lat="47.290372716219416" lon="8.721778582085685"><ele>484.0</ele><time>2026-04-18T12:01:44Z</time></trkpt><trkpt lat="47.2903896490845" lon="8.721670889593687"><ele>484.00000000000006</ele><time>2026-04-18T12:01:45Z</time></trkpt><trkpt lat="47.29041032298018" lon="8.721562622728177"><ele>484.0</ele><time>2026-04-18T12:01:46Z</time></trkpt><trkpt lat="47.29043147155402" lon="8.721455132897585"><ele>484.00000000000006</ele><time>2026-04-18T12:01:47Z</time></trkpt><trkpt lat="47.29045509284985" lon="8.721348078724695"><ele>484.0</ele><time>2026-04-18T12:01:48Z</time></trkpt><trkpt lat="47.29047712054973" lon="8.72124124061651"><ele>484.0</ele><time>2026-04-18T12:01:49Z</time></trkpt><trkpt lat="47.290514757043546" lon="8.7211405357577"><ele>484.0</ele><time>2026-04-18T12:01:50Z</time></trkpt><trkpt lat="47.29053835586535" lon="8.721035820206744"><ele>484.00000000000006</ele><time>2026-04-18T12:01:51Z</time></trkpt><trkpt lat="47.290563468808394" lon="8.720929327565281"><ele>484.0</ele><time>2026-04-18T12:01:52Z</time></trkpt><trkpt lat="47.2905755228193" lon="8.720817482866824"><ele>483.1666666666667</ele><time>2026-04-18T12:01:53Z</time></trkpt><trkpt lat="47.290601197586895" lon="8.720711109669375"><ele>482.33333333333337</ele><time>2026-04-18T12:01:54Z</time></trkpt><trkpt lat="47.290627048912754" lon="8.720604654755983"><ele>481.5</ele><time>2026-04-18T12:01:55Z</time></trkpt><trkpt lat="47.290656759632824" lon="8.72050297797648"><ele>480.66666666666663</ele><time>2026-04-18T12:01:56Z</time></trkpt><trkpt lat="47.29068766494967" lon="8.720398646538854"><ele>479.8333333333333</ele><time>2026-04-18T12:01:57Z</time></trkpt><trkpt lat="47.29071585156448" lon="8.720295923695797"><ele>479.0</ele><time>2026-04-18T12:01:58Z</time></trkpt><trkpt lat="47.2907452175363" lon="8.720194049566551"><ele>478.99999999999994</ele><time>2026-04-18T12:01:59Z</time></trkpt><trkpt lat="47.290775505097066" lon="8.720090542652217"><ele>479.0</ele><time>2026-04-18T12:02:00Z</time></trkpt><trkpt lat="47.290806235834" lon="8.719989095340328"><ele>479.0</ele><time>2026-04-18T12:02:01Z</time></trkpt><trkpt lat="47.29083807038331" lon="8.719888401716618"><ele>479.0</ele><time>2026-04-18T12:02:02Z</time></trkpt><trkpt lat="47.29086954868218" lon="8.71978902306336"><ele>478.99999999999994</ele><time>2026-04-18T12:02:03Z</time></trkpt><trkpt lat="47.29090553868236" lon="8.719692618441513"><ele>479.0</ele><time>2026-04-18T12:02:04Z</time></trkpt><trkpt lat="47.29094426085304" lon="8.719596428169377"><ele>479.0</ele><time>2026-04-18T12:02:05Z</time></trkpt><trkpt lat="47.290982721169016" lon="8.71950336761019"><ele>479.0</ele><time>2026-04-18T12:02:06Z</time></trkpt><trkpt lat="47.29102359382653" lon="8.719414692711755"><ele>479.0</ele><time>2026-04-18T12:02:07Z</time></trkpt><trkpt lat="47.29106828873705" lon="8.719324614119106"><ele>479.0</ele><time>2026-04-18T12:02:08Z</time></trkpt><trkpt lat="47.29110700384059" lon="8.719233685840658"><ele>479.0</ele><time>2026-04-18T12:02:09Z</time></trkpt><trkpt lat="47.29114923804296" lon="8.71914094094239"><ele>479.0</ele><time>2026-04-18T12:02:10Z</time></trkpt><trkpt lat="47.29118868769136" lon="8.719047318504211"><ele>479.0</ele><time>2026-04-18T12:02:11Z</time></trkpt><trkpt lat="47.29122864577956" lon="8.7189597010869"><ele>479.16666666666663</ele><time>2026-04-18T12:02:12Z</time></trkpt><trkpt lat="47.29126999702883" lon="8.718867423563614"><ele>479.3333333333333</ele><time>2026-04-18T12:02:13Z</time></trkpt><trkpt lat="47.29130840588402" lon="8.718775485322901"><ele>479.5</ele><time>2026-04-18T12:02:14Z</time></trkpt><trkpt lat="47.29136122617955" lon="8.718696941916333"><ele>479.66666666666663</ele><time>2026-04-18T12:02:15Z</time></trkpt><trkpt lat="47.29138555847813" lon="8.718588353225835"><ele>479.8333333333333</ele><time>2026-04-18T12:02:16Z</time></trkpt><trkpt lat="47.29136150468552" lon="8.718457883516924"><ele>480.0</ele><time>2026-04-18T12:02:17Z</time></trkpt><trkpt lat="47.291303487418475" lon="8.718364878948819"><ele>480.0</ele><time>2026-04-18T12:02:18Z</time></trkpt><trkpt lat="47.291197938451255" lon="8.718328877721783"><ele>480.0</ele><time>2026-04-18T12:02:19Z</time></trkpt><trkpt lat="47.291092710859594" lon="8.71824040144462"><ele>480.0</ele><time>2026-04-18T12:02:21Z</time></trkpt><trkpt lat="47.29104150666262" lon="8.718182934680074"><ele>480.0</ele><time>2026-04-18T12:02:22Z</time></trkpt><trkpt lat="47.29099612278628" lon="8.718112112292454"><ele>480.0</ele><time>2026-04-18T12:02:23Z</time></trkpt><trkpt lat="47.29095305273329" lon="8.718024527326568"><ele>480.0</ele><time>2026-04-18T12:02:24Z</time></trkpt><trkpt lat="47.29093161798614" lon="8.717921845082177"><ele>480.0</ele><time>2026-04-18T12:02:25Z</time></trkpt><trkpt lat="47.29091573534235" lon="8.717817104200318"><ele>480.0</ele><time>2026-04-18T12:02:26Z</time></trkpt><trkpt lat="47.29089656504055" lon="8.717708486315614"><ele>480.0</ele><time>2026-04-18T12:02:27Z</time></trkpt><trkpt lat="47.29087716830475" lon="8.717598585313237"><ele>480.0</ele><time>2026-04-18T12:02:28Z</time></trkpt><trkpt lat="47.290857956560345" lon="8.717489732628879"><ele>480.0</ele><time>2026-04-18T12:02:29Z</time></trkpt><trkpt lat="47.29083877852633" lon="8.717381025041552"><ele>480.0</ele><time>2026-04-18T12:02:30Z</time></trkpt><trkpt lat="47.29081928582249" lon="8.717272913593971"><ele>479.7142857142857</ele><time>2026-04-18T12:02:31Z</time></trkpt><trkpt lat="47.29079996335749" lon="8.717165746592867"><ele>479.42857142857144</ele><time>2026-04-18T12:02:32Z</time></trkpt><trkpt lat="47.29078070805067" lon="8.717058951820945"><ele>479.14285714285717</ele><time>2026-04-18T12:02:33Z</time></trkpt><trkpt lat="47.29076191304082" lon="8.71695471015271"><ele>478.8571428571429</ele><time>2026-04-18T12:02:34Z</time></trkpt><trkpt lat="47.29074288321233" lon="8.716848986235018"><ele>478.57142857142856</ele><time>2026-04-18T12:02:35Z</time></trkpt><trkpt lat="47.290723701141076" lon="8.716741641574595"><ele>478.28571428571433</ele><time>2026-04-18T12:02:36Z</time></trkpt><trkpt lat="47.29070466209713" lon="8.71663509728411"><ele>478.00000000000006</ele><time>2026-04-18T12:02:37Z</time></trkpt><trkpt lat="47.29067002408742" lon="8.716535412635046"><ele>477.8571428571429</ele><time>2026-04-18T12:02:38Z</time></trkpt><trkpt lat="47.29065264605329" lon="8.71642968284958"><ele>477.7142857142857</ele><time>2026-04-18T12:02:39Z</time></trkpt><trkpt lat="47.290635125856944" lon="8.71632460245145"><ele>477.57142857142856</ele><time>2026-04-18T12:02:40Z</time></trkpt><trkpt lat="47.29061531927574" lon="8.716220670357806"><ele>477.42857142857144</ele><time>2026-04-18T12:02:41Z</time></trkpt><trkpt lat="47.29060111476701" lon="8.716116125542884"><ele>477.2857142857142</ele><time>2026-04-18T12:02:42Z</time></trkpt><trkpt lat="47.290579969646075" lon="8.71601403392153"><ele>477.1428571428571</ele><time>2026-04-18T12:02:43Z</time></trkpt><trkpt lat="47.29056274802434" lon="8.715911351874805"><ele>477.0</ele><time>2026-04-18T12:02:44Z</time></trkpt><trkpt lat="47.290543131982524" lon="8.715808672582746"><ele>477.0</ele><time>2026-04-18T12:02:45Z</time></trkpt><trkpt lat="47.290527153170146" lon="8.715704233671266"><ele>476.99999999999994</ele><time>2026-04-18T12:02:46Z</time></trkpt><trkpt lat="47.29050829255279" lon="8.715601016294334"><ele>477.0</ele><time>2026-04-18T12:02:47Z</time></trkpt><trkpt lat="47.2904887594856" lon="8.715498930336109"><ele>477.0</ele><time>2026-04-18T12:02:48Z</time></trkpt><trkpt lat="47.29047202730969" lon="8.715394590038128"><ele>476.99999999999994</ele><time>2026-04-18T12:02:49Z</time></trkpt><trkpt lat="47.29045197955182" lon="8.715291884690764"><ele>477.0</ele><time>2026-04-18T12:02:50Z</time></trkpt><trkpt lat="47.29043281107421" lon="8.71518725194539"><ele>477.0</ele><time>2026-04-18T12:02:51Z</time></trkpt><trkpt lat="47.29040403787336" lon="8.715085112851186"><ele>477.0</ele><time>2026-04-18T12:02:52Z</time></trkpt><trkpt lat="47.290373408637954" lon="8.714988178229405"><ele>476.99999999999994</ele><time>2026-04-18T12:02:53Z</time></trkpt><trkpt lat="47.29033141738632" lon="8.714896110720668"><ele>477.0</ele><time>2026-04-18T12:02:54Z</time></trkpt><trkpt lat="47.29028137229403" lon="8.714814843992471"><ele>477.0</ele><time>2026-04-18T12:02:55Z</time></trkpt><trkpt lat="47.29022631832373" lon="8.714738433343504"><ele>476.99999999999994</ele><time>2026-04-18T12:02:56Z</time></trkpt><trkpt lat="47.29016589121899" lon="8.71467305153478"><ele>477.0</ele><time>2026-04-18T12:02:57Z</time></trkpt><trkpt lat="47.29009906520824" lon="8.714617756631428"><ele>477.0</ele><time>2026-04-18T12:02:58Z</time></trkpt><trkpt lat="47.290026978197105" lon="8.71457960144914"><ele>477.0</ele><time>2026-04-18T12:02:59Z</time></trkpt><trkpt lat="47.28995122128666" lon="8.71455429831554"><ele>477.0</ele><time>2026-04-18T12:03:00Z</time></trkpt><trkpt lat="47.28987218490376" lon="8.714539372500258"><ele>477.0</ele><time>2026-04-18T12:03:01Z</time></trkpt><trkpt lat="47.28979343046857" lon="8.714532867861088"><ele>477.0</ele><time>2026-04-18T12:03:02Z</time></trkpt><trkpt lat="47.289711167558124" lon="8.714528286094717"><ele>477.0</ele><time>2026-04-18T12:03:03Z</time></trkpt><trkpt lat="47.28963110191814" lon="8.714521353679938"><ele>477.0</ele><time>2026-04-18T12:03:04Z</time></trkpt><trkpt lat="47.289547340236695" lon="8.714513849009613"><ele>477.3333333333333</ele><time>2026-04-18T12:03:05Z</time></trkpt><trkpt lat="47.289466896311794" lon="8.714492013230382"><ele>477.66666666666663</ele><time>2026-04-18T12:03:06Z</time></trkpt><trkpt lat="47.289393860661434" lon="8.71443411429044"><ele>478.0</ele><time>2026-04-18T12:03:07Z</time></trkpt><trkpt lat="47.28932263496985" lon="8.71438424541816"><ele>478.3333333333333</ele><time>2026-04-18T12:03:08Z</time></trkpt><trkpt lat="47.2892754532533" lon="8.71431210646739"><ele>478.66666666666663</ele><time>2026-04-18T12:03:09Z</time></trkpt><trkpt lat="47.28922064042025" lon="8.71425589798378"><ele>479.0</ele><time>2026-04-18T12:03:10Z</time></trkpt><trkpt lat="47.28910713513302" lon="8.714355345795056"><ele>479.2</ele><time>2026-04-18T12:03:11Z</time></trkpt><trkpt lat="47.288990509127295" lon="8.714363249613408"><ele>479.4</ele><time>2026-04-18T12:03:13Z</time></trkpt><trkpt lat="47.28888839073963" lon="8.714332284502325"><ele>479.6</ele><time>2026-04-18T12:03:15Z</time></trkpt><trkpt lat="47.28879713883624" lon="8.71430013926934"><ele>479.8</ele><time>2026-04-18T12:03:17Z</time></trkpt><trkpt lat="47.288715330676226" lon="8.714246151789313"><ele>480.0</ele><time>2026-04-18T12:03:19Z</time></trkpt><trkpt lat="47.288656271800576" lon="8.714165150331137"><ele>480.0</ele><time>2026-04-18T12:03:21Z</time></trkpt><trkpt lat="47.288577512549395" lon="8.71406031285945"><ele>480.0</ele><time>2026-04-18T12:03:23Z</time></trkpt><trkpt lat="47.28849947234691" lon="8.71397069833793"><ele>480.0</ele><time>2026-04-18T12:03:25Z</time></trkpt><trkpt lat="47.288419381545765" lon="8.713879904255858"><ele>480.0</ele><time>2026-04-18T12:03:27Z</time></trkpt><trkpt lat="47.28834281421371" lon="8.71379310459888"><ele>480.0</ele><time>2026-04-18T12:03:29Z</time></trkpt><trkpt lat="47.28826831988714" lon="8.713708654920572"><ele>480.0</ele><time>2026-04-18T12:03:31Z</time></trkpt><trkpt lat="47.28820308940494" lon="8.713638139246816"><ele>480.0</ele><time>2026-04-18T12:03:33Z</time></trkpt><trkpt lat="47.28814202116607" lon="8.713577124522294"><ele>480.0</ele><time>2026-04-18T12:03:35Z</time></trkpt><trkpt lat="47.288080278488266" lon="8.713529134808253"><ele>480.0</ele><time>2026-04-18T12:03:37Z</time></trkpt><trkpt lat="47.28801320886525" lon="8.713483781902303"><ele>480.0</ele><time>2026-04-18T12:03:39Z</time></trkpt><trkpt lat="47.287932956409456" lon="8.713445042166526"><ele>480.0</ele><time>2026-04-18T12:03:41Z</time></trkpt><trkpt lat="47.28787953885581" lon="8.7133763890585"><ele>480.3333333333333</ele><time>2026-04-18T12:03:42Z</time></trkpt><trkpt lat="47.2878159802262" lon="8.713328226701082"><ele>480.66666666666663</ele><time>2026-04-18T12:03:43Z</time></trkpt><trkpt lat="47.28774038080052" lon="8.713298011919921"><ele>481.0</ele><time>2026-04-18T12:03:44Z</time></trkpt><trkpt lat="47.28766407410906" lon="8.713276090321834"><ele>481.3333333333333</ele><time>2026-04-18T12:03:45Z</time></trkpt><trkpt lat="47.287581487857935" lon="8.713280635158938"><ele>481.66666666666663</ele><time>2026-04-18T12:03:46Z</time></trkpt><trkpt lat="47.28750192188649" lon="8.713249166254077"><ele>482.0</ele><time>2026-04-18T12:03:47Z</time></trkpt><trkpt lat="47.28741779655231" lon="8.713277998502013"><ele>481.99999999999994</ele><time>2026-04-18T12:03:48Z</time></trkpt><trkpt lat="47.287341958918496" lon="8.713327170704444"><ele>482.0</ele><time>2026-04-18T12:03:49Z</time></trkpt><trkpt lat="47.28726268867237" lon="8.713343725767938"><ele>482.0</ele><time>2026-04-18T12:03:50Z</time></trkpt><trkpt lat="47.2871813991311" lon="8.713352952273361"><ele>482.0</ele><time>2026-04-18T12:03:51Z</time></trkpt><trkpt lat="47.28710428528352" lon="8.713364662774445"><ele>481.99999999999994</ele><time>2026-04-18T12:03:52Z</time></trkpt><trkpt lat="47.28701160733638" lon="8.713378617832296"><ele>482.0</ele><time>2026-04-18T12:03:54Z</time></trkpt><trkpt lat="47.28694262463531" lon="8.713369304478553"><ele>485.0</ele><time>2026-04-18T12:03:56Z</time></trkpt><trkpt lat="47.28695170404928" lon="8.713275388685009"><ele>485.0</ele><time>2026-04-18T12:04:23Z</time></trkpt></trkseg></trk></gpx>